<?xml version="1.0" encoding="UTF-8" standalone="no" ?>
<gpx xmlns="http://www.topografix.com/GPX/1/1" xmlns:xsi="http://www.w3.org/2001/XMLSchema-instance" xsi:schemaLocation="http://www.topografix.com/GPX/1/1 http://www.topografix.com/GPX/1/1/gpx.xsd" version="1.1" creator="VisuGPX - https://www.visugpx.com">
  <metadata>
    <name>Turquant 2</name>
    <desc><![CDATA[Randonnée de Saumur-Rando, calendrier départemental, après midi.]]></desc>
  </metadata>
  <trk>
    <name><![CDATA[2011-08-28 13:55]]></name>
    <desc><![CDATA[]]></desc>
    <trkseg>
      <trkpt lat="47.22366" lon="0.0296">
        <ele>79</ele>
        <time>2011-08-28T11:55:52Z</time>
      </trkpt>
      <trkpt lat="47.22404" lon="0.0286">
        <ele>67</ele>
        <time>2011-08-28T11:55:58Z</time>
      </trkpt>
      <trkpt lat="47.22404" lon="0.0286">
        <ele>67</ele>
        <time>2011-08-28T11:55:58Z</time>
      </trkpt>
      <trkpt lat="47.22404" lon="0.0286">
        <ele>67</ele>
        <time>2011-08-28T11:56:07Z</time>
      </trkpt>
      <trkpt lat="47.22403" lon="0.02873">
        <ele>69</ele>
        <time>2011-08-28T11:56:08Z</time>
      </trkpt>
      <trkpt lat="47.22403" lon="0.02873">
        <ele>69</ele>
        <time>2011-08-28T11:56:08Z</time>
      </trkpt>
      <trkpt lat="47.22403" lon="0.02873">
        <ele>69</ele>
        <time>2011-08-28T11:56:22Z</time>
      </trkpt>
      <trkpt lat="47.22399" lon="0.02879">
        <ele>74</ele>
        <time>2011-08-28T11:56:23Z</time>
      </trkpt>
      <trkpt lat="47.22394" lon="0.02883">
        <ele>76</ele>
        <time>2011-08-28T11:56:26Z</time>
      </trkpt>
      <trkpt lat="47.22391" lon="0.02889">
        <ele>78</ele>
        <time>2011-08-28T11:56:32Z</time>
      </trkpt>
      <trkpt lat="47.22389" lon="0.02895">
        <ele>78</ele>
        <time>2011-08-28T11:56:37Z</time>
      </trkpt>
      <trkpt lat="47.22386" lon="0.02901">
        <ele>79</ele>
        <time>2011-08-28T11:56:42Z</time>
      </trkpt>
      <trkpt lat="47.22384" lon="0.02907">
        <ele>79</ele>
        <time>2011-08-28T11:56:48Z</time>
      </trkpt>
      <trkpt lat="47.22382" lon="0.02914">
        <ele>79</ele>
        <time>2011-08-28T11:56:59Z</time>
      </trkpt>
      <trkpt lat="47.22381" lon="0.02922">
        <ele>79</ele>
        <time>2011-08-28T11:57:04Z</time>
      </trkpt>
      <trkpt lat="47.22379" lon="0.02929">
        <ele>80</ele>
        <time>2011-08-28T11:57:09Z</time>
      </trkpt>
      <trkpt lat="47.22378" lon="0.02936">
        <ele>80</ele>
        <time>2011-08-28T11:57:14Z</time>
      </trkpt>
      <trkpt lat="47.22376" lon="0.02944">
        <ele>80</ele>
        <time>2011-08-28T11:57:19Z</time>
      </trkpt>
      <trkpt lat="47.22374" lon="0.02951">
        <ele>80</ele>
        <time>2011-08-28T11:57:23Z</time>
      </trkpt>
      <trkpt lat="47.22372" lon="0.02958">
        <ele>80</ele>
        <time>2011-08-28T11:57:27Z</time>
      </trkpt>
      <trkpt lat="47.2237" lon="0.02964">
        <ele>80</ele>
        <time>2011-08-28T11:57:31Z</time>
      </trkpt>
      <trkpt lat="47.22369" lon="0.02971">
        <ele>80</ele>
        <time>2011-08-28T11:57:35Z</time>
      </trkpt>
      <trkpt lat="47.22368" lon="0.02978">
        <ele>80</ele>
        <time>2011-08-28T11:57:39Z</time>
      </trkpt>
      <trkpt lat="47.22366" lon="0.02986">
        <ele>80</ele>
        <time>2011-08-28T11:57:43Z</time>
      </trkpt>
      <trkpt lat="47.22364" lon="0.02993">
        <ele>80</ele>
        <time>2011-08-28T11:57:47Z</time>
      </trkpt>
      <trkpt lat="47.22363" lon="0.03001">
        <ele>80</ele>
        <time>2011-08-28T11:57:51Z</time>
      </trkpt>
      <trkpt lat="47.22361" lon="0.03008">
        <ele>81</ele>
        <time>2011-08-28T11:57:55Z</time>
      </trkpt>
      <trkpt lat="47.22359" lon="0.03016">
        <ele>81</ele>
        <time>2011-08-28T11:57:59Z</time>
      </trkpt>
      <trkpt lat="47.22358" lon="0.03023">
        <ele>81</ele>
        <time>2011-08-28T11:58:03Z</time>
      </trkpt>
      <trkpt lat="47.22356" lon="0.0303">
        <ele>81</ele>
        <time>2011-08-28T11:58:07Z</time>
      </trkpt>
      <trkpt lat="47.22355" lon="0.03037">
        <ele>81</ele>
        <time>2011-08-28T11:58:11Z</time>
      </trkpt>
      <trkpt lat="47.22354" lon="0.03044">
        <ele>81</ele>
        <time>2011-08-28T11:58:15Z</time>
      </trkpt>
      <trkpt lat="47.22352" lon="0.0305">
        <ele>81</ele>
        <time>2011-08-28T11:58:19Z</time>
      </trkpt>
      <trkpt lat="47.22351" lon="0.03056">
        <ele>81</ele>
        <time>2011-08-28T11:58:23Z</time>
      </trkpt>
      <trkpt lat="47.22349" lon="0.03063">
        <ele>81</ele>
        <time>2011-08-28T11:58:27Z</time>
      </trkpt>
      <trkpt lat="47.22347" lon="0.03071">
        <ele>82</ele>
        <time>2011-08-28T11:58:32Z</time>
      </trkpt>
      <trkpt lat="47.22346" lon="0.03077">
        <ele>82</ele>
        <time>2011-08-28T11:58:36Z</time>
      </trkpt>
      <trkpt lat="47.22344" lon="0.03083">
        <ele>82</ele>
        <time>2011-08-28T11:58:40Z</time>
      </trkpt>
      <trkpt lat="47.22343" lon="0.0309">
        <ele>82</ele>
        <time>2011-08-28T11:58:44Z</time>
      </trkpt>
      <trkpt lat="47.22341" lon="0.03097">
        <ele>82</ele>
        <time>2011-08-28T11:58:49Z</time>
      </trkpt>
      <trkpt lat="47.2234" lon="0.03104">
        <ele>82</ele>
        <time>2011-08-28T11:58:54Z</time>
      </trkpt>
      <trkpt lat="47.22338" lon="0.03112">
        <ele>82</ele>
        <time>2011-08-28T11:58:59Z</time>
      </trkpt>
      <trkpt lat="47.22337" lon="0.03119">
        <ele>82</ele>
        <time>2011-08-28T11:59:03Z</time>
      </trkpt>
      <trkpt lat="47.22335" lon="0.03125">
        <ele>82</ele>
        <time>2011-08-28T11:59:07Z</time>
      </trkpt>
      <trkpt lat="47.22333" lon="0.03132">
        <ele>82</ele>
        <time>2011-08-28T11:59:12Z</time>
      </trkpt>
      <trkpt lat="47.22331" lon="0.03138">
        <ele>82</ele>
        <time>2011-08-28T11:59:17Z</time>
      </trkpt>
      <trkpt lat="47.22329" lon="0.03145">
        <ele>82</ele>
        <time>2011-08-28T11:59:22Z</time>
      </trkpt>
      <trkpt lat="47.22326" lon="0.03152">
        <ele>83</ele>
        <time>2011-08-28T11:59:27Z</time>
      </trkpt>
      <trkpt lat="47.22324" lon="0.03159">
        <ele>83</ele>
        <time>2011-08-28T11:59:32Z</time>
      </trkpt>
      <trkpt lat="47.22321" lon="0.03165">
        <ele>83</ele>
        <time>2011-08-28T11:59:37Z</time>
      </trkpt>
      <trkpt lat="47.2232" lon="0.03172">
        <ele>83</ele>
        <time>2011-08-28T11:59:42Z</time>
      </trkpt>
      <trkpt lat="47.22318" lon="0.03179">
        <ele>83</ele>
        <time>2011-08-28T11:59:47Z</time>
      </trkpt>
      <trkpt lat="47.22316" lon="0.03187">
        <ele>83</ele>
        <time>2011-08-28T11:59:52Z</time>
      </trkpt>
      <trkpt lat="47.22314" lon="0.03193">
        <ele>83</ele>
        <time>2011-08-28T11:59:56Z</time>
      </trkpt>
      <trkpt lat="47.22313" lon="0.032">
        <ele>83</ele>
        <time>2011-08-28T12:00:00Z</time>
      </trkpt>
      <trkpt lat="47.22312" lon="0.03207">
        <ele>83</ele>
        <time>2011-08-28T12:00:04Z</time>
      </trkpt>
      <trkpt lat="47.22311" lon="0.03214">
        <ele>83</ele>
        <time>2011-08-28T12:00:08Z</time>
      </trkpt>
      <trkpt lat="47.22309" lon="0.03221">
        <ele>83</ele>
        <time>2011-08-28T12:00:13Z</time>
      </trkpt>
      <trkpt lat="47.22307" lon="0.03228">
        <ele>84</ele>
        <time>2011-08-28T12:00:18Z</time>
      </trkpt>
      <trkpt lat="47.22306" lon="0.03235">
        <ele>84</ele>
        <time>2011-08-28T12:00:23Z</time>
      </trkpt>
      <trkpt lat="47.22303" lon="0.03243">
        <ele>84</ele>
        <time>2011-08-28T12:00:28Z</time>
      </trkpt>
      <trkpt lat="47.22301" lon="0.03249">
        <ele>84</ele>
        <time>2011-08-28T12:00:32Z</time>
      </trkpt>
      <trkpt lat="47.22298" lon="0.03255">
        <ele>84</ele>
        <time>2011-08-28T12:00:36Z</time>
      </trkpt>
      <trkpt lat="47.22296" lon="0.03262">
        <ele>84</ele>
        <time>2011-08-28T12:00:40Z</time>
      </trkpt>
      <trkpt lat="47.22293" lon="0.03269">
        <ele>84</ele>
        <time>2011-08-28T12:00:44Z</time>
      </trkpt>
      <trkpt lat="47.22291" lon="0.03276">
        <ele>84</ele>
        <time>2011-08-28T12:00:48Z</time>
      </trkpt>
      <trkpt lat="47.2229" lon="0.03282">
        <ele>84</ele>
        <time>2011-08-28T12:00:52Z</time>
      </trkpt>
      <trkpt lat="47.22288" lon="0.03288">
        <ele>84</ele>
        <time>2011-08-28T12:00:56Z</time>
      </trkpt>
      <trkpt lat="47.22287" lon="0.03295">
        <ele>84</ele>
        <time>2011-08-28T12:01:00Z</time>
      </trkpt>
      <trkpt lat="47.22285" lon="0.03302">
        <ele>84</ele>
        <time>2011-08-28T12:01:04Z</time>
      </trkpt>
      <trkpt lat="47.22284" lon="0.03309">
        <ele>84</ele>
        <time>2011-08-28T12:01:09Z</time>
      </trkpt>
      <trkpt lat="47.22283" lon="0.03316">
        <ele>84</ele>
        <time>2011-08-28T12:01:13Z</time>
      </trkpt>
      <trkpt lat="47.22282" lon="0.03325">
        <ele>84</ele>
        <time>2011-08-28T12:01:17Z</time>
      </trkpt>
      <trkpt lat="47.22281" lon="0.03331">
        <ele>84</ele>
        <time>2011-08-28T12:01:20Z</time>
      </trkpt>
      <trkpt lat="47.2228" lon="0.03339">
        <ele>84</ele>
        <time>2011-08-28T12:01:23Z</time>
      </trkpt>
      <trkpt lat="47.22279" lon="0.03347">
        <ele>84</ele>
        <time>2011-08-28T12:01:26Z</time>
      </trkpt>
      <trkpt lat="47.22279" lon="0.03355">
        <ele>84</ele>
        <time>2011-08-28T12:01:29Z</time>
      </trkpt>
      <trkpt lat="47.22278" lon="0.03362">
        <ele>84</ele>
        <time>2011-08-28T12:01:32Z</time>
      </trkpt>
      <trkpt lat="47.22277" lon="0.0337">
        <ele>84</ele>
        <time>2011-08-28T12:01:36Z</time>
      </trkpt>
      <trkpt lat="47.22276" lon="0.03378">
        <ele>85</ele>
        <time>2011-08-28T12:01:40Z</time>
      </trkpt>
      <trkpt lat="47.22274" lon="0.03385">
        <ele>85</ele>
        <time>2011-08-28T12:01:44Z</time>
      </trkpt>
      <trkpt lat="47.22273" lon="0.03391">
        <ele>85</ele>
        <time>2011-08-28T12:01:48Z</time>
      </trkpt>
      <trkpt lat="47.22271" lon="0.03397">
        <ele>85</ele>
        <time>2011-08-28T12:01:52Z</time>
      </trkpt>
      <trkpt lat="47.22268" lon="0.03404">
        <ele>85</ele>
        <time>2011-08-28T12:01:56Z</time>
      </trkpt>
      <trkpt lat="47.22266" lon="0.03411">
        <ele>85</ele>
        <time>2011-08-28T12:02:00Z</time>
      </trkpt>
      <trkpt lat="47.22264" lon="0.03419">
        <ele>85</ele>
        <time>2011-08-28T12:02:04Z</time>
      </trkpt>
      <trkpt lat="47.22262" lon="0.03426">
        <ele>85</ele>
        <time>2011-08-28T12:02:08Z</time>
      </trkpt>
      <trkpt lat="47.2226" lon="0.03433">
        <ele>85</ele>
        <time>2011-08-28T12:02:12Z</time>
      </trkpt>
      <trkpt lat="47.22259" lon="0.0344">
        <ele>85</ele>
        <time>2011-08-28T12:02:16Z</time>
      </trkpt>
      <trkpt lat="47.22257" lon="0.03448">
        <ele>86</ele>
        <time>2011-08-28T12:02:20Z</time>
      </trkpt>
      <trkpt lat="47.22256" lon="0.03455">
        <ele>86</ele>
        <time>2011-08-28T12:02:24Z</time>
      </trkpt>
      <trkpt lat="47.22253" lon="0.03462">
        <ele>86</ele>
        <time>2011-08-28T12:02:28Z</time>
      </trkpt>
      <trkpt lat="47.2225" lon="0.03469">
        <ele>86</ele>
        <time>2011-08-28T12:02:32Z</time>
      </trkpt>
      <trkpt lat="47.22245" lon="0.03471">
        <ele>85</ele>
        <time>2011-08-28T12:02:36Z</time>
      </trkpt>
      <trkpt lat="47.2224" lon="0.03469">
        <ele>85</ele>
        <time>2011-08-28T12:02:40Z</time>
      </trkpt>
      <trkpt lat="47.22235" lon="0.03466">
        <ele>85</ele>
        <time>2011-08-28T12:02:44Z</time>
      </trkpt>
      <trkpt lat="47.2223" lon="0.03465">
        <ele>85</ele>
        <time>2011-08-28T12:02:48Z</time>
      </trkpt>
      <trkpt lat="47.22225" lon="0.03466">
        <ele>85</ele>
        <time>2011-08-28T12:02:52Z</time>
      </trkpt>
      <trkpt lat="47.22221" lon="0.03468">
        <ele>85</ele>
        <time>2011-08-28T12:02:56Z</time>
      </trkpt>
      <trkpt lat="47.22217" lon="0.03473">
        <ele>85</ele>
        <time>2011-08-28T12:03:01Z</time>
      </trkpt>
      <trkpt lat="47.22212" lon="0.03477">
        <ele>85</ele>
        <time>2011-08-28T12:03:06Z</time>
      </trkpt>
      <trkpt lat="47.22207" lon="0.03481">
        <ele>85</ele>
        <time>2011-08-28T12:03:10Z</time>
      </trkpt>
      <trkpt lat="47.22204" lon="0.03487">
        <ele>85</ele>
        <time>2011-08-28T12:03:14Z</time>
      </trkpt>
      <trkpt lat="47.22201" lon="0.03492">
        <ele>85</ele>
        <time>2011-08-28T12:03:18Z</time>
      </trkpt>
      <trkpt lat="47.22198" lon="0.03497">
        <ele>85</ele>
        <time>2011-08-28T12:03:22Z</time>
      </trkpt>
      <trkpt lat="47.22195" lon="0.03504">
        <ele>85</ele>
        <time>2011-08-28T12:03:27Z</time>
      </trkpt>
      <trkpt lat="47.22193" lon="0.03511">
        <ele>86</ele>
        <time>2011-08-28T12:03:32Z</time>
      </trkpt>
      <trkpt lat="47.22191" lon="0.03518">
        <ele>86</ele>
        <time>2011-08-28T12:03:37Z</time>
      </trkpt>
      <trkpt lat="47.22189" lon="0.03524">
        <ele>86</ele>
        <time>2011-08-28T12:03:42Z</time>
      </trkpt>
      <trkpt lat="47.22188" lon="0.03532">
        <ele>86</ele>
        <time>2011-08-28T12:03:47Z</time>
      </trkpt>
      <trkpt lat="47.22187" lon="0.03538">
        <ele>86</ele>
        <time>2011-08-28T12:03:51Z</time>
      </trkpt>
      <trkpt lat="47.22186" lon="0.03546">
        <ele>87</ele>
        <time>2011-08-28T12:03:56Z</time>
      </trkpt>
      <trkpt lat="47.22185" lon="0.03552">
        <ele>87</ele>
        <time>2011-08-28T12:04:00Z</time>
      </trkpt>
      <trkpt lat="47.22183" lon="0.0356">
        <ele>87</ele>
        <time>2011-08-28T12:04:05Z</time>
      </trkpt>
      <trkpt lat="47.22181" lon="0.03568">
        <ele>87</ele>
        <time>2011-08-28T12:04:10Z</time>
      </trkpt>
      <trkpt lat="47.22178" lon="0.03574">
        <ele>87</ele>
        <time>2011-08-28T12:04:15Z</time>
      </trkpt>
      <trkpt lat="47.22174" lon="0.03578">
        <ele>87</ele>
        <time>2011-08-28T12:04:20Z</time>
      </trkpt>
      <trkpt lat="47.22171" lon="0.03583">
        <ele>87</ele>
        <time>2011-08-28T12:04:25Z</time>
      </trkpt>
      <trkpt lat="47.22168" lon="0.03588">
        <ele>88</ele>
        <time>2011-08-28T12:04:30Z</time>
      </trkpt>
      <trkpt lat="47.22165" lon="0.03593">
        <ele>88</ele>
        <time>2011-08-28T12:04:35Z</time>
      </trkpt>
      <trkpt lat="47.22161" lon="0.03599">
        <ele>88</ele>
        <time>2011-08-28T12:04:40Z</time>
      </trkpt>
      <trkpt lat="47.22158" lon="0.03605">
        <ele>88</ele>
        <time>2011-08-28T12:04:44Z</time>
      </trkpt>
      <trkpt lat="47.22156" lon="0.0361">
        <ele>88</ele>
        <time>2011-08-28T12:04:48Z</time>
      </trkpt>
      <trkpt lat="47.22153" lon="0.03617">
        <ele>88</ele>
        <time>2011-08-28T12:04:53Z</time>
      </trkpt>
      <trkpt lat="47.2215" lon="0.03623">
        <ele>88</ele>
        <time>2011-08-28T12:04:57Z</time>
      </trkpt>
      <trkpt lat="47.22147" lon="0.0363">
        <ele>88</ele>
        <time>2011-08-28T12:05:01Z</time>
      </trkpt>
      <trkpt lat="47.22145" lon="0.03637">
        <ele>88</ele>
        <time>2011-08-28T12:05:05Z</time>
      </trkpt>
      <trkpt lat="47.22143" lon="0.03645">
        <ele>89</ele>
        <time>2011-08-28T12:05:09Z</time>
      </trkpt>
      <trkpt lat="47.22143" lon="0.03652">
        <ele>89</ele>
        <time>2011-08-28T12:05:12Z</time>
      </trkpt>
      <trkpt lat="47.22142" lon="0.03659">
        <ele>89</ele>
        <time>2011-08-28T12:05:15Z</time>
      </trkpt>
      <trkpt lat="47.22142" lon="0.03666">
        <ele>89</ele>
        <time>2011-08-28T12:05:18Z</time>
      </trkpt>
      <trkpt lat="47.22141" lon="0.03674">
        <ele>89</ele>
        <time>2011-08-28T12:05:22Z</time>
      </trkpt>
      <trkpt lat="47.22141" lon="0.03682">
        <ele>90</ele>
        <time>2011-08-28T12:05:26Z</time>
      </trkpt>
      <trkpt lat="47.22141" lon="0.03688">
        <ele>90</ele>
        <time>2011-08-28T12:05:30Z</time>
      </trkpt>
      <trkpt lat="47.22136" lon="0.03687">
        <ele>90</ele>
        <time>2011-08-28T12:05:38Z</time>
      </trkpt>
      <trkpt lat="47.22136" lon="0.03679">
        <ele>90</ele>
        <time>2011-08-28T12:05:44Z</time>
      </trkpt>
      <trkpt lat="47.22132" lon="0.03675">
        <ele>91</ele>
        <time>2011-08-28T12:05:58Z</time>
      </trkpt>
      <trkpt lat="47.2213" lon="0.03681">
        <ele>92</ele>
        <time>2011-08-28T12:06:07Z</time>
      </trkpt>
      <trkpt lat="47.22128" lon="0.03687">
        <ele>93</ele>
        <time>2011-08-28T12:06:14Z</time>
      </trkpt>
      <trkpt lat="47.22124" lon="0.03689">
        <ele>95</ele>
        <time>2011-08-28T12:06:26Z</time>
      </trkpt>
      <trkpt lat="47.22122" lon="0.03695">
        <ele>96</ele>
        <time>2011-08-28T12:06:36Z</time>
      </trkpt>
      <trkpt lat="47.22125" lon="0.03701">
        <ele>97</ele>
        <time>2011-08-28T12:06:45Z</time>
      </trkpt>
      <trkpt lat="47.22121" lon="0.03706">
        <ele>100</ele>
        <time>2011-08-28T12:08:11Z</time>
      </trkpt>
      <trkpt lat="47.22121" lon="0.03713">
        <ele>101</ele>
        <time>2011-08-28T12:08:25Z</time>
      </trkpt>
      <trkpt lat="47.2212" lon="0.0372">
        <ele>102</ele>
        <time>2011-08-28T12:08:30Z</time>
      </trkpt>
      <trkpt lat="47.2212" lon="0.03727">
        <ele>102</ele>
        <time>2011-08-28T12:08:35Z</time>
      </trkpt>
      <trkpt lat="47.22118" lon="0.03734">
        <ele>103</ele>
        <time>2011-08-28T12:08:40Z</time>
      </trkpt>
      <trkpt lat="47.22116" lon="0.0374">
        <ele>103</ele>
        <time>2011-08-28T12:08:45Z</time>
      </trkpt>
      <trkpt lat="47.22115" lon="0.03747">
        <ele>104</ele>
        <time>2011-08-28T12:08:57Z</time>
      </trkpt>
      <trkpt lat="47.22113" lon="0.03755">
        <ele>105</ele>
        <time>2011-08-28T12:09:02Z</time>
      </trkpt>
      <trkpt lat="47.22111" lon="0.03762">
        <ele>105</ele>
        <time>2011-08-28T12:09:06Z</time>
      </trkpt>
      <trkpt lat="47.22108" lon="0.03768">
        <ele>106</ele>
        <time>2011-08-28T12:09:10Z</time>
      </trkpt>
      <trkpt lat="47.22106" lon="0.03775">
        <ele>106</ele>
        <time>2011-08-28T12:09:14Z</time>
      </trkpt>
      <trkpt lat="47.22104" lon="0.03781">
        <ele>106</ele>
        <time>2011-08-28T12:09:18Z</time>
      </trkpt>
      <trkpt lat="47.22102" lon="0.03788">
        <ele>106</ele>
        <time>2011-08-28T12:09:22Z</time>
      </trkpt>
      <trkpt lat="47.22098" lon="0.03794">
        <ele>107</ele>
        <time>2011-08-28T12:09:26Z</time>
      </trkpt>
      <trkpt lat="47.22095" lon="0.03801">
        <ele>107</ele>
        <time>2011-08-28T12:09:30Z</time>
      </trkpt>
      <trkpt lat="47.22093" lon="0.03807">
        <ele>107</ele>
        <time>2011-08-28T12:09:34Z</time>
      </trkpt>
      <trkpt lat="47.2209" lon="0.03812">
        <ele>107</ele>
        <time>2011-08-28T12:09:38Z</time>
      </trkpt>
      <trkpt lat="47.22086" lon="0.03818">
        <ele>108</ele>
        <time>2011-08-28T12:09:43Z</time>
      </trkpt>
      <trkpt lat="47.22083" lon="0.03823">
        <ele>108</ele>
        <time>2011-08-28T12:09:47Z</time>
      </trkpt>
      <trkpt lat="47.22079" lon="0.03828">
        <ele>108</ele>
        <time>2011-08-28T12:09:52Z</time>
      </trkpt>
      <trkpt lat="47.22076" lon="0.03833">
        <ele>108</ele>
        <time>2011-08-28T12:09:57Z</time>
      </trkpt>
      <trkpt lat="47.22073" lon="0.03838">
        <ele>108</ele>
        <time>2011-08-28T12:10:02Z</time>
      </trkpt>
      <trkpt lat="47.2207" lon="0.03845">
        <ele>108</ele>
        <time>2011-08-28T12:10:08Z</time>
      </trkpt>
      <trkpt lat="47.22069" lon="0.03852">
        <ele>108</ele>
        <time>2011-08-28T12:10:13Z</time>
      </trkpt>
      <trkpt lat="47.22065" lon="0.03856">
        <ele>108</ele>
        <time>2011-08-28T12:10:26Z</time>
      </trkpt>
      <trkpt lat="47.22062" lon="0.03861">
        <ele>108</ele>
        <time>2011-08-28T12:10:35Z</time>
      </trkpt>
      <trkpt lat="47.22057" lon="0.03864">
        <ele>108</ele>
        <time>2011-08-28T12:10:42Z</time>
      </trkpt>
      <trkpt lat="47.22054" lon="0.03868">
        <ele>108</ele>
        <time>2011-08-28T12:10:51Z</time>
      </trkpt>
      <trkpt lat="47.2205" lon="0.03872">
        <ele>108</ele>
        <time>2011-08-28T12:10:57Z</time>
      </trkpt>
      <trkpt lat="47.22046" lon="0.03877">
        <ele>108</ele>
        <time>2011-08-28T12:11:02Z</time>
      </trkpt>
      <trkpt lat="47.2205" lon="0.03877">
        <ele>109</ele>
        <time>2011-08-28T12:11:25Z</time>
      </trkpt>
      <trkpt lat="47.22054" lon="0.03878">
        <ele>109</ele>
        <time>2011-08-28T12:11:33Z</time>
      </trkpt>
      <trkpt lat="47.22058" lon="0.03882">
        <ele>109</ele>
        <time>2011-08-28T12:11:41Z</time>
      </trkpt>
      <trkpt lat="47.22063" lon="0.03884">
        <ele>109</ele>
        <time>2011-08-28T12:11:48Z</time>
      </trkpt>
      <trkpt lat="47.22067" lon="0.03885">
        <ele>109</ele>
        <time>2011-08-28T12:12:03Z</time>
      </trkpt>
      <trkpt lat="47.22066" lon="0.03878">
        <ele>109</ele>
        <time>2011-08-28T12:12:14Z</time>
      </trkpt>
      <trkpt lat="47.22061" lon="0.03877">
        <ele>109</ele>
        <time>2011-08-28T12:12:21Z</time>
      </trkpt>
      <trkpt lat="47.22056" lon="0.03876">
        <ele>109</ele>
        <time>2011-08-28T12:12:28Z</time>
      </trkpt>
      <trkpt lat="47.22051" lon="0.03876">
        <ele>109</ele>
        <time>2011-08-28T12:12:34Z</time>
      </trkpt>
      <trkpt lat="47.22046" lon="0.03876">
        <ele>109</ele>
        <time>2011-08-28T12:12:40Z</time>
      </trkpt>
      <trkpt lat="47.22041" lon="0.03876">
        <ele>109</ele>
        <time>2011-08-28T12:12:45Z</time>
      </trkpt>
      <trkpt lat="47.22036" lon="0.03876">
        <ele>109</ele>
        <time>2011-08-28T12:12:49Z</time>
      </trkpt>
      <trkpt lat="47.22031" lon="0.03878">
        <ele>109</ele>
        <time>2011-08-28T12:12:54Z</time>
      </trkpt>
      <trkpt lat="47.22026" lon="0.03879">
        <ele>109</ele>
        <time>2011-08-28T12:12:59Z</time>
      </trkpt>
      <trkpt lat="47.22021" lon="0.03881">
        <ele>109</ele>
        <time>2011-08-28T12:13:04Z</time>
      </trkpt>
      <trkpt lat="47.22016" lon="0.03883">
        <ele>109</ele>
        <time>2011-08-28T12:13:10Z</time>
      </trkpt>
      <trkpt lat="47.22011" lon="0.03882">
        <ele>110</ele>
        <time>2011-08-28T12:13:15Z</time>
      </trkpt>
      <trkpt lat="47.22006" lon="0.03882">
        <ele>110</ele>
        <time>2011-08-28T12:13:20Z</time>
      </trkpt>
      <trkpt lat="47.22001" lon="0.0388">
        <ele>110</ele>
        <time>2011-08-28T12:13:25Z</time>
      </trkpt>
      <trkpt lat="47.21996" lon="0.03879">
        <ele>110</ele>
        <time>2011-08-28T12:13:30Z</time>
      </trkpt>
      <trkpt lat="47.2199" lon="0.03878">
        <ele>110</ele>
        <time>2011-08-28T12:13:35Z</time>
      </trkpt>
      <trkpt lat="47.21985" lon="0.03877">
        <ele>111</ele>
        <time>2011-08-28T12:13:40Z</time>
      </trkpt>
      <trkpt lat="47.2198" lon="0.03876">
        <ele>111</ele>
        <time>2011-08-28T12:13:44Z</time>
      </trkpt>
      <trkpt lat="47.21975" lon="0.03875">
        <ele>111</ele>
        <time>2011-08-28T12:13:49Z</time>
      </trkpt>
      <trkpt lat="47.2197" lon="0.03874">
        <ele>111</ele>
        <time>2011-08-28T12:13:54Z</time>
      </trkpt>
      <trkpt lat="47.21964" lon="0.03872">
        <ele>111</ele>
        <time>2011-08-28T12:13:59Z</time>
      </trkpt>
      <trkpt lat="47.21959" lon="0.03872">
        <ele>111</ele>
        <time>2011-08-28T12:14:03Z</time>
      </trkpt>
      <trkpt lat="47.21954" lon="0.03871">
        <ele>111</ele>
        <time>2011-08-28T12:14:07Z</time>
      </trkpt>
      <trkpt lat="47.2195" lon="0.0387">
        <ele>111</ele>
        <time>2011-08-28T12:14:11Z</time>
      </trkpt>
      <trkpt lat="47.21945" lon="0.0387">
        <ele>111</ele>
        <time>2011-08-28T12:14:15Z</time>
      </trkpt>
      <trkpt lat="47.2194" lon="0.0387">
        <ele>111</ele>
        <time>2011-08-28T12:14:19Z</time>
      </trkpt>
      <trkpt lat="47.21935" lon="0.0387">
        <ele>111</ele>
        <time>2011-08-28T12:14:23Z</time>
      </trkpt>
      <trkpt lat="47.2193" lon="0.03869">
        <ele>111</ele>
        <time>2011-08-28T12:14:27Z</time>
      </trkpt>
      <trkpt lat="47.21925" lon="0.03868">
        <ele>111</ele>
        <time>2011-08-28T12:14:31Z</time>
      </trkpt>
      <trkpt lat="47.2192" lon="0.03867">
        <ele>111</ele>
        <time>2011-08-28T12:14:35Z</time>
      </trkpt>
      <trkpt lat="47.21916" lon="0.03866">
        <ele>112</ele>
        <time>2011-08-28T12:14:39Z</time>
      </trkpt>
      <trkpt lat="47.2191" lon="0.03864">
        <ele>112</ele>
        <time>2011-08-28T12:14:44Z</time>
      </trkpt>
      <trkpt lat="47.21905" lon="0.03861">
        <ele>112</ele>
        <time>2011-08-28T12:14:49Z</time>
      </trkpt>
      <trkpt lat="47.219" lon="0.03859">
        <ele>112</ele>
        <time>2011-08-28T12:14:54Z</time>
      </trkpt>
      <trkpt lat="47.21895" lon="0.03855">
        <ele>112</ele>
        <time>2011-08-28T12:14:59Z</time>
      </trkpt>
      <trkpt lat="47.2189" lon="0.03853">
        <ele>112</ele>
        <time>2011-08-28T12:15:03Z</time>
      </trkpt>
      <trkpt lat="47.21885" lon="0.03852">
        <ele>112</ele>
        <time>2011-08-28T12:15:07Z</time>
      </trkpt>
      <trkpt lat="47.21881" lon="0.03848">
        <ele>112</ele>
        <time>2011-08-28T12:15:11Z</time>
      </trkpt>
      <trkpt lat="47.21876" lon="0.03845">
        <ele>112</ele>
        <time>2011-08-28T12:15:15Z</time>
      </trkpt>
      <trkpt lat="47.21872" lon="0.03842">
        <ele>112</ele>
        <time>2011-08-28T12:15:19Z</time>
      </trkpt>
      <trkpt lat="47.21868" lon="0.0384">
        <ele>112</ele>
        <time>2011-08-28T12:15:23Z</time>
      </trkpt>
      <trkpt lat="47.21863" lon="0.03836">
        <ele>112</ele>
        <time>2011-08-28T12:15:28Z</time>
      </trkpt>
      <trkpt lat="47.21858" lon="0.03833">
        <ele>112</ele>
        <time>2011-08-28T12:15:32Z</time>
      </trkpt>
      <trkpt lat="47.21854" lon="0.03831">
        <ele>112</ele>
        <time>2011-08-28T12:15:36Z</time>
      </trkpt>
      <trkpt lat="47.2185" lon="0.03827">
        <ele>112</ele>
        <time>2011-08-28T12:15:40Z</time>
      </trkpt>
      <trkpt lat="47.21845" lon="0.03824">
        <ele>112</ele>
        <time>2011-08-28T12:15:44Z</time>
      </trkpt>
      <trkpt lat="47.21841" lon="0.03822">
        <ele>112</ele>
        <time>2011-08-28T12:15:48Z</time>
      </trkpt>
      <trkpt lat="47.21836" lon="0.03819">
        <ele>112</ele>
        <time>2011-08-28T12:15:52Z</time>
      </trkpt>
      <trkpt lat="47.21831" lon="0.03816">
        <ele>113</ele>
        <time>2011-08-28T12:15:56Z</time>
      </trkpt>
      <trkpt lat="47.21826" lon="0.03813">
        <ele>113</ele>
        <time>2011-08-28T12:16:00Z</time>
      </trkpt>
      <trkpt lat="47.21822" lon="0.03812">
        <ele>113</ele>
        <time>2011-08-28T12:16:04Z</time>
      </trkpt>
      <trkpt lat="47.21817" lon="0.0381">
        <ele>113</ele>
        <time>2011-08-28T12:16:08Z</time>
      </trkpt>
      <trkpt lat="47.21812" lon="0.03808">
        <ele>113</ele>
        <time>2011-08-28T12:16:12Z</time>
      </trkpt>
      <trkpt lat="47.21807" lon="0.03807">
        <ele>113</ele>
        <time>2011-08-28T12:16:16Z</time>
      </trkpt>
      <trkpt lat="47.21803" lon="0.03805">
        <ele>113</ele>
        <time>2011-08-28T12:16:20Z</time>
      </trkpt>
      <trkpt lat="47.21798" lon="0.03804">
        <ele>113</ele>
        <time>2011-08-28T12:16:24Z</time>
      </trkpt>
      <trkpt lat="47.21793" lon="0.03802">
        <ele>113</ele>
        <time>2011-08-28T12:16:28Z</time>
      </trkpt>
      <trkpt lat="47.21788" lon="0.038">
        <ele>113</ele>
        <time>2011-08-28T12:16:32Z</time>
      </trkpt>
      <trkpt lat="47.21784" lon="0.03799">
        <ele>113</ele>
        <time>2011-08-28T12:16:36Z</time>
      </trkpt>
      <trkpt lat="47.21779" lon="0.03797">
        <ele>113</ele>
        <time>2011-08-28T12:16:40Z</time>
      </trkpt>
      <trkpt lat="47.21774" lon="0.03794">
        <ele>113</ele>
        <time>2011-08-28T12:16:45Z</time>
      </trkpt>
      <trkpt lat="47.21769" lon="0.03791">
        <ele>113</ele>
        <time>2011-08-28T12:16:50Z</time>
      </trkpt>
      <trkpt lat="47.21764" lon="0.03788">
        <ele>113</ele>
        <time>2011-08-28T12:16:54Z</time>
      </trkpt>
      <trkpt lat="47.2176" lon="0.03785">
        <ele>113</ele>
        <time>2011-08-28T12:16:58Z</time>
      </trkpt>
      <trkpt lat="47.21756" lon="0.03782">
        <ele>113</ele>
        <time>2011-08-28T12:17:02Z</time>
      </trkpt>
      <trkpt lat="47.21752" lon="0.03779">
        <ele>113</ele>
        <time>2011-08-28T12:17:06Z</time>
      </trkpt>
      <trkpt lat="47.21747" lon="0.03775">
        <ele>113</ele>
        <time>2011-08-28T12:17:11Z</time>
      </trkpt>
      <trkpt lat="47.21742" lon="0.03773">
        <ele>113</ele>
        <time>2011-08-28T12:17:15Z</time>
      </trkpt>
      <trkpt lat="47.21737" lon="0.0377">
        <ele>114</ele>
        <time>2011-08-28T12:17:20Z</time>
      </trkpt>
      <trkpt lat="47.21733" lon="0.03766">
        <ele>114</ele>
        <time>2011-08-28T12:17:25Z</time>
      </trkpt>
      <trkpt lat="47.21728" lon="0.03762">
        <ele>114</ele>
        <time>2011-08-28T12:17:30Z</time>
      </trkpt>
      <trkpt lat="47.21724" lon="0.03759">
        <ele>114</ele>
        <time>2011-08-28T12:17:35Z</time>
      </trkpt>
      <trkpt lat="47.21719" lon="0.03755">
        <ele>114</ele>
        <time>2011-08-28T12:17:40Z</time>
      </trkpt>
      <trkpt lat="47.21714" lon="0.03752">
        <ele>114</ele>
        <time>2011-08-28T12:17:45Z</time>
      </trkpt>
      <trkpt lat="47.21709" lon="0.03749">
        <ele>115</ele>
        <time>2011-08-28T12:17:50Z</time>
      </trkpt>
      <trkpt lat="47.21704" lon="0.03746">
        <ele>115</ele>
        <time>2011-08-28T12:17:55Z</time>
      </trkpt>
      <trkpt lat="47.21699" lon="0.03743">
        <ele>115</ele>
        <time>2011-08-28T12:18:00Z</time>
      </trkpt>
      <trkpt lat="47.21694" lon="0.0374">
        <ele>115</ele>
        <time>2011-08-28T12:18:05Z</time>
      </trkpt>
      <trkpt lat="47.21689" lon="0.03737">
        <ele>115</ele>
        <time>2011-08-28T12:18:10Z</time>
      </trkpt>
      <trkpt lat="47.21685" lon="0.03734">
        <ele>115</ele>
        <time>2011-08-28T12:18:14Z</time>
      </trkpt>
      <trkpt lat="47.2168" lon="0.03732">
        <ele>116</ele>
        <time>2011-08-28T12:18:18Z</time>
      </trkpt>
      <trkpt lat="47.21676" lon="0.03729">
        <ele>116</ele>
        <time>2011-08-28T12:18:22Z</time>
      </trkpt>
      <trkpt lat="47.21671" lon="0.03726">
        <ele>116</ele>
        <time>2011-08-28T12:18:26Z</time>
      </trkpt>
      <trkpt lat="47.21666" lon="0.03723">
        <ele>116</ele>
        <time>2011-08-28T12:18:30Z</time>
      </trkpt>
      <trkpt lat="47.21662" lon="0.03721">
        <ele>116</ele>
        <time>2011-08-28T12:18:34Z</time>
      </trkpt>
      <trkpt lat="47.21657" lon="0.03719">
        <ele>116</ele>
        <time>2011-08-28T12:18:38Z</time>
      </trkpt>
      <trkpt lat="47.21652" lon="0.03717">
        <ele>117</ele>
        <time>2011-08-28T12:18:43Z</time>
      </trkpt>
      <trkpt lat="47.21647" lon="0.03714">
        <ele>117</ele>
        <time>2011-08-28T12:18:48Z</time>
      </trkpt>
      <trkpt lat="47.21644" lon="0.03708">
        <ele>117</ele>
        <time>2011-08-28T12:18:54Z</time>
      </trkpt>
      <trkpt lat="47.21648" lon="0.03709">
        <ele>117</ele>
        <time>2011-08-28T12:19:01Z</time>
      </trkpt>
      <trkpt lat="47.2165" lon="0.03703">
        <ele>118</ele>
        <time>2011-08-28T12:19:10Z</time>
      </trkpt>
      <trkpt lat="47.2165" lon="0.03695">
        <ele>119</ele>
        <time>2011-08-28T12:19:20Z</time>
      </trkpt>
      <trkpt lat="47.21648" lon="0.03688">
        <ele>120</ele>
        <time>2011-08-28T12:19:28Z</time>
      </trkpt>
      <trkpt lat="47.21646" lon="0.03682">
        <ele>120</ele>
        <time>2011-08-28T12:19:34Z</time>
      </trkpt>
      <trkpt lat="47.21642" lon="0.03677">
        <ele>120</ele>
        <time>2011-08-28T12:19:40Z</time>
      </trkpt>
      <trkpt lat="47.21638" lon="0.03674">
        <ele>121</ele>
        <time>2011-08-28T12:19:45Z</time>
      </trkpt>
      <trkpt lat="47.21633" lon="0.03672">
        <ele>121</ele>
        <time>2011-08-28T12:19:50Z</time>
      </trkpt>
      <trkpt lat="47.21628" lon="0.03669">
        <ele>121</ele>
        <time>2011-08-28T12:19:55Z</time>
      </trkpt>
      <trkpt lat="47.21624" lon="0.03667">
        <ele>122</ele>
        <time>2011-08-28T12:19:59Z</time>
      </trkpt>
      <trkpt lat="47.21619" lon="0.03665">
        <ele>122</ele>
        <time>2011-08-28T12:20:03Z</time>
      </trkpt>
      <trkpt lat="47.21614" lon="0.03663">
        <ele>122</ele>
        <time>2011-08-28T12:20:07Z</time>
      </trkpt>
      <trkpt lat="47.21609" lon="0.03661">
        <ele>123</ele>
        <time>2011-08-28T12:20:11Z</time>
      </trkpt>
      <trkpt lat="47.21604" lon="0.03658">
        <ele>123</ele>
        <time>2011-08-28T12:20:15Z</time>
      </trkpt>
      <trkpt lat="47.21599" lon="0.03656">
        <ele>123</ele>
        <time>2011-08-28T12:20:19Z</time>
      </trkpt>
      <trkpt lat="47.21594" lon="0.03654">
        <ele>123</ele>
        <time>2011-08-28T12:20:23Z</time>
      </trkpt>
      <trkpt lat="47.21589" lon="0.0365">
        <ele>123</ele>
        <time>2011-08-28T12:20:28Z</time>
      </trkpt>
      <trkpt lat="47.21584" lon="0.0365">
        <ele>124</ele>
        <time>2011-08-28T12:20:46Z</time>
      </trkpt>
      <trkpt lat="47.21579" lon="0.03648">
        <ele>124</ele>
        <time>2011-08-28T12:21:48Z</time>
      </trkpt>
      <trkpt lat="47.21574" lon="0.03645">
        <ele>125</ele>
        <time>2011-08-28T12:21:52Z</time>
      </trkpt>
      <trkpt lat="47.21569" lon="0.03642">
        <ele>125</ele>
        <time>2011-08-28T12:21:56Z</time>
      </trkpt>
      <trkpt lat="47.21564" lon="0.03641">
        <ele>125</ele>
        <time>2011-08-28T12:22:00Z</time>
      </trkpt>
      <trkpt lat="47.21558" lon="0.03639">
        <ele>125</ele>
        <time>2011-08-28T12:22:04Z</time>
      </trkpt>
      <trkpt lat="47.21554" lon="0.03637">
        <ele>125</ele>
        <time>2011-08-28T12:22:08Z</time>
      </trkpt>
      <trkpt lat="47.2155" lon="0.03636">
        <ele>125</ele>
        <time>2011-08-28T12:22:12Z</time>
      </trkpt>
      <trkpt lat="47.21545" lon="0.03634">
        <ele>126</ele>
        <time>2011-08-28T12:22:16Z</time>
      </trkpt>
      <trkpt lat="47.2154" lon="0.03633">
        <ele>126</ele>
        <time>2011-08-28T12:22:20Z</time>
      </trkpt>
      <trkpt lat="47.21535" lon="0.03631">
        <ele>126</ele>
        <time>2011-08-28T12:22:25Z</time>
      </trkpt>
      <trkpt lat="47.21529" lon="0.03629">
        <ele>126</ele>
        <time>2011-08-28T12:22:30Z</time>
      </trkpt>
      <trkpt lat="47.21525" lon="0.03628">
        <ele>126</ele>
        <time>2011-08-28T12:22:34Z</time>
      </trkpt>
      <trkpt lat="47.2152" lon="0.03626">
        <ele>126</ele>
        <time>2011-08-28T12:22:38Z</time>
      </trkpt>
      <trkpt lat="47.21516" lon="0.03625">
        <ele>126</ele>
        <time>2011-08-28T12:22:42Z</time>
      </trkpt>
      <trkpt lat="47.21511" lon="0.03624">
        <ele>126</ele>
        <time>2011-08-28T12:22:46Z</time>
      </trkpt>
      <trkpt lat="47.21506" lon="0.03622">
        <ele>127</ele>
        <time>2011-08-28T12:22:50Z</time>
      </trkpt>
      <trkpt lat="47.21501" lon="0.03619">
        <ele>127</ele>
        <time>2011-08-28T12:22:55Z</time>
      </trkpt>
      <trkpt lat="47.21496" lon="0.03617">
        <ele>127</ele>
        <time>2011-08-28T12:23:00Z</time>
      </trkpt>
      <trkpt lat="47.21491" lon="0.03614">
        <ele>127</ele>
        <time>2011-08-28T12:23:05Z</time>
      </trkpt>
      <trkpt lat="47.21486" lon="0.03612">
        <ele>127</ele>
        <time>2011-08-28T12:23:10Z</time>
      </trkpt>
      <trkpt lat="47.21481" lon="0.0361">
        <ele>127</ele>
        <time>2011-08-28T12:23:14Z</time>
      </trkpt>
      <trkpt lat="47.21477" lon="0.03608">
        <ele>127</ele>
        <time>2011-08-28T12:23:18Z</time>
      </trkpt>
      <trkpt lat="47.21471" lon="0.03606">
        <ele>127</ele>
        <time>2011-08-28T12:23:23Z</time>
      </trkpt>
      <trkpt lat="47.21466" lon="0.03604">
        <ele>127</ele>
        <time>2011-08-28T12:23:28Z</time>
      </trkpt>
      <trkpt lat="47.21461" lon="0.03601">
        <ele>127</ele>
        <time>2011-08-28T12:23:33Z</time>
      </trkpt>
      <trkpt lat="47.21456" lon="0.03598">
        <ele>127</ele>
        <time>2011-08-28T12:23:38Z</time>
      </trkpt>
      <trkpt lat="47.2145" lon="0.03596">
        <ele>127</ele>
        <time>2011-08-28T12:23:43Z</time>
      </trkpt>
      <trkpt lat="47.21445" lon="0.03594">
        <ele>127</ele>
        <time>2011-08-28T12:23:48Z</time>
      </trkpt>
      <trkpt lat="47.2144" lon="0.03591">
        <ele>127</ele>
        <time>2011-08-28T12:23:53Z</time>
      </trkpt>
      <trkpt lat="47.21435" lon="0.03589">
        <ele>127</ele>
        <time>2011-08-28T12:23:58Z</time>
      </trkpt>
      <trkpt lat="47.2143" lon="0.03588">
        <ele>127</ele>
        <time>2011-08-28T12:24:02Z</time>
      </trkpt>
      <trkpt lat="47.21426" lon="0.03586">
        <ele>127</ele>
        <time>2011-08-28T12:24:06Z</time>
      </trkpt>
      <trkpt lat="47.21421" lon="0.03585">
        <ele>127</ele>
        <time>2011-08-28T12:24:10Z</time>
      </trkpt>
      <trkpt lat="47.21416" lon="0.03584">
        <ele>127</ele>
        <time>2011-08-28T12:24:14Z</time>
      </trkpt>
      <trkpt lat="47.21412" lon="0.03582">
        <ele>127</ele>
        <time>2011-08-28T12:24:18Z</time>
      </trkpt>
      <trkpt lat="47.21406" lon="0.0358">
        <ele>127</ele>
        <time>2011-08-28T12:24:22Z</time>
      </trkpt>
      <trkpt lat="47.21402" lon="0.03577">
        <ele>127</ele>
        <time>2011-08-28T12:24:26Z</time>
      </trkpt>
      <trkpt lat="47.21398" lon="0.03572">
        <ele>127</ele>
        <time>2011-08-28T12:24:31Z</time>
      </trkpt>
      <trkpt lat="47.21398" lon="0.03564">
        <ele>127</ele>
        <time>2011-08-28T12:24:37Z</time>
      </trkpt>
      <trkpt lat="47.21399" lon="0.03556">
        <ele>127</ele>
        <time>2011-08-28T12:24:42Z</time>
      </trkpt>
      <trkpt lat="47.214" lon="0.03549">
        <ele>127</ele>
        <time>2011-08-28T12:24:47Z</time>
      </trkpt>
      <trkpt lat="47.21401" lon="0.03543">
        <ele>128</ele>
        <time>2011-08-28T12:24:51Z</time>
      </trkpt>
      <trkpt lat="47.21402" lon="0.03535">
        <ele>128</ele>
        <time>2011-08-28T12:24:55Z</time>
      </trkpt>
      <trkpt lat="47.21403" lon="0.03528">
        <ele>128</ele>
        <time>2011-08-28T12:24:59Z</time>
      </trkpt>
      <trkpt lat="47.21404" lon="0.0352">
        <ele>128</ele>
        <time>2011-08-28T12:25:04Z</time>
      </trkpt>
      <trkpt lat="47.21405" lon="0.03514">
        <ele>128</ele>
        <time>2011-08-28T12:25:08Z</time>
      </trkpt>
      <trkpt lat="47.21405" lon="0.03507">
        <ele>128</ele>
        <time>2011-08-28T12:25:12Z</time>
      </trkpt>
      <trkpt lat="47.21406" lon="0.03499">
        <ele>128</ele>
        <time>2011-08-28T12:25:17Z</time>
      </trkpt>
      <trkpt lat="47.21408" lon="0.03491">
        <ele>128</ele>
        <time>2011-08-28T12:25:22Z</time>
      </trkpt>
      <trkpt lat="47.21409" lon="0.03483">
        <ele>128</ele>
        <time>2011-08-28T12:25:27Z</time>
      </trkpt>
      <trkpt lat="47.21409" lon="0.03476">
        <ele>128</ele>
        <time>2011-08-28T12:25:31Z</time>
      </trkpt>
      <trkpt lat="47.2141" lon="0.03469">
        <ele>128</ele>
        <time>2011-08-28T12:25:35Z</time>
      </trkpt>
      <trkpt lat="47.21411" lon="0.03461">
        <ele>128</ele>
        <time>2011-08-28T12:25:40Z</time>
      </trkpt>
      <trkpt lat="47.21412" lon="0.03453">
        <ele>128</ele>
        <time>2011-08-28T12:25:45Z</time>
      </trkpt>
      <trkpt lat="47.21413" lon="0.03446">
        <ele>128</ele>
        <time>2011-08-28T12:25:50Z</time>
      </trkpt>
      <trkpt lat="47.21414" lon="0.03439">
        <ele>128</ele>
        <time>2011-08-28T12:25:55Z</time>
      </trkpt>
      <trkpt lat="47.21416" lon="0.03431">
        <ele>128</ele>
        <time>2011-08-28T12:26:00Z</time>
      </trkpt>
      <trkpt lat="47.21418" lon="0.03424">
        <ele>128</ele>
        <time>2011-08-28T12:26:05Z</time>
      </trkpt>
      <trkpt lat="47.21419" lon="0.03416">
        <ele>128</ele>
        <time>2011-08-28T12:26:10Z</time>
      </trkpt>
      <trkpt lat="47.2142" lon="0.03408">
        <ele>128</ele>
        <time>2011-08-28T12:26:15Z</time>
      </trkpt>
      <trkpt lat="47.21421" lon="0.03401">
        <ele>128</ele>
        <time>2011-08-28T12:26:19Z</time>
      </trkpt>
      <trkpt lat="47.21422" lon="0.03395">
        <ele>128</ele>
        <time>2011-08-28T12:26:23Z</time>
      </trkpt>
      <trkpt lat="47.21423" lon="0.03386">
        <ele>128</ele>
        <time>2011-08-28T12:26:28Z</time>
      </trkpt>
      <trkpt lat="47.21422" lon="0.0338">
        <ele>128</ele>
        <time>2011-08-28T12:26:33Z</time>
      </trkpt>
      <trkpt lat="47.21417" lon="0.03379">
        <ele>128</ele>
        <time>2011-08-28T12:26:39Z</time>
      </trkpt>
      <trkpt lat="47.21412" lon="0.03382">
        <ele>129</ele>
        <time>2011-08-28T12:26:43Z</time>
      </trkpt>
      <trkpt lat="47.21407" lon="0.03387">
        <ele>129</ele>
        <time>2011-08-28T12:26:47Z</time>
      </trkpt>
      <trkpt lat="47.21402" lon="0.0339">
        <ele>129</ele>
        <time>2011-08-28T12:26:51Z</time>
      </trkpt>
      <trkpt lat="47.21397" lon="0.03393">
        <ele>129</ele>
        <time>2011-08-28T12:26:55Z</time>
      </trkpt>
      <trkpt lat="47.21392" lon="0.03395">
        <ele>129</ele>
        <time>2011-08-28T12:26:59Z</time>
      </trkpt>
      <trkpt lat="47.21387" lon="0.03397">
        <ele>129</ele>
        <time>2011-08-28T12:27:03Z</time>
      </trkpt>
      <trkpt lat="47.21382" lon="0.03398">
        <ele>129</ele>
        <time>2011-08-28T12:27:07Z</time>
      </trkpt>
      <trkpt lat="47.21378" lon="0.03399">
        <ele>129</ele>
        <time>2011-08-28T12:27:11Z</time>
      </trkpt>
      <trkpt lat="47.21373" lon="0.034">
        <ele>129</ele>
        <time>2011-08-28T12:27:15Z</time>
      </trkpt>
      <trkpt lat="47.21368" lon="0.03401">
        <ele>129</ele>
        <time>2011-08-28T12:27:19Z</time>
      </trkpt>
      <trkpt lat="47.21364" lon="0.03402">
        <ele>129</ele>
        <time>2011-08-28T12:27:23Z</time>
      </trkpt>
      <trkpt lat="47.21359" lon="0.03403">
        <ele>129</ele>
        <time>2011-08-28T12:27:27Z</time>
      </trkpt>
      <trkpt lat="47.21354" lon="0.03404">
        <ele>129</ele>
        <time>2011-08-28T12:27:31Z</time>
      </trkpt>
      <trkpt lat="47.21349" lon="0.03405">
        <ele>129</ele>
        <time>2011-08-28T12:27:36Z</time>
      </trkpt>
      <trkpt lat="47.21344" lon="0.03407">
        <ele>129</ele>
        <time>2011-08-28T12:27:41Z</time>
      </trkpt>
      <trkpt lat="47.21338" lon="0.03408">
        <ele>129</ele>
        <time>2011-08-28T12:27:46Z</time>
      </trkpt>
      <trkpt lat="47.21333" lon="0.0341">
        <ele>129</ele>
        <time>2011-08-28T12:27:51Z</time>
      </trkpt>
      <trkpt lat="47.21328" lon="0.03411">
        <ele>129</ele>
        <time>2011-08-28T12:27:55Z</time>
      </trkpt>
      <trkpt lat="47.21323" lon="0.03412">
        <ele>129</ele>
        <time>2011-08-28T12:28:00Z</time>
      </trkpt>
      <trkpt lat="47.21317" lon="0.03412">
        <ele>129</ele>
        <time>2011-08-28T12:28:05Z</time>
      </trkpt>
      <trkpt lat="47.21313" lon="0.03412">
        <ele>129</ele>
        <time>2011-08-28T12:28:09Z</time>
      </trkpt>
      <trkpt lat="47.21307" lon="0.03412">
        <ele>129</ele>
        <time>2011-08-28T12:28:14Z</time>
      </trkpt>
      <trkpt lat="47.21302" lon="0.03412">
        <ele>129</ele>
        <time>2011-08-28T12:28:18Z</time>
      </trkpt>
      <trkpt lat="47.21298" lon="0.03411">
        <ele>129</ele>
        <time>2011-08-28T12:28:22Z</time>
      </trkpt>
      <trkpt lat="47.21293" lon="0.0341">
        <ele>129</ele>
        <time>2011-08-28T12:28:25Z</time>
      </trkpt>
      <trkpt lat="47.21288" lon="0.03409">
        <ele>129</ele>
        <time>2011-08-28T12:28:29Z</time>
      </trkpt>
      <trkpt lat="47.21283" lon="0.03408">
        <ele>129</ele>
        <time>2011-08-28T12:28:34Z</time>
      </trkpt>
      <trkpt lat="47.21278" lon="0.03405">
        <ele>128</ele>
        <time>2011-08-28T12:28:40Z</time>
      </trkpt>
      <trkpt lat="47.21273" lon="0.03404">
        <ele>128</ele>
        <time>2011-08-28T12:28:45Z</time>
      </trkpt>
      <trkpt lat="47.21268" lon="0.03402">
        <ele>128</ele>
        <time>2011-08-28T12:28:49Z</time>
      </trkpt>
      <trkpt lat="47.21263" lon="0.034">
        <ele>128</ele>
        <time>2011-08-28T12:28:53Z</time>
      </trkpt>
      <trkpt lat="47.21258" lon="0.03397">
        <ele>128</ele>
        <time>2011-08-28T12:28:57Z</time>
      </trkpt>
      <trkpt lat="47.21254" lon="0.03394">
        <ele>128</ele>
        <time>2011-08-28T12:29:01Z</time>
      </trkpt>
      <trkpt lat="47.21249" lon="0.03392">
        <ele>128</ele>
        <time>2011-08-28T12:29:05Z</time>
      </trkpt>
      <trkpt lat="47.21244" lon="0.03389">
        <ele>128</ele>
        <time>2011-08-28T12:29:09Z</time>
      </trkpt>
      <trkpt lat="47.21239" lon="0.03387">
        <ele>128</ele>
        <time>2011-08-28T12:29:13Z</time>
      </trkpt>
      <trkpt lat="47.21234" lon="0.03385">
        <ele>128</ele>
        <time>2011-08-28T12:29:17Z</time>
      </trkpt>
      <trkpt lat="47.2123" lon="0.03383">
        <ele>128</ele>
        <time>2011-08-28T12:29:21Z</time>
      </trkpt>
      <trkpt lat="47.21225" lon="0.03381">
        <ele>128</ele>
        <time>2011-08-28T12:29:25Z</time>
      </trkpt>
      <trkpt lat="47.2122" lon="0.0338">
        <ele>128</ele>
        <time>2011-08-28T12:29:29Z</time>
      </trkpt>
      <trkpt lat="47.21216" lon="0.03378">
        <ele>128</ele>
        <time>2011-08-28T12:29:33Z</time>
      </trkpt>
      <trkpt lat="47.21211" lon="0.03376">
        <ele>128</ele>
        <time>2011-08-28T12:29:37Z</time>
      </trkpt>
      <trkpt lat="47.21206" lon="0.03374">
        <ele>128</ele>
        <time>2011-08-28T12:29:41Z</time>
      </trkpt>
      <trkpt lat="47.21202" lon="0.03373">
        <ele>128</ele>
        <time>2011-08-28T12:29:45Z</time>
      </trkpt>
      <trkpt lat="47.21197" lon="0.03371">
        <ele>128</ele>
        <time>2011-08-28T12:29:49Z</time>
      </trkpt>
      <trkpt lat="47.21192" lon="0.03369">
        <ele>128</ele>
        <time>2011-08-28T12:29:53Z</time>
      </trkpt>
      <trkpt lat="47.21187" lon="0.03367">
        <ele>128</ele>
        <time>2011-08-28T12:29:57Z</time>
      </trkpt>
      <trkpt lat="47.21182" lon="0.03366">
        <ele>128</ele>
        <time>2011-08-28T12:30:01Z</time>
      </trkpt>
      <trkpt lat="47.21177" lon="0.03364">
        <ele>128</ele>
        <time>2011-08-28T12:30:05Z</time>
      </trkpt>
      <trkpt lat="47.21172" lon="0.03362">
        <ele>128</ele>
        <time>2011-08-28T12:30:09Z</time>
      </trkpt>
      <trkpt lat="47.21168" lon="0.03361">
        <ele>128</ele>
        <time>2011-08-28T12:30:13Z</time>
      </trkpt>
      <trkpt lat="47.21163" lon="0.0336">
        <ele>128</ele>
        <time>2011-08-28T12:30:17Z</time>
      </trkpt>
      <trkpt lat="47.21159" lon="0.03359">
        <ele>128</ele>
        <time>2011-08-28T12:30:21Z</time>
      </trkpt>
      <trkpt lat="47.21154" lon="0.03359">
        <ele>128</ele>
        <time>2011-08-28T12:30:25Z</time>
      </trkpt>
      <trkpt lat="47.21149" lon="0.03359">
        <ele>128</ele>
        <time>2011-08-28T12:30:29Z</time>
      </trkpt>
      <trkpt lat="47.21144" lon="0.03359">
        <ele>128</ele>
        <time>2011-08-28T12:30:33Z</time>
      </trkpt>
      <trkpt lat="47.21139" lon="0.03358">
        <ele>128</ele>
        <time>2011-08-28T12:30:37Z</time>
      </trkpt>
      <trkpt lat="47.21134" lon="0.03358">
        <ele>128</ele>
        <time>2011-08-28T12:30:41Z</time>
      </trkpt>
      <trkpt lat="47.2113" lon="0.03358">
        <ele>128</ele>
        <time>2011-08-28T12:30:45Z</time>
      </trkpt>
      <trkpt lat="47.21125" lon="0.03359">
        <ele>128</ele>
        <time>2011-08-28T12:30:49Z</time>
      </trkpt>
      <trkpt lat="47.2112" lon="0.0336">
        <ele>128</ele>
        <time>2011-08-28T12:30:53Z</time>
      </trkpt>
      <trkpt lat="47.21115" lon="0.03361">
        <ele>128</ele>
        <time>2011-08-28T12:30:57Z</time>
      </trkpt>
      <trkpt lat="47.2111" lon="0.03362">
        <ele>128</ele>
        <time>2011-08-28T12:31:01Z</time>
      </trkpt>
      <trkpt lat="47.21105" lon="0.03364">
        <ele>128</ele>
        <time>2011-08-28T12:31:05Z</time>
      </trkpt>
      <trkpt lat="47.211" lon="0.03365">
        <ele>128</ele>
        <time>2011-08-28T12:31:09Z</time>
      </trkpt>
      <trkpt lat="47.21095" lon="0.03368">
        <ele>128</ele>
        <time>2011-08-28T12:31:13Z</time>
      </trkpt>
      <trkpt lat="47.2109" lon="0.0337">
        <ele>128</ele>
        <time>2011-08-28T12:31:17Z</time>
      </trkpt>
      <trkpt lat="47.21086" lon="0.03373">
        <ele>128</ele>
        <time>2011-08-28T12:31:21Z</time>
      </trkpt>
      <trkpt lat="47.21081" lon="0.03376">
        <ele>128</ele>
        <time>2011-08-28T12:31:25Z</time>
      </trkpt>
      <trkpt lat="47.21076" lon="0.03379">
        <ele>128</ele>
        <time>2011-08-28T12:31:29Z</time>
      </trkpt>
      <trkpt lat="47.21072" lon="0.03382">
        <ele>128</ele>
        <time>2011-08-28T12:31:33Z</time>
      </trkpt>
      <trkpt lat="47.21067" lon="0.03385">
        <ele>128</ele>
        <time>2011-08-28T12:31:37Z</time>
      </trkpt>
      <trkpt lat="47.21062" lon="0.03388">
        <ele>128</ele>
        <time>2011-08-28T12:31:41Z</time>
      </trkpt>
      <trkpt lat="47.21058" lon="0.03391">
        <ele>128</ele>
        <time>2011-08-28T12:31:45Z</time>
      </trkpt>
      <trkpt lat="47.21054" lon="0.03395">
        <ele>128</ele>
        <time>2011-08-28T12:31:49Z</time>
      </trkpt>
      <trkpt lat="47.21049" lon="0.03398">
        <ele>128</ele>
        <time>2011-08-28T12:31:53Z</time>
      </trkpt>
      <trkpt lat="47.21046" lon="0.03403">
        <ele>128</ele>
        <time>2011-08-28T12:31:57Z</time>
      </trkpt>
      <trkpt lat="47.21042" lon="0.03408">
        <ele>128</ele>
        <time>2011-08-28T12:32:01Z</time>
      </trkpt>
      <trkpt lat="47.21038" lon="0.03414">
        <ele>128</ele>
        <time>2011-08-28T12:32:05Z</time>
      </trkpt>
      <trkpt lat="47.21034" lon="0.0342">
        <ele>128</ele>
        <time>2011-08-28T12:32:09Z</time>
      </trkpt>
      <trkpt lat="47.2103" lon="0.03426">
        <ele>129</ele>
        <time>2011-08-28T12:32:13Z</time>
      </trkpt>
      <trkpt lat="47.21027" lon="0.03431">
        <ele>129</ele>
        <time>2011-08-28T12:32:17Z</time>
      </trkpt>
      <trkpt lat="47.21024" lon="0.03436">
        <ele>129</ele>
        <time>2011-08-28T12:32:21Z</time>
      </trkpt>
      <trkpt lat="47.21021" lon="0.03441">
        <ele>129</ele>
        <time>2011-08-28T12:32:25Z</time>
      </trkpt>
      <trkpt lat="47.21018" lon="0.03446">
        <ele>129</ele>
        <time>2011-08-28T12:32:29Z</time>
      </trkpt>
      <trkpt lat="47.21014" lon="0.03451">
        <ele>129</ele>
        <time>2011-08-28T12:32:33Z</time>
      </trkpt>
      <trkpt lat="47.21011" lon="0.03456">
        <ele>129</ele>
        <time>2011-08-28T12:32:37Z</time>
      </trkpt>
      <trkpt lat="47.21008" lon="0.03461">
        <ele>129</ele>
        <time>2011-08-28T12:32:41Z</time>
      </trkpt>
      <trkpt lat="47.21004" lon="0.03466">
        <ele>129</ele>
        <time>2011-08-28T12:32:45Z</time>
      </trkpt>
      <trkpt lat="47.21001" lon="0.03471">
        <ele>129</ele>
        <time>2011-08-28T12:32:49Z</time>
      </trkpt>
      <trkpt lat="47.20997" lon="0.03476">
        <ele>129</ele>
        <time>2011-08-28T12:32:53Z</time>
      </trkpt>
      <trkpt lat="47.20994" lon="0.03482">
        <ele>129</ele>
        <time>2011-08-28T12:32:57Z</time>
      </trkpt>
      <trkpt lat="47.2099" lon="0.03487">
        <ele>130</ele>
        <time>2011-08-28T12:33:01Z</time>
      </trkpt>
      <trkpt lat="47.20986" lon="0.03492">
        <ele>130</ele>
        <time>2011-08-28T12:33:05Z</time>
      </trkpt>
      <trkpt lat="47.20982" lon="0.03496">
        <ele>130</ele>
        <time>2011-08-28T12:33:09Z</time>
      </trkpt>
      <trkpt lat="47.20979" lon="0.03501">
        <ele>130</ele>
        <time>2011-08-28T12:33:13Z</time>
      </trkpt>
      <trkpt lat="47.20975" lon="0.03505">
        <ele>130</ele>
        <time>2011-08-28T12:33:17Z</time>
      </trkpt>
      <trkpt lat="47.20971" lon="0.03509">
        <ele>130</ele>
        <time>2011-08-28T12:33:21Z</time>
      </trkpt>
      <trkpt lat="47.20968" lon="0.03514">
        <ele>130</ele>
        <time>2011-08-28T12:33:25Z</time>
      </trkpt>
      <trkpt lat="47.20964" lon="0.03519">
        <ele>130</ele>
        <time>2011-08-28T12:33:29Z</time>
      </trkpt>
      <trkpt lat="47.20961" lon="0.03524">
        <ele>130</ele>
        <time>2011-08-28T12:33:33Z</time>
      </trkpt>
      <trkpt lat="47.20957" lon="0.03529">
        <ele>130</ele>
        <time>2011-08-28T12:33:37Z</time>
      </trkpt>
      <trkpt lat="47.20954" lon="0.03534">
        <ele>130</ele>
        <time>2011-08-28T12:33:41Z</time>
      </trkpt>
      <trkpt lat="47.20951" lon="0.03539">
        <ele>130</ele>
        <time>2011-08-28T12:33:45Z</time>
      </trkpt>
      <trkpt lat="47.20947" lon="0.03544">
        <ele>130</ele>
        <time>2011-08-28T12:33:49Z</time>
      </trkpt>
      <trkpt lat="47.20944" lon="0.03549">
        <ele>130</ele>
        <time>2011-08-28T12:33:53Z</time>
      </trkpt>
      <trkpt lat="47.20941" lon="0.03554">
        <ele>130</ele>
        <time>2011-08-28T12:33:57Z</time>
      </trkpt>
      <trkpt lat="47.20938" lon="0.03559">
        <ele>131</ele>
        <time>2011-08-28T12:34:01Z</time>
      </trkpt>
      <trkpt lat="47.20934" lon="0.03563">
        <ele>131</ele>
        <time>2011-08-28T12:34:05Z</time>
      </trkpt>
      <trkpt lat="47.20931" lon="0.03568">
        <ele>131</ele>
        <time>2011-08-28T12:34:09Z</time>
      </trkpt>
      <trkpt lat="47.20928" lon="0.03573">
        <ele>131</ele>
        <time>2011-08-28T12:34:13Z</time>
      </trkpt>
      <trkpt lat="47.20924" lon="0.03578">
        <ele>131</ele>
        <time>2011-08-28T12:34:17Z</time>
      </trkpt>
      <trkpt lat="47.20921" lon="0.03582">
        <ele>131</ele>
        <time>2011-08-28T12:34:21Z</time>
      </trkpt>
      <trkpt lat="47.20917" lon="0.03588">
        <ele>131</ele>
        <time>2011-08-28T12:34:25Z</time>
      </trkpt>
      <trkpt lat="47.20914" lon="0.03593">
        <ele>131</ele>
        <time>2011-08-28T12:34:29Z</time>
      </trkpt>
      <trkpt lat="47.2091" lon="0.03598">
        <ele>131</ele>
        <time>2011-08-28T12:34:33Z</time>
      </trkpt>
      <trkpt lat="47.20907" lon="0.03602">
        <ele>131</ele>
        <time>2011-08-28T12:34:37Z</time>
      </trkpt>
      <trkpt lat="47.20903" lon="0.03608">
        <ele>131</ele>
        <time>2011-08-28T12:34:41Z</time>
      </trkpt>
      <trkpt lat="47.209" lon="0.03613">
        <ele>131</ele>
        <time>2011-08-28T12:34:45Z</time>
      </trkpt>
      <trkpt lat="47.20896" lon="0.03617">
        <ele>131</ele>
        <time>2011-08-28T12:34:49Z</time>
      </trkpt>
      <trkpt lat="47.20893" lon="0.03622">
        <ele>131</ele>
        <time>2011-08-28T12:34:53Z</time>
      </trkpt>
      <trkpt lat="47.20889" lon="0.03628">
        <ele>131</ele>
        <time>2011-08-28T12:34:58Z</time>
      </trkpt>
      <trkpt lat="47.20885" lon="0.03632">
        <ele>131</ele>
        <time>2011-08-28T12:35:03Z</time>
      </trkpt>
      <trkpt lat="47.20881" lon="0.03638">
        <ele>132</ele>
        <time>2011-08-28T12:35:08Z</time>
      </trkpt>
      <trkpt lat="47.20877" lon="0.03644">
        <ele>132</ele>
        <time>2011-08-28T12:35:13Z</time>
      </trkpt>
      <trkpt lat="47.20874" lon="0.03649">
        <ele>132</ele>
        <time>2011-08-28T12:35:17Z</time>
      </trkpt>
      <trkpt lat="47.20871" lon="0.03655">
        <ele>132</ele>
        <time>2011-08-28T12:35:21Z</time>
      </trkpt>
      <trkpt lat="47.20868" lon="0.0366">
        <ele>132</ele>
        <time>2011-08-28T12:35:25Z</time>
      </trkpt>
      <trkpt lat="47.20865" lon="0.03666">
        <ele>132</ele>
        <time>2011-08-28T12:35:29Z</time>
      </trkpt>
      <trkpt lat="47.20862" lon="0.03671">
        <ele>132</ele>
        <time>2011-08-28T12:35:33Z</time>
      </trkpt>
      <trkpt lat="47.20859" lon="0.03676">
        <ele>132</ele>
        <time>2011-08-28T12:35:37Z</time>
      </trkpt>
      <trkpt lat="47.20856" lon="0.03682">
        <ele>132</ele>
        <time>2011-08-28T12:35:41Z</time>
      </trkpt>
      <trkpt lat="47.20852" lon="0.03687">
        <ele>132</ele>
        <time>2011-08-28T12:35:45Z</time>
      </trkpt>
      <trkpt lat="47.20849" lon="0.03692">
        <ele>132</ele>
        <time>2011-08-28T12:35:49Z</time>
      </trkpt>
      <trkpt lat="47.20846" lon="0.03697">
        <ele>132</ele>
        <time>2011-08-28T12:35:53Z</time>
      </trkpt>
      <trkpt lat="47.20844" lon="0.03704">
        <ele>132</ele>
        <time>2011-08-28T12:35:58Z</time>
      </trkpt>
      <trkpt lat="47.20843" lon="0.03711">
        <ele>132</ele>
        <time>2011-08-28T12:36:03Z</time>
      </trkpt>
      <trkpt lat="47.20845" lon="0.03706">
        <ele>132</ele>
        <time>2011-08-28T12:37:50Z</time>
      </trkpt>
      <trkpt lat="47.20848" lon="0.037">
        <ele>132</ele>
        <time>2011-08-28T12:40:08Z</time>
      </trkpt>
      <trkpt lat="47.20848" lon="0.03707">
        <ele>132</ele>
        <time>2011-08-28T12:40:43Z</time>
      </trkpt>
      <trkpt lat="47.20849" lon="0.03714">
        <ele>132</ele>
        <time>2011-08-28T12:40:51Z</time>
      </trkpt>
      <trkpt lat="47.20852" lon="0.03721">
        <ele>132</ele>
        <time>2011-08-28T12:40:56Z</time>
      </trkpt>
      <trkpt lat="47.20855" lon="0.03726">
        <ele>132</ele>
        <time>2011-08-28T12:41:00Z</time>
      </trkpt>
      <trkpt lat="47.20859" lon="0.0373">
        <ele>132</ele>
        <time>2011-08-28T12:41:04Z</time>
      </trkpt>
      <trkpt lat="47.20863" lon="0.03734">
        <ele>132</ele>
        <time>2011-08-28T12:41:08Z</time>
      </trkpt>
      <trkpt lat="47.20867" lon="0.03737">
        <ele>133</ele>
        <time>2011-08-28T12:41:12Z</time>
      </trkpt>
      <trkpt lat="47.20871" lon="0.0374">
        <ele>133</ele>
        <time>2011-08-28T12:41:16Z</time>
      </trkpt>
      <trkpt lat="47.20875" lon="0.03742">
        <ele>133</ele>
        <time>2011-08-28T12:41:24Z</time>
      </trkpt>
      <trkpt lat="47.2088" lon="0.03746">
        <ele>133</ele>
        <time>2011-08-28T12:41:31Z</time>
      </trkpt>
      <trkpt lat="47.20884" lon="0.03749">
        <ele>133</ele>
        <time>2011-08-28T12:41:38Z</time>
      </trkpt>
      <trkpt lat="47.20887" lon="0.03755">
        <ele>133</ele>
        <time>2011-08-28T12:41:44Z</time>
      </trkpt>
      <trkpt lat="47.20892" lon="0.03758">
        <ele>133</ele>
        <time>2011-08-28T12:41:49Z</time>
      </trkpt>
      <trkpt lat="47.20897" lon="0.0376">
        <ele>133</ele>
        <time>2011-08-28T12:41:53Z</time>
      </trkpt>
      <trkpt lat="47.20901" lon="0.03764">
        <ele>133</ele>
        <time>2011-08-28T12:41:56Z</time>
      </trkpt>
      <trkpt lat="47.20906" lon="0.03768">
        <ele>133</ele>
        <time>2011-08-28T12:42:00Z</time>
      </trkpt>
      <trkpt lat="47.20911" lon="0.03771">
        <ele>133</ele>
        <time>2011-08-28T12:42:04Z</time>
      </trkpt>
      <trkpt lat="47.20914" lon="0.03776">
        <ele>133</ele>
        <time>2011-08-28T12:42:08Z</time>
      </trkpt>
      <trkpt lat="47.20918" lon="0.0378">
        <ele>133</ele>
        <time>2011-08-28T12:42:12Z</time>
      </trkpt>
      <trkpt lat="47.20922" lon="0.03784">
        <ele>133</ele>
        <time>2011-08-28T12:42:16Z</time>
      </trkpt>
      <trkpt lat="47.20926" lon="0.0379">
        <ele>133</ele>
        <time>2011-08-28T12:42:21Z</time>
      </trkpt>
      <trkpt lat="47.2093" lon="0.03795">
        <ele>133</ele>
        <time>2011-08-28T12:42:26Z</time>
      </trkpt>
      <trkpt lat="47.20934" lon="0.038">
        <ele>133</ele>
        <time>2011-08-28T12:42:31Z</time>
      </trkpt>
      <trkpt lat="47.20938" lon="0.03804">
        <ele>133</ele>
        <time>2011-08-28T12:42:35Z</time>
      </trkpt>
      <trkpt lat="47.20941" lon="0.03808">
        <ele>133</ele>
        <time>2011-08-28T12:42:39Z</time>
      </trkpt>
      <trkpt lat="47.20945" lon="0.03812">
        <ele>133</ele>
        <time>2011-08-28T12:42:43Z</time>
      </trkpt>
      <trkpt lat="47.20949" lon="0.03816">
        <ele>133</ele>
        <time>2011-08-28T12:42:47Z</time>
      </trkpt>
      <trkpt lat="47.20953" lon="0.03821">
        <ele>133</ele>
        <time>2011-08-28T12:42:52Z</time>
      </trkpt>
      <trkpt lat="47.20957" lon="0.03824">
        <ele>133</ele>
        <time>2011-08-28T12:42:56Z</time>
      </trkpt>
      <trkpt lat="47.20961" lon="0.03828">
        <ele>133</ele>
        <time>2011-08-28T12:43:00Z</time>
      </trkpt>
      <trkpt lat="47.20964" lon="0.03832">
        <ele>133</ele>
        <time>2011-08-28T12:43:04Z</time>
      </trkpt>
      <trkpt lat="47.20969" lon="0.03836">
        <ele>133</ele>
        <time>2011-08-28T12:43:08Z</time>
      </trkpt>
      <trkpt lat="47.20973" lon="0.0384">
        <ele>133</ele>
        <time>2011-08-28T12:43:12Z</time>
      </trkpt>
      <trkpt lat="47.20977" lon="0.03842">
        <ele>133</ele>
        <time>2011-08-28T12:43:16Z</time>
      </trkpt>
      <trkpt lat="47.20982" lon="0.03846">
        <ele>133</ele>
        <time>2011-08-28T12:43:20Z</time>
      </trkpt>
      <trkpt lat="47.20986" lon="0.03849">
        <ele>134</ele>
        <time>2011-08-28T12:43:24Z</time>
      </trkpt>
      <trkpt lat="47.2099" lon="0.03854">
        <ele>134</ele>
        <time>2011-08-28T12:43:28Z</time>
      </trkpt>
      <trkpt lat="47.20993" lon="0.03859">
        <ele>134</ele>
        <time>2011-08-28T12:43:32Z</time>
      </trkpt>
      <trkpt lat="47.20997" lon="0.03863">
        <ele>134</ele>
        <time>2011-08-28T12:43:36Z</time>
      </trkpt>
      <trkpt lat="47.21" lon="0.03867">
        <ele>134</ele>
        <time>2011-08-28T12:43:40Z</time>
      </trkpt>
      <trkpt lat="47.21004" lon="0.03872">
        <ele>134</ele>
        <time>2011-08-28T12:43:44Z</time>
      </trkpt>
      <trkpt lat="47.21008" lon="0.03876">
        <ele>134</ele>
        <time>2011-08-28T12:43:48Z</time>
      </trkpt>
      <trkpt lat="47.21012" lon="0.0388">
        <ele>134</ele>
        <time>2011-08-28T12:43:52Z</time>
      </trkpt>
      <trkpt lat="47.21016" lon="0.03884">
        <ele>134</ele>
        <time>2011-08-28T12:43:56Z</time>
      </trkpt>
      <trkpt lat="47.2102" lon="0.03888">
        <ele>134</ele>
        <time>2011-08-28T12:44:00Z</time>
      </trkpt>
      <trkpt lat="47.21024" lon="0.03892">
        <ele>134</ele>
        <time>2011-08-28T12:44:04Z</time>
      </trkpt>
      <trkpt lat="47.21028" lon="0.03895">
        <ele>134</ele>
        <time>2011-08-28T12:44:08Z</time>
      </trkpt>
      <trkpt lat="47.21032" lon="0.03899">
        <ele>134</ele>
        <time>2011-08-28T12:44:12Z</time>
      </trkpt>
      <trkpt lat="47.21036" lon="0.03903">
        <ele>134</ele>
        <time>2011-08-28T12:44:16Z</time>
      </trkpt>
      <trkpt lat="47.2104" lon="0.03906">
        <ele>134</ele>
        <time>2011-08-28T12:44:20Z</time>
      </trkpt>
      <trkpt lat="47.21044" lon="0.0391">
        <ele>134</ele>
        <time>2011-08-28T12:44:24Z</time>
      </trkpt>
      <trkpt lat="47.21047" lon="0.03915">
        <ele>134</ele>
        <time>2011-08-28T12:44:28Z</time>
      </trkpt>
      <trkpt lat="47.21051" lon="0.03919">
        <ele>134</ele>
        <time>2011-08-28T12:44:32Z</time>
      </trkpt>
      <trkpt lat="47.21055" lon="0.03924">
        <ele>134</ele>
        <time>2011-08-28T12:44:36Z</time>
      </trkpt>
      <trkpt lat="47.21058" lon="0.03929">
        <ele>134</ele>
        <time>2011-08-28T12:44:40Z</time>
      </trkpt>
      <trkpt lat="47.21061" lon="0.03934">
        <ele>134</ele>
        <time>2011-08-28T12:44:44Z</time>
      </trkpt>
      <trkpt lat="47.21064" lon="0.03938">
        <ele>134</ele>
        <time>2011-08-28T12:44:48Z</time>
      </trkpt>
      <trkpt lat="47.21068" lon="0.03942">
        <ele>134</ele>
        <time>2011-08-28T12:44:52Z</time>
      </trkpt>
      <trkpt lat="47.21072" lon="0.03947">
        <ele>134</ele>
        <time>2011-08-28T12:44:56Z</time>
      </trkpt>
      <trkpt lat="47.21075" lon="0.03952">
        <ele>134</ele>
        <time>2011-08-28T12:45:00Z</time>
      </trkpt>
      <trkpt lat="47.21079" lon="0.03956">
        <ele>134</ele>
        <time>2011-08-28T12:45:04Z</time>
      </trkpt>
      <trkpt lat="47.21084" lon="0.0396">
        <ele>134</ele>
        <time>2011-08-28T12:45:08Z</time>
      </trkpt>
      <trkpt lat="47.21088" lon="0.03965">
        <ele>134</ele>
        <time>2011-08-28T12:45:12Z</time>
      </trkpt>
      <trkpt lat="47.21091" lon="0.0397">
        <ele>134</ele>
        <time>2011-08-28T12:45:16Z</time>
      </trkpt>
      <trkpt lat="47.21095" lon="0.03976">
        <ele>134</ele>
        <time>2011-08-28T12:45:20Z</time>
      </trkpt>
      <trkpt lat="47.21098" lon="0.0398">
        <ele>134</ele>
        <time>2011-08-28T12:45:24Z</time>
      </trkpt>
      <trkpt lat="47.21102" lon="0.03985">
        <ele>134</ele>
        <time>2011-08-28T12:45:28Z</time>
      </trkpt>
      <trkpt lat="47.21106" lon="0.0399">
        <ele>134</ele>
        <time>2011-08-28T12:45:32Z</time>
      </trkpt>
      <trkpt lat="47.21111" lon="0.03995">
        <ele>134</ele>
        <time>2011-08-28T12:45:36Z</time>
      </trkpt>
      <trkpt lat="47.21114" lon="0.04">
        <ele>134</ele>
        <time>2011-08-28T12:45:40Z</time>
      </trkpt>
      <trkpt lat="47.21118" lon="0.04006">
        <ele>134</ele>
        <time>2011-08-28T12:45:44Z</time>
      </trkpt>
      <trkpt lat="47.21122" lon="0.0401">
        <ele>134</ele>
        <time>2011-08-28T12:45:48Z</time>
      </trkpt>
      <trkpt lat="47.21126" lon="0.04015">
        <ele>134</ele>
        <time>2011-08-28T12:45:52Z</time>
      </trkpt>
      <trkpt lat="47.21129" lon="0.0402">
        <ele>133</ele>
        <time>2011-08-28T12:45:56Z</time>
      </trkpt>
      <trkpt lat="47.21132" lon="0.04025">
        <ele>133</ele>
        <time>2011-08-28T12:46:00Z</time>
      </trkpt>
      <trkpt lat="47.21136" lon="0.0403">
        <ele>133</ele>
        <time>2011-08-28T12:46:04Z</time>
      </trkpt>
      <trkpt lat="47.2114" lon="0.04034">
        <ele>133</ele>
        <time>2011-08-28T12:46:08Z</time>
      </trkpt>
      <trkpt lat="47.21145" lon="0.04037">
        <ele>133</ele>
        <time>2011-08-28T12:46:12Z</time>
      </trkpt>
      <trkpt lat="47.21149" lon="0.04041">
        <ele>133</ele>
        <time>2011-08-28T12:46:16Z</time>
      </trkpt>
      <trkpt lat="47.21153" lon="0.04044">
        <ele>133</ele>
        <time>2011-08-28T12:46:20Z</time>
      </trkpt>
      <trkpt lat="47.21157" lon="0.04048">
        <ele>132</ele>
        <time>2011-08-28T12:46:24Z</time>
      </trkpt>
      <trkpt lat="47.21161" lon="0.04052">
        <ele>132</ele>
        <time>2011-08-28T12:46:28Z</time>
      </trkpt>
      <trkpt lat="47.21165" lon="0.04055">
        <ele>132</ele>
        <time>2011-08-28T12:46:32Z</time>
      </trkpt>
      <trkpt lat="47.2117" lon="0.04058">
        <ele>132</ele>
        <time>2011-08-28T12:46:36Z</time>
      </trkpt>
      <trkpt lat="47.21174" lon="0.04061">
        <ele>132</ele>
        <time>2011-08-28T12:46:40Z</time>
      </trkpt>
      <trkpt lat="47.21178" lon="0.04064">
        <ele>132</ele>
        <time>2011-08-28T12:46:44Z</time>
      </trkpt>
      <trkpt lat="47.21182" lon="0.04067">
        <ele>132</ele>
        <time>2011-08-28T12:46:48Z</time>
      </trkpt>
      <trkpt lat="47.21187" lon="0.0407">
        <ele>132</ele>
        <time>2011-08-28T12:46:52Z</time>
      </trkpt>
      <trkpt lat="47.21192" lon="0.04073">
        <ele>132</ele>
        <time>2011-08-28T12:46:56Z</time>
      </trkpt>
      <trkpt lat="47.21196" lon="0.04076">
        <ele>132</ele>
        <time>2011-08-28T12:47:00Z</time>
      </trkpt>
      <trkpt lat="47.21201" lon="0.04079">
        <ele>132</ele>
        <time>2011-08-28T12:47:04Z</time>
      </trkpt>
      <trkpt lat="47.21206" lon="0.04082">
        <ele>132</ele>
        <time>2011-08-28T12:47:08Z</time>
      </trkpt>
      <trkpt lat="47.2121" lon="0.04086">
        <ele>132</ele>
        <time>2011-08-28T12:47:12Z</time>
      </trkpt>
      <trkpt lat="47.21215" lon="0.0409">
        <ele>131</ele>
        <time>2011-08-28T12:47:16Z</time>
      </trkpt>
      <trkpt lat="47.21219" lon="0.04093">
        <ele>131</ele>
        <time>2011-08-28T12:47:20Z</time>
      </trkpt>
      <trkpt lat="47.21224" lon="0.04096">
        <ele>131</ele>
        <time>2011-08-28T12:47:24Z</time>
      </trkpt>
      <trkpt lat="47.21228" lon="0.041">
        <ele>131</ele>
        <time>2011-08-28T12:47:28Z</time>
      </trkpt>
      <trkpt lat="47.21232" lon="0.04103">
        <ele>131</ele>
        <time>2011-08-28T12:47:32Z</time>
      </trkpt>
      <trkpt lat="47.21237" lon="0.04106">
        <ele>131</ele>
        <time>2011-08-28T12:47:36Z</time>
      </trkpt>
      <trkpt lat="47.21241" lon="0.04108">
        <ele>131</ele>
        <time>2011-08-28T12:47:40Z</time>
      </trkpt>
      <trkpt lat="47.21246" lon="0.0411">
        <ele>131</ele>
        <time>2011-08-28T12:47:44Z</time>
      </trkpt>
      <trkpt lat="47.2125" lon="0.04112">
        <ele>131</ele>
        <time>2011-08-28T12:47:48Z</time>
      </trkpt>
      <trkpt lat="47.21256" lon="0.04114">
        <ele>131</ele>
        <time>2011-08-28T12:47:52Z</time>
      </trkpt>
      <trkpt lat="47.2126" lon="0.04116">
        <ele>131</ele>
        <time>2011-08-28T12:47:56Z</time>
      </trkpt>
      <trkpt lat="47.21266" lon="0.04117">
        <ele>131</ele>
        <time>2011-08-28T12:48:00Z</time>
      </trkpt>
      <trkpt lat="47.2127" lon="0.04117">
        <ele>131</ele>
        <time>2011-08-28T12:48:04Z</time>
      </trkpt>
      <trkpt lat="47.21275" lon="0.04118">
        <ele>131</ele>
        <time>2011-08-28T12:48:08Z</time>
      </trkpt>
      <trkpt lat="47.2128" lon="0.04118">
        <ele>131</ele>
        <time>2011-08-28T12:48:12Z</time>
      </trkpt>
      <trkpt lat="47.21285" lon="0.04117">
        <ele>130</ele>
        <time>2011-08-28T12:48:16Z</time>
      </trkpt>
      <trkpt lat="47.2129" lon="0.04118">
        <ele>130</ele>
        <time>2011-08-28T12:48:20Z</time>
      </trkpt>
      <trkpt lat="47.21295" lon="0.04118">
        <ele>130</ele>
        <time>2011-08-28T12:48:24Z</time>
      </trkpt>
      <trkpt lat="47.213" lon="0.04119">
        <ele>130</ele>
        <time>2011-08-28T12:48:28Z</time>
      </trkpt>
      <trkpt lat="47.21305" lon="0.0412">
        <ele>130</ele>
        <time>2011-08-28T12:48:32Z</time>
      </trkpt>
      <trkpt lat="47.2131" lon="0.04121">
        <ele>130</ele>
        <time>2011-08-28T12:48:36Z</time>
      </trkpt>
      <trkpt lat="47.21314" lon="0.04121">
        <ele>130</ele>
        <time>2011-08-28T12:48:40Z</time>
      </trkpt>
      <trkpt lat="47.21319" lon="0.04122">
        <ele>130</ele>
        <time>2011-08-28T12:48:44Z</time>
      </trkpt>
      <trkpt lat="47.21324" lon="0.04124">
        <ele>130</ele>
        <time>2011-08-28T12:48:48Z</time>
      </trkpt>
      <trkpt lat="47.21328" lon="0.04126">
        <ele>130</ele>
        <time>2011-08-28T12:48:52Z</time>
      </trkpt>
      <trkpt lat="47.21333" lon="0.04128">
        <ele>130</ele>
        <time>2011-08-28T12:48:56Z</time>
      </trkpt>
      <trkpt lat="47.21337" lon="0.04132">
        <ele>130</ele>
        <time>2011-08-28T12:49:00Z</time>
      </trkpt>
      <trkpt lat="47.21342" lon="0.04135">
        <ele>130</ele>
        <time>2011-08-28T12:49:04Z</time>
      </trkpt>
      <trkpt lat="47.21346" lon="0.04139">
        <ele>129</ele>
        <time>2011-08-28T12:49:08Z</time>
      </trkpt>
      <trkpt lat="47.2135" lon="0.04143">
        <ele>129</ele>
        <time>2011-08-28T12:49:12Z</time>
      </trkpt>
      <trkpt lat="47.21353" lon="0.04147">
        <ele>129</ele>
        <time>2011-08-28T12:49:16Z</time>
      </trkpt>
      <trkpt lat="47.21357" lon="0.04153">
        <ele>129</ele>
        <time>2011-08-28T12:49:21Z</time>
      </trkpt>
      <trkpt lat="47.21359" lon="0.04159">
        <ele>129</ele>
        <time>2011-08-28T12:49:26Z</time>
      </trkpt>
      <trkpt lat="47.21361" lon="0.04167">
        <ele>129</ele>
        <time>2011-08-28T12:49:31Z</time>
      </trkpt>
      <trkpt lat="47.21362" lon="0.04174">
        <ele>129</ele>
        <time>2011-08-28T12:49:36Z</time>
      </trkpt>
      <trkpt lat="47.21363" lon="0.04181">
        <ele>129</ele>
        <time>2011-08-28T12:49:40Z</time>
      </trkpt>
      <trkpt lat="47.21364" lon="0.04187">
        <ele>130</ele>
        <time>2011-08-28T12:49:44Z</time>
      </trkpt>
      <trkpt lat="47.21366" lon="0.04194">
        <ele>130</ele>
        <time>2011-08-28T12:49:49Z</time>
      </trkpt>
      <trkpt lat="47.21367" lon="0.04202">
        <ele>130</ele>
        <time>2011-08-28T12:49:54Z</time>
      </trkpt>
      <trkpt lat="47.21368" lon="0.04209">
        <ele>130</ele>
        <time>2011-08-28T12:49:58Z</time>
      </trkpt>
      <trkpt lat="47.21368" lon="0.04217">
        <ele>130</ele>
        <time>2011-08-28T12:50:03Z</time>
      </trkpt>
      <trkpt lat="47.21369" lon="0.04225">
        <ele>130</ele>
        <time>2011-08-28T12:50:08Z</time>
      </trkpt>
      <trkpt lat="47.21369" lon="0.04231">
        <ele>130</ele>
        <time>2011-08-28T12:50:12Z</time>
      </trkpt>
      <trkpt lat="47.21369" lon="0.04238">
        <ele>130</ele>
        <time>2011-08-28T12:50:16Z</time>
      </trkpt>
      <trkpt lat="47.21369" lon="0.04245">
        <ele>130</ele>
        <time>2011-08-28T12:50:20Z</time>
      </trkpt>
      <trkpt lat="47.2137" lon="0.04252">
        <ele>130</ele>
        <time>2011-08-28T12:50:24Z</time>
      </trkpt>
      <trkpt lat="47.2137" lon="0.0426">
        <ele>130</ele>
        <time>2011-08-28T12:50:28Z</time>
      </trkpt>
      <trkpt lat="47.2137" lon="0.04267">
        <ele>130</ele>
        <time>2011-08-28T12:50:32Z</time>
      </trkpt>
      <trkpt lat="47.2137" lon="0.04273">
        <ele>130</ele>
        <time>2011-08-28T12:50:36Z</time>
      </trkpt>
      <trkpt lat="47.2137" lon="0.0428">
        <ele>130</ele>
        <time>2011-08-28T12:50:40Z</time>
      </trkpt>
      <trkpt lat="47.2137" lon="0.04287">
        <ele>131</ele>
        <time>2011-08-28T12:50:44Z</time>
      </trkpt>
      <trkpt lat="47.21371" lon="0.04294">
        <ele>131</ele>
        <time>2011-08-28T12:50:48Z</time>
      </trkpt>
      <trkpt lat="47.21371" lon="0.04302">
        <ele>131</ele>
        <time>2011-08-28T12:50:52Z</time>
      </trkpt>
      <trkpt lat="47.21372" lon="0.04309">
        <ele>131</ele>
        <time>2011-08-28T12:50:56Z</time>
      </trkpt>
      <trkpt lat="47.21372" lon="0.04316">
        <ele>131</ele>
        <time>2011-08-28T12:51:00Z</time>
      </trkpt>
      <trkpt lat="47.21372" lon="0.04323">
        <ele>131</ele>
        <time>2011-08-28T12:51:04Z</time>
      </trkpt>
      <trkpt lat="47.21372" lon="0.0433">
        <ele>131</ele>
        <time>2011-08-28T12:51:08Z</time>
      </trkpt>
      <trkpt lat="47.21373" lon="0.04337">
        <ele>131</ele>
        <time>2011-08-28T12:51:12Z</time>
      </trkpt>
      <trkpt lat="47.21374" lon="0.04344">
        <ele>131</ele>
        <time>2011-08-28T12:51:16Z</time>
      </trkpt>
      <trkpt lat="47.21375" lon="0.04351">
        <ele>131</ele>
        <time>2011-08-28T12:51:20Z</time>
      </trkpt>
      <trkpt lat="47.21376" lon="0.04358">
        <ele>131</ele>
        <time>2011-08-28T12:51:24Z</time>
      </trkpt>
      <trkpt lat="47.21377" lon="0.04365">
        <ele>131</ele>
        <time>2011-08-28T12:51:28Z</time>
      </trkpt>
      <trkpt lat="47.21378" lon="0.04373">
        <ele>131</ele>
        <time>2011-08-28T12:51:32Z</time>
      </trkpt>
      <trkpt lat="47.21378" lon="0.0438">
        <ele>132</ele>
        <time>2011-08-28T12:51:36Z</time>
      </trkpt>
      <trkpt lat="47.21379" lon="0.04388">
        <ele>132</ele>
        <time>2011-08-28T12:51:40Z</time>
      </trkpt>
      <trkpt lat="47.2138" lon="0.04394">
        <ele>132</ele>
        <time>2011-08-28T12:51:44Z</time>
      </trkpt>
      <trkpt lat="47.21382" lon="0.04401">
        <ele>132</ele>
        <time>2011-08-28T12:51:48Z</time>
      </trkpt>
      <trkpt lat="47.21382" lon="0.04408">
        <ele>132</ele>
        <time>2011-08-28T12:51:52Z</time>
      </trkpt>
      <trkpt lat="47.21383" lon="0.04414">
        <ele>132</ele>
        <time>2011-08-28T12:51:56Z</time>
      </trkpt>
      <trkpt lat="47.21385" lon="0.04422">
        <ele>132</ele>
        <time>2011-08-28T12:52:01Z</time>
      </trkpt>
      <trkpt lat="47.21386" lon="0.04429">
        <ele>132</ele>
        <time>2011-08-28T12:52:06Z</time>
      </trkpt>
      <trkpt lat="47.21387" lon="0.04437">
        <ele>132</ele>
        <time>2011-08-28T12:52:11Z</time>
      </trkpt>
      <trkpt lat="47.21388" lon="0.04444">
        <ele>132</ele>
        <time>2011-08-28T12:52:15Z</time>
      </trkpt>
      <trkpt lat="47.21388" lon="0.04452">
        <ele>132</ele>
        <time>2011-08-28T12:52:19Z</time>
      </trkpt>
      <trkpt lat="47.21389" lon="0.04459">
        <ele>132</ele>
        <time>2011-08-28T12:52:23Z</time>
      </trkpt>
      <trkpt lat="47.2139" lon="0.04466">
        <ele>132</ele>
        <time>2011-08-28T12:52:27Z</time>
      </trkpt>
      <trkpt lat="47.2139" lon="0.04474">
        <ele>132</ele>
        <time>2011-08-28T12:52:31Z</time>
      </trkpt>
      <trkpt lat="47.2139" lon="0.04481">
        <ele>132</ele>
        <time>2011-08-28T12:52:35Z</time>
      </trkpt>
      <trkpt lat="47.21391" lon="0.04488">
        <ele>132</ele>
        <time>2011-08-28T12:52:39Z</time>
      </trkpt>
      <trkpt lat="47.21392" lon="0.04495">
        <ele>132</ele>
        <time>2011-08-28T12:52:43Z</time>
      </trkpt>
      <trkpt lat="47.21393" lon="0.04502">
        <ele>132</ele>
        <time>2011-08-28T12:52:47Z</time>
      </trkpt>
      <trkpt lat="47.21394" lon="0.04509">
        <ele>132</ele>
        <time>2011-08-28T12:52:51Z</time>
      </trkpt>
      <trkpt lat="47.21396" lon="0.04516">
        <ele>132</ele>
        <time>2011-08-28T12:52:55Z</time>
      </trkpt>
      <trkpt lat="47.21398" lon="0.04522">
        <ele>132</ele>
        <time>2011-08-28T12:52:59Z</time>
      </trkpt>
      <trkpt lat="47.214" lon="0.04528">
        <ele>132</ele>
        <time>2011-08-28T12:53:03Z</time>
      </trkpt>
      <trkpt lat="47.21403" lon="0.04533">
        <ele>132</ele>
        <time>2011-08-28T12:53:07Z</time>
      </trkpt>
      <trkpt lat="47.21405" lon="0.04539">
        <ele>132</ele>
        <time>2011-08-28T12:53:11Z</time>
      </trkpt>
      <trkpt lat="47.21408" lon="0.04544">
        <ele>132</ele>
        <time>2011-08-28T12:53:15Z</time>
      </trkpt>
      <trkpt lat="47.21411" lon="0.0455">
        <ele>132</ele>
        <time>2011-08-28T12:53:19Z</time>
      </trkpt>
      <trkpt lat="47.21414" lon="0.04555">
        <ele>132</ele>
        <time>2011-08-28T12:53:23Z</time>
      </trkpt>
      <trkpt lat="47.21417" lon="0.0456">
        <ele>132</ele>
        <time>2011-08-28T12:53:27Z</time>
      </trkpt>
      <trkpt lat="47.2142" lon="0.04566">
        <ele>132</ele>
        <time>2011-08-28T12:53:31Z</time>
      </trkpt>
      <trkpt lat="47.21423" lon="0.04572">
        <ele>132</ele>
        <time>2011-08-28T12:53:35Z</time>
      </trkpt>
      <trkpt lat="47.21426" lon="0.04578">
        <ele>132</ele>
        <time>2011-08-28T12:53:39Z</time>
      </trkpt>
      <trkpt lat="47.2143" lon="0.04583">
        <ele>132</ele>
        <time>2011-08-28T12:53:43Z</time>
      </trkpt>
      <trkpt lat="47.21434" lon="0.04588">
        <ele>132</ele>
        <time>2011-08-28T12:53:47Z</time>
      </trkpt>
      <trkpt lat="47.21437" lon="0.04593">
        <ele>132</ele>
        <time>2011-08-28T12:53:51Z</time>
      </trkpt>
      <trkpt lat="47.21441" lon="0.04598">
        <ele>132</ele>
        <time>2011-08-28T12:53:55Z</time>
      </trkpt>
      <trkpt lat="47.21445" lon="0.04602">
        <ele>132</ele>
        <time>2011-08-28T12:53:59Z</time>
      </trkpt>
      <trkpt lat="47.21449" lon="0.04605">
        <ele>132</ele>
        <time>2011-08-28T12:54:03Z</time>
      </trkpt>
      <trkpt lat="47.21453" lon="0.04609">
        <ele>132</ele>
        <time>2011-08-28T12:54:07Z</time>
      </trkpt>
      <trkpt lat="47.21457" lon="0.04612">
        <ele>132</ele>
        <time>2011-08-28T12:54:11Z</time>
      </trkpt>
      <trkpt lat="47.21461" lon="0.04616">
        <ele>132</ele>
        <time>2011-08-28T12:54:15Z</time>
      </trkpt>
      <trkpt lat="47.21465" lon="0.0462">
        <ele>132</ele>
        <time>2011-08-28T12:54:19Z</time>
      </trkpt>
      <trkpt lat="47.21469" lon="0.04624">
        <ele>132</ele>
        <time>2011-08-28T12:54:23Z</time>
      </trkpt>
      <trkpt lat="47.21474" lon="0.04628">
        <ele>131</ele>
        <time>2011-08-28T12:54:27Z</time>
      </trkpt>
      <trkpt lat="47.21478" lon="0.04632">
        <ele>131</ele>
        <time>2011-08-28T12:54:31Z</time>
      </trkpt>
      <trkpt lat="47.21482" lon="0.04635">
        <ele>131</ele>
        <time>2011-08-28T12:54:35Z</time>
      </trkpt>
      <trkpt lat="47.21486" lon="0.04639">
        <ele>131</ele>
        <time>2011-08-28T12:54:39Z</time>
      </trkpt>
      <trkpt lat="47.2149" lon="0.04643">
        <ele>131</ele>
        <time>2011-08-28T12:54:43Z</time>
      </trkpt>
      <trkpt lat="47.21494" lon="0.04648">
        <ele>131</ele>
        <time>2011-08-28T12:54:48Z</time>
      </trkpt>
      <trkpt lat="47.21499" lon="0.04652">
        <ele>131</ele>
        <time>2011-08-28T12:54:53Z</time>
      </trkpt>
      <trkpt lat="47.21503" lon="0.04656">
        <ele>131</ele>
        <time>2011-08-28T12:54:58Z</time>
      </trkpt>
      <trkpt lat="47.21507" lon="0.04661">
        <ele>131</ele>
        <time>2011-08-28T12:55:03Z</time>
      </trkpt>
      <trkpt lat="47.21511" lon="0.04666">
        <ele>131</ele>
        <time>2011-08-28T12:55:08Z</time>
      </trkpt>
      <trkpt lat="47.21514" lon="0.0467">
        <ele>131</ele>
        <time>2011-08-28T12:55:12Z</time>
      </trkpt>
      <trkpt lat="47.21518" lon="0.04675">
        <ele>131</ele>
        <time>2011-08-28T12:55:16Z</time>
      </trkpt>
      <trkpt lat="47.21522" lon="0.0468">
        <ele>131</ele>
        <time>2011-08-28T12:55:20Z</time>
      </trkpt>
      <trkpt lat="47.21526" lon="0.04684">
        <ele>131</ele>
        <time>2011-08-28T12:55:24Z</time>
      </trkpt>
      <trkpt lat="47.2153" lon="0.04688">
        <ele>131</ele>
        <time>2011-08-28T12:55:28Z</time>
      </trkpt>
      <trkpt lat="47.21535" lon="0.04691">
        <ele>131</ele>
        <time>2011-08-28T12:55:32Z</time>
      </trkpt>
      <trkpt lat="47.21539" lon="0.04694">
        <ele>131</ele>
        <time>2011-08-28T12:55:36Z</time>
      </trkpt>
      <trkpt lat="47.21543" lon="0.04698">
        <ele>131</ele>
        <time>2011-08-28T12:55:40Z</time>
      </trkpt>
      <trkpt lat="47.21547" lon="0.04701">
        <ele>131</ele>
        <time>2011-08-28T12:55:44Z</time>
      </trkpt>
      <trkpt lat="47.21551" lon="0.04704">
        <ele>131</ele>
        <time>2011-08-28T12:55:48Z</time>
      </trkpt>
      <trkpt lat="47.21556" lon="0.04708">
        <ele>131</ele>
        <time>2011-08-28T12:55:53Z</time>
      </trkpt>
      <trkpt lat="47.2156" lon="0.04712">
        <ele>131</ele>
        <time>2011-08-28T12:55:58Z</time>
      </trkpt>
      <trkpt lat="47.21565" lon="0.04716">
        <ele>131</ele>
        <time>2011-08-28T12:56:03Z</time>
      </trkpt>
      <trkpt lat="47.2157" lon="0.0472">
        <ele>131</ele>
        <time>2011-08-28T12:56:08Z</time>
      </trkpt>
      <trkpt lat="47.21574" lon="0.04724">
        <ele>131</ele>
        <time>2011-08-28T12:56:13Z</time>
      </trkpt>
      <trkpt lat="47.21579" lon="0.04728">
        <ele>131</ele>
        <time>2011-08-28T12:56:18Z</time>
      </trkpt>
      <trkpt lat="47.21584" lon="0.04732">
        <ele>131</ele>
        <time>2011-08-28T12:56:23Z</time>
      </trkpt>
      <trkpt lat="47.21589" lon="0.04735">
        <ele>131</ele>
        <time>2011-08-28T12:56:28Z</time>
      </trkpt>
      <trkpt lat="47.21594" lon="0.04739">
        <ele>131</ele>
        <time>2011-08-28T12:56:33Z</time>
      </trkpt>
      <trkpt lat="47.21598" lon="0.04742">
        <ele>131</ele>
        <time>2011-08-28T12:56:37Z</time>
      </trkpt>
      <trkpt lat="47.21602" lon="0.04745">
        <ele>131</ele>
        <time>2011-08-28T12:56:41Z</time>
      </trkpt>
      <trkpt lat="47.21606" lon="0.04748">
        <ele>131</ele>
        <time>2011-08-28T12:56:45Z</time>
      </trkpt>
      <trkpt lat="47.21611" lon="0.04752">
        <ele>131</ele>
        <time>2011-08-28T12:56:50Z</time>
      </trkpt>
      <trkpt lat="47.21615" lon="0.04757">
        <ele>131</ele>
        <time>2011-08-28T12:56:55Z</time>
      </trkpt>
      <trkpt lat="47.2162" lon="0.04762">
        <ele>131</ele>
        <time>2011-08-28T12:57:00Z</time>
      </trkpt>
      <trkpt lat="47.21623" lon="0.04766">
        <ele>131</ele>
        <time>2011-08-28T12:57:04Z</time>
      </trkpt>
      <trkpt lat="47.21626" lon="0.04772">
        <ele>131</ele>
        <time>2011-08-28T12:57:09Z</time>
      </trkpt>
      <trkpt lat="47.21628" lon="0.04778">
        <ele>131</ele>
        <time>2011-08-28T12:57:14Z</time>
      </trkpt>
      <trkpt lat="47.21627" lon="0.04785">
        <ele>131</ele>
        <time>2011-08-28T12:57:19Z</time>
      </trkpt>
      <trkpt lat="47.21626" lon="0.04792">
        <ele>131</ele>
        <time>2011-08-28T12:57:23Z</time>
      </trkpt>
      <trkpt lat="47.21624" lon="0.04798">
        <ele>131</ele>
        <time>2011-08-28T12:57:27Z</time>
      </trkpt>
      <trkpt lat="47.21622" lon="0.04806">
        <ele>131</ele>
        <time>2011-08-28T12:57:31Z</time>
      </trkpt>
      <trkpt lat="47.2162" lon="0.04814">
        <ele>131</ele>
        <time>2011-08-28T12:57:35Z</time>
      </trkpt>
      <trkpt lat="47.21619" lon="0.0482">
        <ele>131</ele>
        <time>2011-08-28T12:57:39Z</time>
      </trkpt>
      <trkpt lat="47.21618" lon="0.04828">
        <ele>132</ele>
        <time>2011-08-28T12:57:44Z</time>
      </trkpt>
      <trkpt lat="47.21617" lon="0.04835">
        <ele>132</ele>
        <time>2011-08-28T12:57:49Z</time>
      </trkpt>
      <trkpt lat="47.21616" lon="0.04843">
        <ele>132</ele>
        <time>2011-08-28T12:57:54Z</time>
      </trkpt>
      <trkpt lat="47.21615" lon="0.04851">
        <ele>132</ele>
        <time>2011-08-28T12:57:59Z</time>
      </trkpt>
      <trkpt lat="47.21614" lon="0.04858">
        <ele>132</ele>
        <time>2011-08-28T12:58:03Z</time>
      </trkpt>
      <trkpt lat="47.21613" lon="0.04865">
        <ele>132</ele>
        <time>2011-08-28T12:58:07Z</time>
      </trkpt>
      <trkpt lat="47.21611" lon="0.04872">
        <ele>132</ele>
        <time>2011-08-28T12:58:11Z</time>
      </trkpt>
      <trkpt lat="47.2161" lon="0.04879">
        <ele>132</ele>
        <time>2011-08-28T12:58:15Z</time>
      </trkpt>
      <trkpt lat="47.21608" lon="0.04885">
        <ele>132</ele>
        <time>2011-08-28T12:58:19Z</time>
      </trkpt>
      <trkpt lat="47.21608" lon="0.04894">
        <ele>132</ele>
        <time>2011-08-28T12:58:24Z</time>
      </trkpt>
      <trkpt lat="47.21606" lon="0.049">
        <ele>132</ele>
        <time>2011-08-28T12:58:28Z</time>
      </trkpt>
      <trkpt lat="47.21605" lon="0.04908">
        <ele>132</ele>
        <time>2011-08-28T12:58:33Z</time>
      </trkpt>
      <trkpt lat="47.21603" lon="0.04915">
        <ele>132</ele>
        <time>2011-08-28T12:58:38Z</time>
      </trkpt>
      <trkpt lat="47.216" lon="0.04922">
        <ele>132</ele>
        <time>2011-08-28T12:58:43Z</time>
      </trkpt>
      <trkpt lat="47.21591" lon="0.0494">
        <ele>116</ele>
        <time>2011-08-28T12:59:00Z</time>
      </trkpt>
      <trkpt lat="47.21591" lon="0.0494">
        <ele>116</ele>
        <time>2011-08-28T12:59:00Z</time>
      </trkpt>
      <trkpt lat="47.21591" lon="0.0494">
        <ele>116</ele>
        <time>2011-08-28T12:59:12Z</time>
      </trkpt>
      <trkpt lat="47.2159" lon="0.04954">
        <ele>119</ele>
        <time>2011-08-28T12:59:13Z</time>
      </trkpt>
      <trkpt lat="47.2159" lon="0.04954">
        <ele>119</ele>
        <time>2011-08-28T12:59:13Z</time>
      </trkpt>
      <trkpt lat="47.2159" lon="0.04954">
        <ele>119</ele>
        <time>2011-08-28T12:59:17Z</time>
      </trkpt>
      <trkpt lat="47.21588" lon="0.04967">
        <ele>119</ele>
        <time>2011-08-28T12:59:18Z</time>
      </trkpt>
      <trkpt lat="47.21588" lon="0.04967">
        <ele>119</ele>
        <time>2011-08-28T12:59:18Z</time>
      </trkpt>
      <trkpt lat="47.21588" lon="0.04967">
        <ele>119</ele>
        <time>2011-08-28T12:59:19Z</time>
      </trkpt>
      <trkpt lat="47.21586" lon="0.04974">
        <ele>118</ele>
        <time>2011-08-28T12:59:21Z</time>
      </trkpt>
      <trkpt lat="47.21585" lon="0.04981">
        <ele>118</ele>
        <time>2011-08-28T12:59:24Z</time>
      </trkpt>
      <trkpt lat="47.21583" lon="0.04987">
        <ele>117</ele>
        <time>2011-08-28T12:59:27Z</time>
      </trkpt>
      <trkpt lat="47.21581" lon="0.04995">
        <ele>117</ele>
        <time>2011-08-28T12:59:31Z</time>
      </trkpt>
      <trkpt lat="47.21578" lon="0.05002">
        <ele>117</ele>
        <time>2011-08-28T12:59:35Z</time>
      </trkpt>
      <trkpt lat="47.21577" lon="0.05009">
        <ele>117</ele>
        <time>2011-08-28T12:59:39Z</time>
      </trkpt>
      <trkpt lat="47.21575" lon="0.05017">
        <ele>117</ele>
        <time>2011-08-28T12:59:44Z</time>
      </trkpt>
      <trkpt lat="47.21573" lon="0.05024">
        <ele>117</ele>
        <time>2011-08-28T12:59:49Z</time>
      </trkpt>
      <trkpt lat="47.21571" lon="0.05031">
        <ele>117</ele>
        <time>2011-08-28T12:59:53Z</time>
      </trkpt>
      <trkpt lat="47.21568" lon="0.05038">
        <ele>117</ele>
        <time>2011-08-28T12:59:58Z</time>
      </trkpt>
      <trkpt lat="47.21566" lon="0.05044">
        <ele>117</ele>
        <time>2011-08-28T13:00:02Z</time>
      </trkpt>
      <trkpt lat="47.21564" lon="0.0505">
        <ele>117</ele>
        <time>2011-08-28T13:00:06Z</time>
      </trkpt>
      <trkpt lat="47.21562" lon="0.05057">
        <ele>117</ele>
        <time>2011-08-28T13:00:10Z</time>
      </trkpt>
      <trkpt lat="47.21559" lon="0.05063">
        <ele>117</ele>
        <time>2011-08-28T13:00:14Z</time>
      </trkpt>
      <trkpt lat="47.21557" lon="0.0507">
        <ele>117</ele>
        <time>2011-08-28T13:00:18Z</time>
      </trkpt>
      <trkpt lat="47.21555" lon="0.05076">
        <ele>117</ele>
        <time>2011-08-28T13:00:22Z</time>
      </trkpt>
      <trkpt lat="47.21553" lon="0.05082">
        <ele>117</ele>
        <time>2011-08-28T13:00:26Z</time>
      </trkpt>
      <trkpt lat="47.2155" lon="0.05088">
        <ele>117</ele>
        <time>2011-08-28T13:00:30Z</time>
      </trkpt>
      <trkpt lat="47.21548" lon="0.05094">
        <ele>117</ele>
        <time>2011-08-28T13:00:34Z</time>
      </trkpt>
      <trkpt lat="47.21546" lon="0.05101">
        <ele>117</ele>
        <time>2011-08-28T13:00:39Z</time>
      </trkpt>
      <trkpt lat="47.21542" lon="0.05108">
        <ele>117</ele>
        <time>2011-08-28T13:00:44Z</time>
      </trkpt>
      <trkpt lat="47.21539" lon="0.05114">
        <ele>117</ele>
        <time>2011-08-28T13:00:49Z</time>
      </trkpt>
      <trkpt lat="47.21536" lon="0.0512">
        <ele>117</ele>
        <time>2011-08-28T13:00:54Z</time>
      </trkpt>
      <trkpt lat="47.21532" lon="0.05126">
        <ele>117</ele>
        <time>2011-08-28T13:00:59Z</time>
      </trkpt>
      <trkpt lat="47.21529" lon="0.05132">
        <ele>116</ele>
        <time>2011-08-28T13:01:04Z</time>
      </trkpt>
      <trkpt lat="47.21525" lon="0.05137">
        <ele>116</ele>
        <time>2011-08-28T13:01:08Z</time>
      </trkpt>
      <trkpt lat="47.21522" lon="0.05142">
        <ele>116</ele>
        <time>2011-08-28T13:01:12Z</time>
      </trkpt>
      <trkpt lat="47.21519" lon="0.05147">
        <ele>116</ele>
        <time>2011-08-28T13:01:16Z</time>
      </trkpt>
      <trkpt lat="47.21516" lon="0.05154">
        <ele>116</ele>
        <time>2011-08-28T13:01:21Z</time>
      </trkpt>
      <trkpt lat="47.21513" lon="0.0516">
        <ele>116</ele>
        <time>2011-08-28T13:01:26Z</time>
      </trkpt>
      <trkpt lat="47.21509" lon="0.05166">
        <ele>116</ele>
        <time>2011-08-28T13:01:31Z</time>
      </trkpt>
      <trkpt lat="47.21506" lon="0.05173">
        <ele>116</ele>
        <time>2011-08-28T13:01:36Z</time>
      </trkpt>
      <trkpt lat="47.21503" lon="0.05179">
        <ele>116</ele>
        <time>2011-08-28T13:01:41Z</time>
      </trkpt>
      <trkpt lat="47.215" lon="0.05186">
        <ele>116</ele>
        <time>2011-08-28T13:01:46Z</time>
      </trkpt>
      <trkpt lat="47.21498" lon="0.05192">
        <ele>116</ele>
        <time>2011-08-28T13:01:50Z</time>
      </trkpt>
      <trkpt lat="47.21496" lon="0.05198">
        <ele>116</ele>
        <time>2011-08-28T13:01:54Z</time>
      </trkpt>
      <trkpt lat="47.21494" lon="0.05204">
        <ele>116</ele>
        <time>2011-08-28T13:01:58Z</time>
      </trkpt>
      <trkpt lat="47.21491" lon="0.0521">
        <ele>116</ele>
        <time>2011-08-28T13:02:03Z</time>
      </trkpt>
      <trkpt lat="47.21488" lon="0.05217">
        <ele>116</ele>
        <time>2011-08-28T13:02:08Z</time>
      </trkpt>
      <trkpt lat="47.21485" lon="0.05223">
        <ele>116</ele>
        <time>2011-08-28T13:02:12Z</time>
      </trkpt>
      <trkpt lat="47.21482" lon="0.05229">
        <ele>116</ele>
        <time>2011-08-28T13:02:16Z</time>
      </trkpt>
      <trkpt lat="47.2148" lon="0.05236">
        <ele>116</ele>
        <time>2011-08-28T13:02:20Z</time>
      </trkpt>
      <trkpt lat="47.21477" lon="0.05241">
        <ele>116</ele>
        <time>2011-08-28T13:02:24Z</time>
      </trkpt>
      <trkpt lat="47.21476" lon="0.05248">
        <ele>116</ele>
        <time>2011-08-28T13:02:27Z</time>
      </trkpt>
      <trkpt lat="47.21476" lon="0.05255">
        <ele>116</ele>
        <time>2011-08-28T13:02:29Z</time>
      </trkpt>
      <trkpt lat="47.21477" lon="0.05263">
        <ele>116</ele>
        <time>2011-08-28T13:02:32Z</time>
      </trkpt>
      <trkpt lat="47.21479" lon="0.05271">
        <ele>115</ele>
        <time>2011-08-28T13:02:36Z</time>
      </trkpt>
      <trkpt lat="47.21482" lon="0.05277">
        <ele>115</ele>
        <time>2011-08-28T13:02:41Z</time>
      </trkpt>
      <trkpt lat="47.21486" lon="0.05281">
        <ele>115</ele>
        <time>2011-08-28T13:02:46Z</time>
      </trkpt>
      <trkpt lat="47.2149" lon="0.05283">
        <ele>114</ele>
        <time>2011-08-28T13:02:53Z</time>
      </trkpt>
      <trkpt lat="47.21494" lon="0.05286">
        <ele>114</ele>
        <time>2011-08-28T13:02:58Z</time>
      </trkpt>
      <trkpt lat="47.21498" lon="0.0529">
        <ele>113</ele>
        <time>2011-08-28T13:03:03Z</time>
      </trkpt>
      <trkpt lat="47.21503" lon="0.05295">
        <ele>113</ele>
        <time>2011-08-28T13:03:08Z</time>
      </trkpt>
      <trkpt lat="47.21507" lon="0.05299">
        <ele>113</ele>
        <time>2011-08-28T13:03:12Z</time>
      </trkpt>
      <trkpt lat="47.2151" lon="0.05303">
        <ele>113</ele>
        <time>2011-08-28T13:03:16Z</time>
      </trkpt>
      <trkpt lat="47.21513" lon="0.05308">
        <ele>113</ele>
        <time>2011-08-28T13:03:21Z</time>
      </trkpt>
      <trkpt lat="47.21517" lon="0.05311">
        <ele>113</ele>
        <time>2011-08-28T13:03:26Z</time>
      </trkpt>
      <trkpt lat="47.21521" lon="0.05314">
        <ele>112</ele>
        <time>2011-08-28T13:03:31Z</time>
      </trkpt>
      <trkpt lat="47.21525" lon="0.05318">
        <ele>112</ele>
        <time>2011-08-28T13:03:36Z</time>
      </trkpt>
      <trkpt lat="47.21529" lon="0.05322">
        <ele>112</ele>
        <time>2011-08-28T13:03:41Z</time>
      </trkpt>
      <trkpt lat="47.21532" lon="0.05326">
        <ele>112</ele>
        <time>2011-08-28T13:03:46Z</time>
      </trkpt>
      <trkpt lat="47.21534" lon="0.05332">
        <ele>111</ele>
        <time>2011-08-28T13:03:59Z</time>
      </trkpt>
      <trkpt lat="47.21534" lon="0.05339">
        <ele>111</ele>
        <time>2011-08-28T13:04:07Z</time>
      </trkpt>
      <trkpt lat="47.21535" lon="0.05345">
        <ele>111</ele>
        <time>2011-08-28T13:04:14Z</time>
      </trkpt>
      <trkpt lat="47.21537" lon="0.05339">
        <ele>111</ele>
        <time>2011-08-28T13:04:34Z</time>
      </trkpt>
      <trkpt lat="47.2154" lon="0.05333">
        <ele>111</ele>
        <time>2011-08-28T13:04:44Z</time>
      </trkpt>
      <trkpt lat="47.21541" lon="0.0534">
        <ele>110</ele>
        <time>2011-08-28T13:05:30Z</time>
      </trkpt>
      <trkpt lat="47.2154" lon="0.05347">
        <ele>110</ele>
        <time>2011-08-28T13:05:36Z</time>
      </trkpt>
      <trkpt lat="47.21536" lon="0.05354">
        <ele>110</ele>
        <time>2011-08-28T13:05:41Z</time>
      </trkpt>
      <trkpt lat="47.21532" lon="0.05359">
        <ele>110</ele>
        <time>2011-08-28T13:05:43Z</time>
      </trkpt>
      <trkpt lat="47.21529" lon="0.05365">
        <ele>110</ele>
        <time>2011-08-28T13:05:45Z</time>
      </trkpt>
      <trkpt lat="47.21528" lon="0.05372">
        <ele>110</ele>
        <time>2011-08-28T13:05:47Z</time>
      </trkpt>
      <trkpt lat="47.21529" lon="0.05379">
        <ele>110</ele>
        <time>2011-08-28T13:05:50Z</time>
      </trkpt>
      <trkpt lat="47.21529" lon="0.05386">
        <ele>109</ele>
        <time>2011-08-28T13:05:57Z</time>
      </trkpt>
      <trkpt lat="47.21529" lon="0.05393">
        <ele>109</ele>
        <time>2011-08-28T13:06:18Z</time>
      </trkpt>
      <trkpt lat="47.21531" lon="0.05399">
        <ele>108</ele>
        <time>2011-08-28T13:06:31Z</time>
      </trkpt>
      <trkpt lat="47.21529" lon="0.05393">
        <ele>108</ele>
        <time>2011-08-28T13:06:49Z</time>
      </trkpt>
      <trkpt lat="47.21527" lon="0.05387">
        <ele>107</ele>
        <time>2011-08-28T13:06:59Z</time>
      </trkpt>
      <trkpt lat="47.21523" lon="0.05384">
        <ele>104</ele>
        <time>2011-08-28T13:08:09Z</time>
      </trkpt>
      <trkpt lat="47.21518" lon="0.05384">
        <ele>103</ele>
        <time>2011-08-28T13:08:35Z</time>
      </trkpt>
      <trkpt lat="47.21515" lon="0.05389">
        <ele>103</ele>
        <time>2011-08-28T13:08:45Z</time>
      </trkpt>
      <trkpt lat="47.21512" lon="0.05395">
        <ele>103</ele>
        <time>2011-08-28T13:08:53Z</time>
      </trkpt>
      <trkpt lat="47.21517" lon="0.05395">
        <ele>102</ele>
        <time>2011-08-28T13:09:21Z</time>
      </trkpt>
      <trkpt lat="47.2152" lon="0.05391">
        <ele>102</ele>
        <time>2011-08-28T13:09:26Z</time>
      </trkpt>
      <trkpt lat="47.21519" lon="0.05398">
        <ele>99</ele>
        <time>2011-08-28T13:09:51Z</time>
      </trkpt>
      <trkpt lat="47.21521" lon="0.05404">
        <ele>98</ele>
        <time>2011-08-28T13:09:58Z</time>
      </trkpt>
      <trkpt lat="47.21523" lon="0.05411">
        <ele>98</ele>
        <time>2011-08-28T13:10:04Z</time>
      </trkpt>
      <trkpt lat="47.21524" lon="0.05418">
        <ele>98</ele>
        <time>2011-08-28T13:10:12Z</time>
      </trkpt>
      <trkpt lat="47.21526" lon="0.05425">
        <ele>98</ele>
        <time>2011-08-28T13:10:17Z</time>
      </trkpt>
      <trkpt lat="47.21529" lon="0.05431">
        <ele>98</ele>
        <time>2011-08-28T13:10:22Z</time>
      </trkpt>
      <trkpt lat="47.21532" lon="0.05436">
        <ele>98</ele>
        <time>2011-08-28T13:10:27Z</time>
      </trkpt>
      <trkpt lat="47.21536" lon="0.05442">
        <ele>99</ele>
        <time>2011-08-28T13:10:32Z</time>
      </trkpt>
      <trkpt lat="47.21539" lon="0.05448">
        <ele>99</ele>
        <time>2011-08-28T13:10:37Z</time>
      </trkpt>
      <trkpt lat="47.21542" lon="0.05454">
        <ele>99</ele>
        <time>2011-08-28T13:10:43Z</time>
      </trkpt>
      <trkpt lat="47.21544" lon="0.05459">
        <ele>100</ele>
        <time>2011-08-28T13:10:48Z</time>
      </trkpt>
      <trkpt lat="47.21548" lon="0.05465">
        <ele>100</ele>
        <time>2011-08-28T13:10:54Z</time>
      </trkpt>
      <trkpt lat="47.21551" lon="0.0547">
        <ele>100</ele>
        <time>2011-08-28T13:10:59Z</time>
      </trkpt>
      <trkpt lat="47.21555" lon="0.05475">
        <ele>100</ele>
        <time>2011-08-28T13:11:03Z</time>
      </trkpt>
      <trkpt lat="47.2156" lon="0.05478">
        <ele>101</ele>
        <time>2011-08-28T13:11:07Z</time>
      </trkpt>
      <trkpt lat="47.21565" lon="0.0548">
        <ele>101</ele>
        <time>2011-08-28T13:11:11Z</time>
      </trkpt>
      <trkpt lat="47.21571" lon="0.05481">
        <ele>101</ele>
        <time>2011-08-28T13:11:15Z</time>
      </trkpt>
      <trkpt lat="47.21575" lon="0.05483">
        <ele>101</ele>
        <time>2011-08-28T13:11:18Z</time>
      </trkpt>
      <trkpt lat="47.2158" lon="0.05484">
        <ele>101</ele>
        <time>2011-08-28T13:11:21Z</time>
      </trkpt>
      <trkpt lat="47.21584" lon="0.05486">
        <ele>101</ele>
        <time>2011-08-28T13:11:24Z</time>
      </trkpt>
      <trkpt lat="47.21588" lon="0.0549">
        <ele>101</ele>
        <time>2011-08-28T13:11:26Z</time>
      </trkpt>
      <trkpt lat="47.21592" lon="0.05494">
        <ele>101</ele>
        <time>2011-08-28T13:11:28Z</time>
      </trkpt>
      <trkpt lat="47.21597" lon="0.05499">
        <ele>100</ele>
        <time>2011-08-28T13:11:31Z</time>
      </trkpt>
      <trkpt lat="47.21602" lon="0.05501">
        <ele>100</ele>
        <time>2011-08-28T13:11:34Z</time>
      </trkpt>
      <trkpt lat="47.21607" lon="0.05501">
        <ele>100</ele>
        <time>2011-08-28T13:11:38Z</time>
      </trkpt>
      <trkpt lat="47.21611" lon="0.05502">
        <ele>100</ele>
        <time>2011-08-28T13:11:44Z</time>
      </trkpt>
      <trkpt lat="47.21613" lon="0.05509">
        <ele>100</ele>
        <time>2011-08-28T13:11:53Z</time>
      </trkpt>
      <trkpt lat="47.21612" lon="0.05516">
        <ele>100</ele>
        <time>2011-08-28T13:11:59Z</time>
      </trkpt>
      <trkpt lat="47.21609" lon="0.05523">
        <ele>100</ele>
        <time>2011-08-28T13:12:03Z</time>
      </trkpt>
      <trkpt lat="47.21607" lon="0.0553">
        <ele>100</ele>
        <time>2011-08-28T13:12:07Z</time>
      </trkpt>
      <trkpt lat="47.21605" lon="0.05537">
        <ele>100</ele>
        <time>2011-08-28T13:12:11Z</time>
      </trkpt>
      <trkpt lat="47.21604" lon="0.05544">
        <ele>100</ele>
        <time>2011-08-28T13:12:15Z</time>
      </trkpt>
      <trkpt lat="47.21602" lon="0.05551">
        <ele>100</ele>
        <time>2011-08-28T13:12:18Z</time>
      </trkpt>
      <trkpt lat="47.21601" lon="0.05559">
        <ele>100</ele>
        <time>2011-08-28T13:12:22Z</time>
      </trkpt>
      <trkpt lat="47.216" lon="0.05567">
        <ele>100</ele>
        <time>2011-08-28T13:12:26Z</time>
      </trkpt>
      <trkpt lat="47.21601" lon="0.05574">
        <ele>100</ele>
        <time>2011-08-28T13:12:30Z</time>
      </trkpt>
      <trkpt lat="47.21601" lon="0.05582">
        <ele>100</ele>
        <time>2011-08-28T13:12:34Z</time>
      </trkpt>
      <trkpt lat="47.21602" lon="0.05588">
        <ele>100</ele>
        <time>2011-08-28T13:12:38Z</time>
      </trkpt>
      <trkpt lat="47.21601" lon="0.05596">
        <ele>100</ele>
        <time>2011-08-28T13:12:43Z</time>
      </trkpt>
      <trkpt lat="47.21601" lon="0.05604">
        <ele>100</ele>
        <time>2011-08-28T13:12:48Z</time>
      </trkpt>
      <trkpt lat="47.21602" lon="0.05612">
        <ele>100</ele>
        <time>2011-08-28T13:12:53Z</time>
      </trkpt>
      <trkpt lat="47.21602" lon="0.0562">
        <ele>100</ele>
        <time>2011-08-28T13:12:58Z</time>
      </trkpt>
      <trkpt lat="47.21602" lon="0.05627">
        <ele>100</ele>
        <time>2011-08-28T13:13:02Z</time>
      </trkpt>
      <trkpt lat="47.21603" lon="0.05634">
        <ele>100</ele>
        <time>2011-08-28T13:13:06Z</time>
      </trkpt>
      <trkpt lat="47.21603" lon="0.05642">
        <ele>100</ele>
        <time>2011-08-28T13:13:11Z</time>
      </trkpt>
      <trkpt lat="47.216" lon="0.05648">
        <ele>100</ele>
        <time>2011-08-28T13:13:16Z</time>
      </trkpt>
      <trkpt lat="47.21598" lon="0.05654">
        <ele>100</ele>
        <time>2011-08-28T13:13:22Z</time>
      </trkpt>
      <trkpt lat="47.21599" lon="0.05661">
        <ele>100</ele>
        <time>2011-08-28T13:13:32Z</time>
      </trkpt>
      <trkpt lat="47.21603" lon="0.05665">
        <ele>100</ele>
        <time>2011-08-28T13:13:39Z</time>
      </trkpt>
      <trkpt lat="47.21608" lon="0.05664">
        <ele>100</ele>
        <time>2011-08-28T13:13:46Z</time>
      </trkpt>
      <trkpt lat="47.2161" lon="0.0567">
        <ele>97</ele>
        <time>2011-08-28T13:14:13Z</time>
      </trkpt>
      <trkpt lat="47.21611" lon="0.05677">
        <ele>97</ele>
        <time>2011-08-28T13:14:20Z</time>
      </trkpt>
      <trkpt lat="47.21612" lon="0.05685">
        <ele>97</ele>
        <time>2011-08-28T13:14:27Z</time>
      </trkpt>
      <trkpt lat="47.21612" lon="0.05691">
        <ele>97</ele>
        <time>2011-08-28T13:14:33Z</time>
      </trkpt>
      <trkpt lat="47.21612" lon="0.05699">
        <ele>97</ele>
        <time>2011-08-28T13:14:39Z</time>
      </trkpt>
      <trkpt lat="47.21612" lon="0.05705">
        <ele>97</ele>
        <time>2011-08-28T13:14:44Z</time>
      </trkpt>
      <trkpt lat="47.21613" lon="0.05712">
        <ele>97</ele>
        <time>2011-08-28T13:14:49Z</time>
      </trkpt>
      <trkpt lat="47.21615" lon="0.05719">
        <ele>97</ele>
        <time>2011-08-28T13:14:56Z</time>
      </trkpt>
      <trkpt lat="47.21616" lon="0.05726">
        <ele>97</ele>
        <time>2011-08-28T13:15:02Z</time>
      </trkpt>
      <trkpt lat="47.21617" lon="0.05733">
        <ele>97</ele>
        <time>2011-08-28T13:15:08Z</time>
      </trkpt>
      <trkpt lat="47.21614" lon="0.05739">
        <ele>98</ele>
        <time>2011-08-28T13:15:19Z</time>
      </trkpt>
      <trkpt lat="47.21609" lon="0.0574">
        <ele>98</ele>
        <time>2011-08-28T13:15:27Z</time>
      </trkpt>
      <trkpt lat="47.21604" lon="0.05741">
        <ele>98</ele>
        <time>2011-08-28T13:15:32Z</time>
      </trkpt>
      <trkpt lat="47.216" lon="0.05743">
        <ele>98</ele>
        <time>2011-08-28T13:15:35Z</time>
      </trkpt>
      <trkpt lat="47.21594" lon="0.05746">
        <ele>98</ele>
        <time>2011-08-28T13:15:38Z</time>
      </trkpt>
      <trkpt lat="47.21588" lon="0.05748">
        <ele>98</ele>
        <time>2011-08-28T13:15:41Z</time>
      </trkpt>
      <trkpt lat="47.21582" lon="0.0575">
        <ele>98</ele>
        <time>2011-08-28T13:15:44Z</time>
      </trkpt>
      <trkpt lat="47.21575" lon="0.05751">
        <ele>99</ele>
        <time>2011-08-28T13:15:47Z</time>
      </trkpt>
      <trkpt lat="47.2157" lon="0.05752">
        <ele>99</ele>
        <time>2011-08-28T13:15:50Z</time>
      </trkpt>
      <trkpt lat="47.21564" lon="0.05754">
        <ele>99</ele>
        <time>2011-08-28T13:15:53Z</time>
      </trkpt>
      <trkpt lat="47.2156" lon="0.05756">
        <ele>99</ele>
        <time>2011-08-28T13:15:56Z</time>
      </trkpt>
      <trkpt lat="47.21555" lon="0.05758">
        <ele>99</ele>
        <time>2011-08-28T13:15:59Z</time>
      </trkpt>
      <trkpt lat="47.2155" lon="0.0576">
        <ele>100</ele>
        <time>2011-08-28T13:16:02Z</time>
      </trkpt>
      <trkpt lat="47.21546" lon="0.0576">
        <ele>100</ele>
        <time>2011-08-28T13:16:05Z</time>
      </trkpt>
      <trkpt lat="47.21541" lon="0.05758">
        <ele>100</ele>
        <time>2011-08-28T13:16:08Z</time>
      </trkpt>
      <trkpt lat="47.21534" lon="0.05755">
        <ele>100</ele>
        <time>2011-08-28T13:16:11Z</time>
      </trkpt>
      <trkpt lat="47.21528" lon="0.05752">
        <ele>100</ele>
        <time>2011-08-28T13:16:14Z</time>
      </trkpt>
      <trkpt lat="47.21523" lon="0.05748">
        <ele>101</ele>
        <time>2011-08-28T13:16:17Z</time>
      </trkpt>
      <trkpt lat="47.21518" lon="0.05746">
        <ele>101</ele>
        <time>2011-08-28T13:16:20Z</time>
      </trkpt>
      <trkpt lat="47.21512" lon="0.05743">
        <ele>101</ele>
        <time>2011-08-28T13:16:24Z</time>
      </trkpt>
      <trkpt lat="47.21507" lon="0.05739">
        <ele>101</ele>
        <time>2011-08-28T13:16:28Z</time>
      </trkpt>
      <trkpt lat="47.21502" lon="0.05737">
        <ele>102</ele>
        <time>2011-08-28T13:16:32Z</time>
      </trkpt>
      <trkpt lat="47.21498" lon="0.05734">
        <ele>102</ele>
        <time>2011-08-28T13:16:44Z</time>
      </trkpt>
      <trkpt lat="47.21494" lon="0.0573">
        <ele>102</ele>
        <time>2011-08-28T13:16:48Z</time>
      </trkpt>
      <trkpt lat="47.21489" lon="0.05727">
        <ele>102</ele>
        <time>2011-08-28T13:16:52Z</time>
      </trkpt>
      <trkpt lat="47.21484" lon="0.05726">
        <ele>103</ele>
        <time>2011-08-28T13:17:00Z</time>
      </trkpt>
      <trkpt lat="47.21479" lon="0.05724">
        <ele>103</ele>
        <time>2011-08-28T13:17:06Z</time>
      </trkpt>
      <trkpt lat="47.21474" lon="0.05723">
        <ele>103</ele>
        <time>2011-08-28T13:17:12Z</time>
      </trkpt>
      <trkpt lat="47.21471" lon="0.05718">
        <ele>103</ele>
        <time>2011-08-28T13:17:18Z</time>
      </trkpt>
      <trkpt lat="47.21467" lon="0.05715">
        <ele>103</ele>
        <time>2011-08-28T13:17:22Z</time>
      </trkpt>
      <trkpt lat="47.21463" lon="0.05711">
        <ele>104</ele>
        <time>2011-08-28T13:17:26Z</time>
      </trkpt>
      <trkpt lat="47.21459" lon="0.05706">
        <ele>104</ele>
        <time>2011-08-28T13:17:30Z</time>
      </trkpt>
      <trkpt lat="47.21455" lon="0.05702">
        <ele>104</ele>
        <time>2011-08-28T13:17:35Z</time>
      </trkpt>
      <trkpt lat="47.21452" lon="0.05697">
        <ele>104</ele>
        <time>2011-08-28T13:17:39Z</time>
      </trkpt>
      <trkpt lat="47.21449" lon="0.05691">
        <ele>104</ele>
        <time>2011-08-28T13:17:43Z</time>
      </trkpt>
      <trkpt lat="47.21446" lon="0.05686">
        <ele>104</ele>
        <time>2011-08-28T13:17:47Z</time>
      </trkpt>
      <trkpt lat="47.21443" lon="0.0568">
        <ele>105</ele>
        <time>2011-08-28T13:17:52Z</time>
      </trkpt>
      <trkpt lat="47.2144" lon="0.05675">
        <ele>105</ele>
        <time>2011-08-28T13:17:57Z</time>
      </trkpt>
      <trkpt lat="47.21437" lon="0.05669">
        <ele>105</ele>
        <time>2011-08-28T13:18:01Z</time>
      </trkpt>
      <trkpt lat="47.21434" lon="0.05664">
        <ele>105</ele>
        <time>2011-08-28T13:18:05Z</time>
      </trkpt>
      <trkpt lat="47.2143" lon="0.05658">
        <ele>105</ele>
        <time>2011-08-28T13:18:09Z</time>
      </trkpt>
      <trkpt lat="47.21427" lon="0.05652">
        <ele>105</ele>
        <time>2011-08-28T13:18:13Z</time>
      </trkpt>
      <trkpt lat="47.21423" lon="0.05647">
        <ele>106</ele>
        <time>2011-08-28T13:18:17Z</time>
      </trkpt>
      <trkpt lat="47.2142" lon="0.05642">
        <ele>106</ele>
        <time>2011-08-28T13:18:21Z</time>
      </trkpt>
      <trkpt lat="47.21415" lon="0.05638">
        <ele>106</ele>
        <time>2011-08-28T13:18:25Z</time>
      </trkpt>
      <trkpt lat="47.21411" lon="0.05634">
        <ele>106</ele>
        <time>2011-08-28T13:18:29Z</time>
      </trkpt>
      <trkpt lat="47.21406" lon="0.05631">
        <ele>106</ele>
        <time>2011-08-28T13:18:33Z</time>
      </trkpt>
      <trkpt lat="47.21402" lon="0.05627">
        <ele>106</ele>
        <time>2011-08-28T13:18:37Z</time>
      </trkpt>
      <trkpt lat="47.21397" lon="0.05623">
        <ele>107</ele>
        <time>2011-08-28T13:18:41Z</time>
      </trkpt>
      <trkpt lat="47.21393" lon="0.05619">
        <ele>107</ele>
        <time>2011-08-28T13:18:45Z</time>
      </trkpt>
      <trkpt lat="47.21388" lon="0.05615">
        <ele>107</ele>
        <time>2011-08-28T13:18:49Z</time>
      </trkpt>
      <trkpt lat="47.21384" lon="0.05611">
        <ele>107</ele>
        <time>2011-08-28T13:18:53Z</time>
      </trkpt>
      <trkpt lat="47.21379" lon="0.05608">
        <ele>107</ele>
        <time>2011-08-28T13:18:57Z</time>
      </trkpt>
      <trkpt lat="47.21375" lon="0.05604">
        <ele>107</ele>
        <time>2011-08-28T13:19:01Z</time>
      </trkpt>
      <trkpt lat="47.2137" lon="0.056">
        <ele>107</ele>
        <time>2011-08-28T13:19:05Z</time>
      </trkpt>
      <trkpt lat="47.21366" lon="0.05597">
        <ele>107</ele>
        <time>2011-08-28T13:19:09Z</time>
      </trkpt>
      <trkpt lat="47.21361" lon="0.05594">
        <ele>108</ele>
        <time>2011-08-28T13:19:13Z</time>
      </trkpt>
      <trkpt lat="47.21357" lon="0.0559">
        <ele>108</ele>
        <time>2011-08-28T13:19:17Z</time>
      </trkpt>
      <trkpt lat="47.21352" lon="0.05588">
        <ele>108</ele>
        <time>2011-08-28T13:19:21Z</time>
      </trkpt>
      <trkpt lat="47.21346" lon="0.05587">
        <ele>108</ele>
        <time>2011-08-28T13:19:25Z</time>
      </trkpt>
      <trkpt lat="47.21341" lon="0.05587">
        <ele>108</ele>
        <time>2011-08-28T13:19:29Z</time>
      </trkpt>
      <trkpt lat="47.21336" lon="0.05586">
        <ele>108</ele>
        <time>2011-08-28T13:19:33Z</time>
      </trkpt>
      <trkpt lat="47.21332" lon="0.05584">
        <ele>108</ele>
        <time>2011-08-28T13:19:37Z</time>
      </trkpt>
      <trkpt lat="47.21328" lon="0.0558">
        <ele>108</ele>
        <time>2011-08-28T13:19:41Z</time>
      </trkpt>
      <trkpt lat="47.21324" lon="0.05576">
        <ele>109</ele>
        <time>2011-08-28T13:19:45Z</time>
      </trkpt>
      <trkpt lat="47.21321" lon="0.05571">
        <ele>109</ele>
        <time>2011-08-28T13:19:49Z</time>
      </trkpt>
      <trkpt lat="47.21317" lon="0.05565">
        <ele>109</ele>
        <time>2011-08-28T13:19:53Z</time>
      </trkpt>
      <trkpt lat="47.21313" lon="0.0556">
        <ele>109</ele>
        <time>2011-08-28T13:19:57Z</time>
      </trkpt>
      <trkpt lat="47.2131" lon="0.05555">
        <ele>109</ele>
        <time>2011-08-28T13:20:01Z</time>
      </trkpt>
      <trkpt lat="47.21306" lon="0.0555">
        <ele>109</ele>
        <time>2011-08-28T13:20:05Z</time>
      </trkpt>
      <trkpt lat="47.21302" lon="0.05546">
        <ele>110</ele>
        <time>2011-08-28T13:20:16Z</time>
      </trkpt>
      <trkpt lat="47.21298" lon="0.05542">
        <ele>110</ele>
        <time>2011-08-28T13:20:20Z</time>
      </trkpt>
      <trkpt lat="47.21294" lon="0.05539">
        <ele>110</ele>
        <time>2011-08-28T13:20:24Z</time>
      </trkpt>
      <trkpt lat="47.2129" lon="0.05536">
        <ele>110</ele>
        <time>2011-08-28T13:20:28Z</time>
      </trkpt>
      <trkpt lat="47.21285" lon="0.05534">
        <ele>110</ele>
        <time>2011-08-28T13:20:32Z</time>
      </trkpt>
      <trkpt lat="47.2128" lon="0.05532">
        <ele>110</ele>
        <time>2011-08-28T13:20:37Z</time>
      </trkpt>
      <trkpt lat="47.21275" lon="0.0553">
        <ele>110</ele>
        <time>2011-08-28T13:20:41Z</time>
      </trkpt>
      <trkpt lat="47.21271" lon="0.05529">
        <ele>110</ele>
        <time>2011-08-28T13:20:45Z</time>
      </trkpt>
      <trkpt lat="47.21266" lon="0.05528">
        <ele>110</ele>
        <time>2011-08-28T13:20:49Z</time>
      </trkpt>
      <trkpt lat="47.21261" lon="0.05527">
        <ele>110</ele>
        <time>2011-08-28T13:20:53Z</time>
      </trkpt>
      <trkpt lat="47.21257" lon="0.05526">
        <ele>110</ele>
        <time>2011-08-28T13:20:57Z</time>
      </trkpt>
      <trkpt lat="47.21252" lon="0.05525">
        <ele>111</ele>
        <time>2011-08-28T13:21:01Z</time>
      </trkpt>
      <trkpt lat="47.21247" lon="0.05524">
        <ele>111</ele>
        <time>2011-08-28T13:21:05Z</time>
      </trkpt>
      <trkpt lat="47.21243" lon="0.05522">
        <ele>111</ele>
        <time>2011-08-28T13:21:09Z</time>
      </trkpt>
      <trkpt lat="47.21237" lon="0.0552">
        <ele>111</ele>
        <time>2011-08-28T13:21:14Z</time>
      </trkpt>
      <trkpt lat="47.21232" lon="0.05517">
        <ele>111</ele>
        <time>2011-08-28T13:21:19Z</time>
      </trkpt>
      <trkpt lat="47.21228" lon="0.05512">
        <ele>111</ele>
        <time>2011-08-28T13:21:24Z</time>
      </trkpt>
      <trkpt lat="47.21224" lon="0.05506">
        <ele>111</ele>
        <time>2011-08-28T13:21:28Z</time>
      </trkpt>
      <trkpt lat="47.2122" lon="0.05501">
        <ele>111</ele>
        <time>2011-08-28T13:21:33Z</time>
      </trkpt>
      <trkpt lat="47.21216" lon="0.05499">
        <ele>111</ele>
        <time>2011-08-28T13:21:38Z</time>
      </trkpt>
      <trkpt lat="47.2121" lon="0.05501">
        <ele>111</ele>
        <time>2011-08-28T13:21:43Z</time>
      </trkpt>
      <trkpt lat="47.21206" lon="0.05507">
        <ele>111</ele>
        <time>2011-08-28T13:21:47Z</time>
      </trkpt>
      <trkpt lat="47.21202" lon="0.05512">
        <ele>111</ele>
        <time>2011-08-28T13:21:51Z</time>
      </trkpt>
      <trkpt lat="47.21198" lon="0.05517">
        <ele>111</ele>
        <time>2011-08-28T13:21:55Z</time>
      </trkpt>
      <trkpt lat="47.21195" lon="0.05524">
        <ele>111</ele>
        <time>2011-08-28T13:21:59Z</time>
      </trkpt>
      <trkpt lat="47.21192" lon="0.05531">
        <ele>111</ele>
        <time>2011-08-28T13:22:03Z</time>
      </trkpt>
      <trkpt lat="47.21189" lon="0.05537">
        <ele>111</ele>
        <time>2011-08-28T13:22:07Z</time>
      </trkpt>
      <trkpt lat="47.21186" lon="0.05543">
        <ele>111</ele>
        <time>2011-08-28T13:22:11Z</time>
      </trkpt>
      <trkpt lat="47.21183" lon="0.05549">
        <ele>111</ele>
        <time>2011-08-28T13:22:15Z</time>
      </trkpt>
      <trkpt lat="47.2118" lon="0.05555">
        <ele>112</ele>
        <time>2011-08-28T13:22:19Z</time>
      </trkpt>
      <trkpt lat="47.21177" lon="0.0556">
        <ele>112</ele>
        <time>2011-08-28T13:22:23Z</time>
      </trkpt>
      <trkpt lat="47.21173" lon="0.05566">
        <ele>112</ele>
        <time>2011-08-28T13:22:27Z</time>
      </trkpt>
      <trkpt lat="47.2117" lon="0.05572">
        <ele>112</ele>
        <time>2011-08-28T13:22:31Z</time>
      </trkpt>
      <trkpt lat="47.21168" lon="0.05578">
        <ele>112</ele>
        <time>2011-08-28T13:22:35Z</time>
      </trkpt>
      <trkpt lat="47.21164" lon="0.05584">
        <ele>112</ele>
        <time>2011-08-28T13:22:39Z</time>
      </trkpt>
      <trkpt lat="47.2116" lon="0.05588">
        <ele>112</ele>
        <time>2011-08-28T13:22:43Z</time>
      </trkpt>
      <trkpt lat="47.21157" lon="0.05592">
        <ele>112</ele>
        <time>2011-08-28T13:22:47Z</time>
      </trkpt>
      <trkpt lat="47.21154" lon="0.05599">
        <ele>112</ele>
        <time>2011-08-28T13:22:52Z</time>
      </trkpt>
      <trkpt lat="47.21152" lon="0.05605">
        <ele>112</ele>
        <time>2011-08-28T13:22:56Z</time>
      </trkpt>
      <trkpt lat="47.2115" lon="0.05611">
        <ele>112</ele>
        <time>2011-08-28T13:23:00Z</time>
      </trkpt>
      <trkpt lat="47.21147" lon="0.05618">
        <ele>112</ele>
        <time>2011-08-28T13:23:04Z</time>
      </trkpt>
      <trkpt lat="47.21144" lon="0.05624">
        <ele>112</ele>
        <time>2011-08-28T13:23:08Z</time>
      </trkpt>
      <trkpt lat="47.21141" lon="0.0563">
        <ele>112</ele>
        <time>2011-08-28T13:23:12Z</time>
      </trkpt>
      <trkpt lat="47.21138" lon="0.05636">
        <ele>112</ele>
        <time>2011-08-28T13:23:16Z</time>
      </trkpt>
      <trkpt lat="47.21135" lon="0.05642">
        <ele>113</ele>
        <time>2011-08-28T13:23:20Z</time>
      </trkpt>
      <trkpt lat="47.21132" lon="0.05648">
        <ele>113</ele>
        <time>2011-08-28T13:23:24Z</time>
      </trkpt>
      <trkpt lat="47.21128" lon="0.05654">
        <ele>113</ele>
        <time>2011-08-28T13:23:28Z</time>
      </trkpt>
      <trkpt lat="47.21125" lon="0.0566">
        <ele>113</ele>
        <time>2011-08-28T13:23:32Z</time>
      </trkpt>
      <trkpt lat="47.21121" lon="0.05666">
        <ele>113</ele>
        <time>2011-08-28T13:23:36Z</time>
      </trkpt>
      <trkpt lat="47.21117" lon="0.05672">
        <ele>113</ele>
        <time>2011-08-28T13:23:40Z</time>
      </trkpt>
      <trkpt lat="47.21114" lon="0.05677">
        <ele>113</ele>
        <time>2011-08-28T13:23:44Z</time>
      </trkpt>
      <trkpt lat="47.2111" lon="0.05683">
        <ele>113</ele>
        <time>2011-08-28T13:23:48Z</time>
      </trkpt>
      <trkpt lat="47.21106" lon="0.05688">
        <ele>114</ele>
        <time>2011-08-28T13:23:52Z</time>
      </trkpt>
      <trkpt lat="47.21102" lon="0.05694">
        <ele>114</ele>
        <time>2011-08-28T13:23:56Z</time>
      </trkpt>
      <trkpt lat="47.21097" lon="0.05699">
        <ele>114</ele>
        <time>2011-08-28T13:24:00Z</time>
      </trkpt>
      <trkpt lat="47.21093" lon="0.05705">
        <ele>114</ele>
        <time>2011-08-28T13:24:04Z</time>
      </trkpt>
      <trkpt lat="47.2109" lon="0.05712">
        <ele>114</ele>
        <time>2011-08-28T13:24:08Z</time>
      </trkpt>
      <trkpt lat="47.21095" lon="0.05712">
        <ele>116</ele>
        <time>2011-08-28T13:25:12Z</time>
      </trkpt>
      <trkpt lat="47.21099" lon="0.05715">
        <ele>117</ele>
        <time>2011-08-28T13:25:22Z</time>
      </trkpt>
      <trkpt lat="47.21104" lon="0.05717">
        <ele>117</ele>
        <time>2011-08-28T13:25:31Z</time>
      </trkpt>
      <trkpt lat="47.21108" lon="0.05718">
        <ele>118</ele>
        <time>2011-08-28T13:25:37Z</time>
      </trkpt>
      <trkpt lat="47.21113" lon="0.05719">
        <ele>118</ele>
        <time>2011-08-28T13:25:43Z</time>
      </trkpt>
      <trkpt lat="47.21117" lon="0.05721">
        <ele>118</ele>
        <time>2011-08-28T13:25:49Z</time>
      </trkpt>
      <trkpt lat="47.21121" lon="0.05724">
        <ele>118</ele>
        <time>2011-08-28T13:26:02Z</time>
      </trkpt>
      <trkpt lat="47.2112" lon="0.05717">
        <ele>119</ele>
        <time>2011-08-28T13:29:15Z</time>
      </trkpt>
      <trkpt lat="47.21122" lon="0.05724">
        <ele>119</ele>
        <time>2011-08-28T13:29:52Z</time>
      </trkpt>
      <trkpt lat="47.21125" lon="0.05728">
        <ele>119</ele>
        <time>2011-08-28T13:30:06Z</time>
      </trkpt>
      <trkpt lat="47.21128" lon="0.05734">
        <ele>119</ele>
        <time>2011-08-28T13:30:42Z</time>
      </trkpt>
      <trkpt lat="47.21133" lon="0.05736">
        <ele>119</ele>
        <time>2011-08-28T13:30:47Z</time>
      </trkpt>
      <trkpt lat="47.21138" lon="0.05739">
        <ele>119</ele>
        <time>2011-08-28T13:30:53Z</time>
      </trkpt>
      <trkpt lat="47.21142" lon="0.05742">
        <ele>120</ele>
        <time>2011-08-28T13:30:59Z</time>
      </trkpt>
      <trkpt lat="47.21147" lon="0.05744">
        <ele>120</ele>
        <time>2011-08-28T13:31:05Z</time>
      </trkpt>
      <trkpt lat="47.21152" lon="0.05746">
        <ele>120</ele>
        <time>2011-08-28T13:31:10Z</time>
      </trkpt>
      <trkpt lat="47.21157" lon="0.05749">
        <ele>120</ele>
        <time>2011-08-28T13:31:15Z</time>
      </trkpt>
      <trkpt lat="47.21161" lon="0.05751">
        <ele>120</ele>
        <time>2011-08-28T13:31:19Z</time>
      </trkpt>
      <trkpt lat="47.21166" lon="0.05753">
        <ele>120</ele>
        <time>2011-08-28T13:31:23Z</time>
      </trkpt>
      <trkpt lat="47.2117" lon="0.05755">
        <ele>120</ele>
        <time>2011-08-28T13:31:27Z</time>
      </trkpt>
      <trkpt lat="47.21175" lon="0.05758">
        <ele>120</ele>
        <time>2011-08-28T13:31:31Z</time>
      </trkpt>
      <trkpt lat="47.21179" lon="0.05761">
        <ele>120</ele>
        <time>2011-08-28T13:31:35Z</time>
      </trkpt>
      <trkpt lat="47.21184" lon="0.05764">
        <ele>120</ele>
        <time>2011-08-28T13:31:39Z</time>
      </trkpt>
      <trkpt lat="47.21188" lon="0.05767">
        <ele>120</ele>
        <time>2011-08-28T13:31:43Z</time>
      </trkpt>
      <trkpt lat="47.21192" lon="0.05771">
        <ele>120</ele>
        <time>2011-08-28T13:31:47Z</time>
      </trkpt>
      <trkpt lat="47.21197" lon="0.05774">
        <ele>120</ele>
        <time>2011-08-28T13:31:51Z</time>
      </trkpt>
      <trkpt lat="47.21201" lon="0.05778">
        <ele>121</ele>
        <time>2011-08-28T13:31:55Z</time>
      </trkpt>
      <trkpt lat="47.21205" lon="0.05781">
        <ele>121</ele>
        <time>2011-08-28T13:31:59Z</time>
      </trkpt>
      <trkpt lat="47.21209" lon="0.05785">
        <ele>121</ele>
        <time>2011-08-28T13:32:03Z</time>
      </trkpt>
      <trkpt lat="47.21213" lon="0.05789">
        <ele>121</ele>
        <time>2011-08-28T13:32:07Z</time>
      </trkpt>
      <trkpt lat="47.21216" lon="0.05793">
        <ele>121</ele>
        <time>2011-08-28T13:32:11Z</time>
      </trkpt>
      <trkpt lat="47.2122" lon="0.05798">
        <ele>121</ele>
        <time>2011-08-28T13:32:15Z</time>
      </trkpt>
      <trkpt lat="47.21224" lon="0.05802">
        <ele>121</ele>
        <time>2011-08-28T13:32:19Z</time>
      </trkpt>
      <trkpt lat="47.21227" lon="0.05807">
        <ele>121</ele>
        <time>2011-08-28T13:32:23Z</time>
      </trkpt>
      <trkpt lat="47.2123" lon="0.05812">
        <ele>121</ele>
        <time>2011-08-28T13:32:27Z</time>
      </trkpt>
      <trkpt lat="47.21234" lon="0.05817">
        <ele>121</ele>
        <time>2011-08-28T13:32:31Z</time>
      </trkpt>
      <trkpt lat="47.21238" lon="0.05822">
        <ele>121</ele>
        <time>2011-08-28T13:32:35Z</time>
      </trkpt>
      <trkpt lat="47.21241" lon="0.05827">
        <ele>121</ele>
        <time>2011-08-28T13:32:39Z</time>
      </trkpt>
      <trkpt lat="47.21245" lon="0.05831">
        <ele>121</ele>
        <time>2011-08-28T13:32:43Z</time>
      </trkpt>
      <trkpt lat="47.21248" lon="0.05836">
        <ele>121</ele>
        <time>2011-08-28T13:32:47Z</time>
      </trkpt>
      <trkpt lat="47.21252" lon="0.0584">
        <ele>121</ele>
        <time>2011-08-28T13:32:51Z</time>
      </trkpt>
      <trkpt lat="47.21255" lon="0.05845">
        <ele>121</ele>
        <time>2011-08-28T13:32:55Z</time>
      </trkpt>
      <trkpt lat="47.21259" lon="0.05849">
        <ele>121</ele>
        <time>2011-08-28T13:32:59Z</time>
      </trkpt>
      <trkpt lat="47.21262" lon="0.05854">
        <ele>121</ele>
        <time>2011-08-28T13:33:03Z</time>
      </trkpt>
      <trkpt lat="47.21266" lon="0.05858">
        <ele>121</ele>
        <time>2011-08-28T13:33:07Z</time>
      </trkpt>
      <trkpt lat="47.2127" lon="0.05862">
        <ele>121</ele>
        <time>2011-08-28T13:33:11Z</time>
      </trkpt>
      <trkpt lat="47.21274" lon="0.05866">
        <ele>122</ele>
        <time>2011-08-28T13:33:15Z</time>
      </trkpt>
      <trkpt lat="47.21278" lon="0.0587">
        <ele>122</ele>
        <time>2011-08-28T13:33:19Z</time>
      </trkpt>
      <trkpt lat="47.21282" lon="0.05873">
        <ele>122</ele>
        <time>2011-08-28T13:33:23Z</time>
      </trkpt>
      <trkpt lat="47.21286" lon="0.05877">
        <ele>122</ele>
        <time>2011-08-28T13:33:27Z</time>
      </trkpt>
      <trkpt lat="47.21291" lon="0.0588">
        <ele>122</ele>
        <time>2011-08-28T13:33:31Z</time>
      </trkpt>
      <trkpt lat="47.21295" lon="0.05884">
        <ele>122</ele>
        <time>2011-08-28T13:33:35Z</time>
      </trkpt>
      <trkpt lat="47.21299" lon="0.05888">
        <ele>122</ele>
        <time>2011-08-28T13:33:39Z</time>
      </trkpt>
      <trkpt lat="47.21303" lon="0.05892">
        <ele>122</ele>
        <time>2011-08-28T13:33:43Z</time>
      </trkpt>
      <trkpt lat="47.21307" lon="0.05896">
        <ele>122</ele>
        <time>2011-08-28T13:33:47Z</time>
      </trkpt>
      <trkpt lat="47.21311" lon="0.05899">
        <ele>122</ele>
        <time>2011-08-28T13:33:51Z</time>
      </trkpt>
      <trkpt lat="47.21315" lon="0.05902">
        <ele>122</ele>
        <time>2011-08-28T13:33:55Z</time>
      </trkpt>
      <trkpt lat="47.2132" lon="0.05906">
        <ele>122</ele>
        <time>2011-08-28T13:33:59Z</time>
      </trkpt>
      <trkpt lat="47.21324" lon="0.05909">
        <ele>122</ele>
        <time>2011-08-28T13:34:03Z</time>
      </trkpt>
      <trkpt lat="47.21328" lon="0.05912">
        <ele>122</ele>
        <time>2011-08-28T13:34:07Z</time>
      </trkpt>
      <trkpt lat="47.21332" lon="0.05915">
        <ele>122</ele>
        <time>2011-08-28T13:34:11Z</time>
      </trkpt>
      <trkpt lat="47.21337" lon="0.05919">
        <ele>122</ele>
        <time>2011-08-28T13:34:16Z</time>
      </trkpt>
      <trkpt lat="47.21341" lon="0.05922">
        <ele>122</ele>
        <time>2011-08-28T13:34:20Z</time>
      </trkpt>
      <trkpt lat="47.21345" lon="0.05926">
        <ele>122</ele>
        <time>2011-08-28T13:34:24Z</time>
      </trkpt>
      <trkpt lat="47.21349" lon="0.0593">
        <ele>122</ele>
        <time>2011-08-28T13:34:28Z</time>
      </trkpt>
      <trkpt lat="47.21352" lon="0.05934">
        <ele>122</ele>
        <time>2011-08-28T13:34:32Z</time>
      </trkpt>
      <trkpt lat="47.21356" lon="0.05938">
        <ele>122</ele>
        <time>2011-08-28T13:34:36Z</time>
      </trkpt>
      <trkpt lat="47.2136" lon="0.05941">
        <ele>123</ele>
        <time>2011-08-28T13:34:40Z</time>
      </trkpt>
      <trkpt lat="47.21364" lon="0.05946">
        <ele>123</ele>
        <time>2011-08-28T13:34:44Z</time>
      </trkpt>
      <trkpt lat="47.21368" lon="0.0595">
        <ele>123</ele>
        <time>2011-08-28T13:34:48Z</time>
      </trkpt>
      <trkpt lat="47.21372" lon="0.05954">
        <ele>123</ele>
        <time>2011-08-28T13:34:52Z</time>
      </trkpt>
      <trkpt lat="47.21376" lon="0.05958">
        <ele>123</ele>
        <time>2011-08-28T13:34:56Z</time>
      </trkpt>
      <trkpt lat="47.2138" lon="0.05962">
        <ele>123</ele>
        <time>2011-08-28T13:35:00Z</time>
      </trkpt>
      <trkpt lat="47.21384" lon="0.05966">
        <ele>123</ele>
        <time>2011-08-28T13:35:04Z</time>
      </trkpt>
      <trkpt lat="47.21387" lon="0.0597">
        <ele>123</ele>
        <time>2011-08-28T13:35:08Z</time>
      </trkpt>
      <trkpt lat="47.21391" lon="0.05974">
        <ele>123</ele>
        <time>2011-08-28T13:35:12Z</time>
      </trkpt>
      <trkpt lat="47.21394" lon="0.05979">
        <ele>123</ele>
        <time>2011-08-28T13:35:16Z</time>
      </trkpt>
      <trkpt lat="47.21398" lon="0.05983">
        <ele>123</ele>
        <time>2011-08-28T13:35:20Z</time>
      </trkpt>
      <trkpt lat="47.21401" lon="0.0599">
        <ele>123</ele>
        <time>2011-08-28T13:35:24Z</time>
      </trkpt>
      <trkpt lat="47.21403" lon="0.05996">
        <ele>123</ele>
        <time>2011-08-28T13:35:30Z</time>
      </trkpt>
      <trkpt lat="47.21406" lon="0.06001">
        <ele>123</ele>
        <time>2011-08-28T13:35:48Z</time>
      </trkpt>
      <trkpt lat="47.21409" lon="0.06007">
        <ele>124</ele>
        <time>2011-08-28T13:35:55Z</time>
      </trkpt>
      <trkpt lat="47.21407" lon="0.06014">
        <ele>124</ele>
        <time>2011-08-28T13:35:59Z</time>
      </trkpt>
      <trkpt lat="47.21405" lon="0.06021">
        <ele>124</ele>
        <time>2011-08-28T13:36:03Z</time>
      </trkpt>
      <trkpt lat="47.21402" lon="0.06027">
        <ele>124</ele>
        <time>2011-08-28T13:36:07Z</time>
      </trkpt>
      <trkpt lat="47.214" lon="0.06033">
        <ele>124</ele>
        <time>2011-08-28T13:36:11Z</time>
      </trkpt>
      <trkpt lat="47.21398" lon="0.06039">
        <ele>124</ele>
        <time>2011-08-28T13:36:15Z</time>
      </trkpt>
      <trkpt lat="47.21396" lon="0.06046">
        <ele>124</ele>
        <time>2011-08-28T13:36:19Z</time>
      </trkpt>
      <trkpt lat="47.21393" lon="0.06052">
        <ele>125</ele>
        <time>2011-08-28T13:36:23Z</time>
      </trkpt>
      <trkpt lat="47.21391" lon="0.06059">
        <ele>125</ele>
        <time>2011-08-28T13:36:27Z</time>
      </trkpt>
      <trkpt lat="47.21389" lon="0.06066">
        <ele>125</ele>
        <time>2011-08-28T13:36:31Z</time>
      </trkpt>
      <trkpt lat="47.21388" lon="0.06073">
        <ele>125</ele>
        <time>2011-08-28T13:36:35Z</time>
      </trkpt>
      <trkpt lat="47.21387" lon="0.0608">
        <ele>125</ele>
        <time>2011-08-28T13:36:43Z</time>
      </trkpt>
      <trkpt lat="47.21384" lon="0.06086">
        <ele>125</ele>
        <time>2011-08-28T13:36:48Z</time>
      </trkpt>
      <trkpt lat="47.21382" lon="0.06093">
        <ele>126</ele>
        <time>2011-08-28T13:36:53Z</time>
      </trkpt>
      <trkpt lat="47.2138" lon="0.061">
        <ele>126</ele>
        <time>2011-08-28T13:36:57Z</time>
      </trkpt>
      <trkpt lat="47.21378" lon="0.06107">
        <ele>126</ele>
        <time>2011-08-28T13:37:01Z</time>
      </trkpt>
      <trkpt lat="47.21376" lon="0.06114">
        <ele>126</ele>
        <time>2011-08-28T13:37:05Z</time>
      </trkpt>
      <trkpt lat="47.21374" lon="0.0612">
        <ele>126</ele>
        <time>2011-08-28T13:37:09Z</time>
      </trkpt>
      <trkpt lat="47.21373" lon="0.06127">
        <ele>126</ele>
        <time>2011-08-28T13:37:13Z</time>
      </trkpt>
      <trkpt lat="47.21371" lon="0.06133">
        <ele>127</ele>
        <time>2011-08-28T13:37:17Z</time>
      </trkpt>
      <trkpt lat="47.21369" lon="0.06139">
        <ele>127</ele>
        <time>2011-08-28T13:37:21Z</time>
      </trkpt>
      <trkpt lat="47.21368" lon="0.06145">
        <ele>127</ele>
        <time>2011-08-28T13:37:25Z</time>
      </trkpt>
      <trkpt lat="47.21366" lon="0.06152">
        <ele>127</ele>
        <time>2011-08-28T13:37:29Z</time>
      </trkpt>
      <trkpt lat="47.21364" lon="0.06159">
        <ele>127</ele>
        <time>2011-08-28T13:37:34Z</time>
      </trkpt>
      <trkpt lat="47.21362" lon="0.06165">
        <ele>127</ele>
        <time>2011-08-28T13:37:38Z</time>
      </trkpt>
      <trkpt lat="47.2136" lon="0.06171">
        <ele>127</ele>
        <time>2011-08-28T13:37:42Z</time>
      </trkpt>
      <trkpt lat="47.21358" lon="0.06178">
        <ele>127</ele>
        <time>2011-08-28T13:37:46Z</time>
      </trkpt>
      <trkpt lat="47.21357" lon="0.06184">
        <ele>127</ele>
        <time>2011-08-28T13:37:50Z</time>
      </trkpt>
      <trkpt lat="47.21355" lon="0.0619">
        <ele>127</ele>
        <time>2011-08-28T13:37:54Z</time>
      </trkpt>
      <trkpt lat="47.21353" lon="0.06196">
        <ele>127</ele>
        <time>2011-08-28T13:37:58Z</time>
      </trkpt>
      <trkpt lat="47.21351" lon="0.06202">
        <ele>127</ele>
        <time>2011-08-28T13:38:02Z</time>
      </trkpt>
      <trkpt lat="47.21349" lon="0.06209">
        <ele>127</ele>
        <time>2011-08-28T13:38:06Z</time>
      </trkpt>
      <trkpt lat="47.21347" lon="0.06215">
        <ele>127</ele>
        <time>2011-08-28T13:38:10Z</time>
      </trkpt>
      <trkpt lat="47.21344" lon="0.06222">
        <ele>127</ele>
        <time>2011-08-28T13:38:15Z</time>
      </trkpt>
      <trkpt lat="47.21342" lon="0.06229">
        <ele>127</ele>
        <time>2011-08-28T13:38:20Z</time>
      </trkpt>
      <trkpt lat="47.2134" lon="0.06237">
        <ele>127</ele>
        <time>2011-08-28T13:38:25Z</time>
      </trkpt>
      <trkpt lat="47.21339" lon="0.06243">
        <ele>127</ele>
        <time>2011-08-28T13:38:29Z</time>
      </trkpt>
      <trkpt lat="47.21337" lon="0.06249">
        <ele>127</ele>
        <time>2011-08-28T13:38:33Z</time>
      </trkpt>
      <trkpt lat="47.21336" lon="0.06256">
        <ele>127</ele>
        <time>2011-08-28T13:38:37Z</time>
      </trkpt>
      <trkpt lat="47.21334" lon="0.06264">
        <ele>127</ele>
        <time>2011-08-28T13:38:42Z</time>
      </trkpt>
      <trkpt lat="47.21333" lon="0.06271">
        <ele>128</ele>
        <time>2011-08-28T13:38:47Z</time>
      </trkpt>
      <trkpt lat="47.21332" lon="0.06279">
        <ele>128</ele>
        <time>2011-08-28T13:38:52Z</time>
      </trkpt>
      <trkpt lat="47.2133" lon="0.06286">
        <ele>128</ele>
        <time>2011-08-28T13:38:57Z</time>
      </trkpt>
      <trkpt lat="47.21329" lon="0.06294">
        <ele>128</ele>
        <time>2011-08-28T13:39:02Z</time>
      </trkpt>
      <trkpt lat="47.21327" lon="0.06301">
        <ele>128</ele>
        <time>2011-08-28T13:39:07Z</time>
      </trkpt>
      <trkpt lat="47.21326" lon="0.06308">
        <ele>128</ele>
        <time>2011-08-28T13:39:12Z</time>
      </trkpt>
      <trkpt lat="47.21324" lon="0.06316">
        <ele>128</ele>
        <time>2011-08-28T13:39:17Z</time>
      </trkpt>
      <trkpt lat="47.21323" lon="0.06323">
        <ele>128</ele>
        <time>2011-08-28T13:39:22Z</time>
      </trkpt>
      <trkpt lat="47.21323" lon="0.06331">
        <ele>128</ele>
        <time>2011-08-28T13:39:27Z</time>
      </trkpt>
      <trkpt lat="47.21323" lon="0.06339">
        <ele>128</ele>
        <time>2011-08-28T13:39:32Z</time>
      </trkpt>
      <trkpt lat="47.21323" lon="0.06346">
        <ele>128</ele>
        <time>2011-08-28T13:39:36Z</time>
      </trkpt>
      <trkpt lat="47.21322" lon="0.06354">
        <ele>128</ele>
        <time>2011-08-28T13:39:41Z</time>
      </trkpt>
      <trkpt lat="47.2132" lon="0.06362">
        <ele>128</ele>
        <time>2011-08-28T13:39:46Z</time>
      </trkpt>
      <trkpt lat="47.21319" lon="0.0637">
        <ele>128</ele>
        <time>2011-08-28T13:39:51Z</time>
      </trkpt>
      <trkpt lat="47.21318" lon="0.06377">
        <ele>128</ele>
        <time>2011-08-28T13:39:56Z</time>
      </trkpt>
      <trkpt lat="47.21317" lon="0.06384">
        <ele>128</ele>
        <time>2011-08-28T13:40:01Z</time>
      </trkpt>
      <trkpt lat="47.21317" lon="0.06392">
        <ele>128</ele>
        <time>2011-08-28T13:40:06Z</time>
      </trkpt>
      <trkpt lat="47.21316" lon="0.06399">
        <ele>128</ele>
        <time>2011-08-28T13:40:11Z</time>
      </trkpt>
      <trkpt lat="47.21316" lon="0.06406">
        <ele>128</ele>
        <time>2011-08-28T13:40:16Z</time>
      </trkpt>
      <trkpt lat="47.21315" lon="0.06414">
        <ele>128</ele>
        <time>2011-08-28T13:40:21Z</time>
      </trkpt>
      <trkpt lat="47.21314" lon="0.06422">
        <ele>128</ele>
        <time>2011-08-28T13:40:26Z</time>
      </trkpt>
      <trkpt lat="47.21313" lon="0.06429">
        <ele>128</ele>
        <time>2011-08-28T13:40:31Z</time>
      </trkpt>
      <trkpt lat="47.21312" lon="0.06436">
        <ele>128</ele>
        <time>2011-08-28T13:40:36Z</time>
      </trkpt>
      <trkpt lat="47.21312" lon="0.06443">
        <ele>127</ele>
        <time>2011-08-28T13:40:40Z</time>
      </trkpt>
      <trkpt lat="47.21314" lon="0.0645">
        <ele>127</ele>
        <time>2011-08-28T13:40:45Z</time>
      </trkpt>
      <trkpt lat="47.21316" lon="0.06456">
        <ele>127</ele>
        <time>2011-08-28T13:40:48Z</time>
      </trkpt>
      <trkpt lat="47.21318" lon="0.06462">
        <ele>127</ele>
        <time>2011-08-28T13:40:58Z</time>
      </trkpt>
      <trkpt lat="47.21322" lon="0.06465">
        <ele>127</ele>
        <time>2011-08-28T13:41:06Z</time>
      </trkpt>
      <trkpt lat="47.21326" lon="0.06468">
        <ele>127</ele>
        <time>2011-08-28T13:41:12Z</time>
      </trkpt>
      <trkpt lat="47.21331" lon="0.0647">
        <ele>127</ele>
        <time>2011-08-28T13:41:19Z</time>
      </trkpt>
      <trkpt lat="47.21336" lon="0.06472">
        <ele>127</ele>
        <time>2011-08-28T13:41:25Z</time>
      </trkpt>
      <trkpt lat="47.2134" lon="0.06474">
        <ele>127</ele>
        <time>2011-08-28T13:41:29Z</time>
      </trkpt>
      <trkpt lat="47.21345" lon="0.06477">
        <ele>127</ele>
        <time>2011-08-28T13:41:33Z</time>
      </trkpt>
      <trkpt lat="47.2135" lon="0.06478">
        <ele>127</ele>
        <time>2011-08-28T13:41:37Z</time>
      </trkpt>
      <trkpt lat="47.21355" lon="0.0648">
        <ele>127</ele>
        <time>2011-08-28T13:41:41Z</time>
      </trkpt>
      <trkpt lat="47.21359" lon="0.06481">
        <ele>127</ele>
        <time>2011-08-28T13:41:45Z</time>
      </trkpt>
      <trkpt lat="47.21364" lon="0.06481">
        <ele>127</ele>
        <time>2011-08-28T13:41:52Z</time>
      </trkpt>
      <trkpt lat="47.21369" lon="0.06482">
        <ele>127</ele>
        <time>2011-08-28T13:42:00Z</time>
      </trkpt>
      <trkpt lat="47.21374" lon="0.06484">
        <ele>127</ele>
        <time>2011-08-28T13:42:07Z</time>
      </trkpt>
      <trkpt lat="47.21379" lon="0.06485">
        <ele>127</ele>
        <time>2011-08-28T13:42:17Z</time>
      </trkpt>
      <trkpt lat="47.21383" lon="0.06488">
        <ele>127</ele>
        <time>2011-08-28T13:42:21Z</time>
      </trkpt>
      <trkpt lat="47.21388" lon="0.06491">
        <ele>127</ele>
        <time>2011-08-28T13:42:25Z</time>
      </trkpt>
      <trkpt lat="47.21393" lon="0.06491">
        <ele>127</ele>
        <time>2011-08-28T13:42:29Z</time>
      </trkpt>
      <trkpt lat="47.21398" lon="0.06491">
        <ele>127</ele>
        <time>2011-08-28T13:42:34Z</time>
      </trkpt>
      <trkpt lat="47.21403" lon="0.06492">
        <ele>126</ele>
        <time>2011-08-28T13:42:39Z</time>
      </trkpt>
      <trkpt lat="47.21408" lon="0.06491">
        <ele>126</ele>
        <time>2011-08-28T13:42:44Z</time>
      </trkpt>
      <trkpt lat="47.21412" lon="0.06492">
        <ele>126</ele>
        <time>2011-08-28T13:42:50Z</time>
      </trkpt>
      <trkpt lat="47.21417" lon="0.06489">
        <ele>126</ele>
        <time>2011-08-28T13:42:55Z</time>
      </trkpt>
      <trkpt lat="47.21421" lon="0.06484">
        <ele>126</ele>
        <time>2011-08-28T13:42:59Z</time>
      </trkpt>
      <trkpt lat="47.21424" lon="0.06477">
        <ele>126</ele>
        <time>2011-08-28T13:43:03Z</time>
      </trkpt>
      <trkpt lat="47.21427" lon="0.06471">
        <ele>126</ele>
        <time>2011-08-28T13:43:07Z</time>
      </trkpt>
      <trkpt lat="47.2143" lon="0.06465">
        <ele>126</ele>
        <time>2011-08-28T13:43:11Z</time>
      </trkpt>
      <trkpt lat="47.21432" lon="0.06458">
        <ele>126</ele>
        <time>2011-08-28T13:43:15Z</time>
      </trkpt>
      <trkpt lat="47.21434" lon="0.06452">
        <ele>126</ele>
        <time>2011-08-28T13:43:19Z</time>
      </trkpt>
      <trkpt lat="47.21436" lon="0.06445">
        <ele>126</ele>
        <time>2011-08-28T13:43:23Z</time>
      </trkpt>
      <trkpt lat="47.21436" lon="0.06437">
        <ele>126</ele>
        <time>2011-08-28T13:43:27Z</time>
      </trkpt>
      <trkpt lat="47.21437" lon="0.06429">
        <ele>126</ele>
        <time>2011-08-28T13:43:31Z</time>
      </trkpt>
      <trkpt lat="47.21438" lon="0.06422">
        <ele>126</ele>
        <time>2011-08-28T13:43:35Z</time>
      </trkpt>
      <trkpt lat="47.21438" lon="0.06415">
        <ele>126</ele>
        <time>2011-08-28T13:43:39Z</time>
      </trkpt>
      <trkpt lat="47.21439" lon="0.06407">
        <ele>126</ele>
        <time>2011-08-28T13:43:43Z</time>
      </trkpt>
      <trkpt lat="47.21439" lon="0.064">
        <ele>126</ele>
        <time>2011-08-28T13:43:47Z</time>
      </trkpt>
      <trkpt lat="47.2144" lon="0.06391">
        <ele>126</ele>
        <time>2011-08-28T13:43:51Z</time>
      </trkpt>
      <trkpt lat="47.21441" lon="0.06383">
        <ele>126</ele>
        <time>2011-08-28T13:43:55Z</time>
      </trkpt>
      <trkpt lat="47.21442" lon="0.06374">
        <ele>126</ele>
        <time>2011-08-28T13:43:59Z</time>
      </trkpt>
      <trkpt lat="47.21443" lon="0.06367">
        <ele>126</ele>
        <time>2011-08-28T13:44:04Z</time>
      </trkpt>
      <trkpt lat="47.21442" lon="0.06359">
        <ele>126</ele>
        <time>2011-08-28T13:44:10Z</time>
      </trkpt>
      <trkpt lat="47.21442" lon="0.06352">
        <ele>126</ele>
        <time>2011-08-28T13:44:15Z</time>
      </trkpt>
      <trkpt lat="47.21443" lon="0.06345">
        <ele>126</ele>
        <time>2011-08-28T13:44:20Z</time>
      </trkpt>
      <trkpt lat="47.21444" lon="0.06338">
        <ele>126</ele>
        <time>2011-08-28T13:44:25Z</time>
      </trkpt>
      <trkpt lat="47.21446" lon="0.0633">
        <ele>126</ele>
        <time>2011-08-28T13:44:30Z</time>
      </trkpt>
      <trkpt lat="47.21447" lon="0.06324">
        <ele>126</ele>
        <time>2011-08-28T13:44:35Z</time>
      </trkpt>
      <trkpt lat="47.21448" lon="0.06317">
        <ele>125</ele>
        <time>2011-08-28T13:44:48Z</time>
      </trkpt>
      <trkpt lat="47.21451" lon="0.06313">
        <ele>125</ele>
        <time>2011-08-28T13:46:14Z</time>
      </trkpt>
      <trkpt lat="47.2145" lon="0.06306">
        <ele>124</ele>
        <time>2011-08-28T13:47:30Z</time>
      </trkpt>
      <trkpt lat="47.21451" lon="0.06299">
        <ele>123</ele>
        <time>2011-08-28T13:47:35Z</time>
      </trkpt>
      <trkpt lat="47.21453" lon="0.06292">
        <ele>123</ele>
        <time>2011-08-28T13:47:40Z</time>
      </trkpt>
      <trkpt lat="47.21455" lon="0.06286">
        <ele>123</ele>
        <time>2011-08-28T13:47:45Z</time>
      </trkpt>
      <trkpt lat="47.21458" lon="0.06278">
        <ele>123</ele>
        <time>2011-08-28T13:47:50Z</time>
      </trkpt>
      <trkpt lat="47.2146" lon="0.06271">
        <ele>123</ele>
        <time>2011-08-28T13:47:54Z</time>
      </trkpt>
      <trkpt lat="47.21461" lon="0.06264">
        <ele>123</ele>
        <time>2011-08-28T13:47:58Z</time>
      </trkpt>
      <trkpt lat="47.21462" lon="0.06256">
        <ele>123</ele>
        <time>2011-08-28T13:48:02Z</time>
      </trkpt>
      <trkpt lat="47.21463" lon="0.06249">
        <ele>123</ele>
        <time>2011-08-28T13:48:07Z</time>
      </trkpt>
      <trkpt lat="47.21463" lon="0.06241">
        <ele>123</ele>
        <time>2011-08-28T13:48:12Z</time>
      </trkpt>
      <trkpt lat="47.21465" lon="0.06234">
        <ele>123</ele>
        <time>2011-08-28T13:48:17Z</time>
      </trkpt>
      <trkpt lat="47.21467" lon="0.06227">
        <ele>123</ele>
        <time>2011-08-28T13:48:22Z</time>
      </trkpt>
      <trkpt lat="47.2147" lon="0.06221">
        <ele>123</ele>
        <time>2011-08-28T13:48:27Z</time>
      </trkpt>
      <trkpt lat="47.21472" lon="0.06215">
        <ele>123</ele>
        <time>2011-08-28T13:48:32Z</time>
      </trkpt>
      <trkpt lat="47.21475" lon="0.06209">
        <ele>123</ele>
        <time>2011-08-28T13:48:37Z</time>
      </trkpt>
      <trkpt lat="47.21478" lon="0.06204">
        <ele>123</ele>
        <time>2011-08-28T13:48:42Z</time>
      </trkpt>
      <trkpt lat="47.2148" lon="0.06197">
        <ele>123</ele>
        <time>2011-08-28T13:48:47Z</time>
      </trkpt>
      <trkpt lat="47.21482" lon="0.06191">
        <ele>123</ele>
        <time>2011-08-28T13:48:51Z</time>
      </trkpt>
      <trkpt lat="47.21485" lon="0.06184">
        <ele>123</ele>
        <time>2011-08-28T13:48:56Z</time>
      </trkpt>
      <trkpt lat="47.21487" lon="0.06177">
        <ele>123</ele>
        <time>2011-08-28T13:49:00Z</time>
      </trkpt>
      <trkpt lat="47.2149" lon="0.06171">
        <ele>123</ele>
        <time>2011-08-28T13:49:04Z</time>
      </trkpt>
      <trkpt lat="47.21492" lon="0.06165">
        <ele>123</ele>
        <time>2011-08-28T13:49:08Z</time>
      </trkpt>
      <trkpt lat="47.21495" lon="0.0616">
        <ele>123</ele>
        <time>2011-08-28T13:49:12Z</time>
      </trkpt>
      <trkpt lat="47.21498" lon="0.06152">
        <ele>123</ele>
        <time>2011-08-28T13:49:17Z</time>
      </trkpt>
      <trkpt lat="47.215" lon="0.06145">
        <ele>122</ele>
        <time>2011-08-28T13:49:22Z</time>
      </trkpt>
      <trkpt lat="47.21501" lon="0.06137">
        <ele>122</ele>
        <time>2011-08-28T13:49:27Z</time>
      </trkpt>
      <trkpt lat="47.21501" lon="0.0613">
        <ele>122</ele>
        <time>2011-08-28T13:49:31Z</time>
      </trkpt>
      <trkpt lat="47.21501" lon="0.06123">
        <ele>122</ele>
        <time>2011-08-28T13:49:35Z</time>
      </trkpt>
      <trkpt lat="47.21501" lon="0.06116">
        <ele>122</ele>
        <time>2011-08-28T13:49:39Z</time>
      </trkpt>
      <trkpt lat="47.21502" lon="0.06108">
        <ele>122</ele>
        <time>2011-08-28T13:49:43Z</time>
      </trkpt>
      <trkpt lat="47.21502" lon="0.06101">
        <ele>122</ele>
        <time>2011-08-28T13:49:47Z</time>
      </trkpt>
      <trkpt lat="47.21503" lon="0.06093">
        <ele>122</ele>
        <time>2011-08-28T13:49:52Z</time>
      </trkpt>
      <trkpt lat="47.21504" lon="0.06085">
        <ele>122</ele>
        <time>2011-08-28T13:49:57Z</time>
      </trkpt>
      <trkpt lat="47.21505" lon="0.06077">
        <ele>122</ele>
        <time>2011-08-28T13:50:02Z</time>
      </trkpt>
      <trkpt lat="47.21506" lon="0.06069">
        <ele>122</ele>
        <time>2011-08-28T13:50:07Z</time>
      </trkpt>
      <trkpt lat="47.21508" lon="0.06061">
        <ele>122</ele>
        <time>2011-08-28T13:50:12Z</time>
      </trkpt>
      <trkpt lat="47.21509" lon="0.06053">
        <ele>122</ele>
        <time>2011-08-28T13:50:17Z</time>
      </trkpt>
      <trkpt lat="47.21511" lon="0.06046">
        <ele>122</ele>
        <time>2011-08-28T13:50:22Z</time>
      </trkpt>
      <trkpt lat="47.21513" lon="0.06039">
        <ele>122</ele>
        <time>2011-08-28T13:50:27Z</time>
      </trkpt>
      <trkpt lat="47.21516" lon="0.06032">
        <ele>122</ele>
        <time>2011-08-28T13:50:32Z</time>
      </trkpt>
      <trkpt lat="47.21519" lon="0.06026">
        <ele>122</ele>
        <time>2011-08-28T13:50:36Z</time>
      </trkpt>
      <trkpt lat="47.21521" lon="0.0602">
        <ele>122</ele>
        <time>2011-08-28T13:50:40Z</time>
      </trkpt>
      <trkpt lat="47.21524" lon="0.06014">
        <ele>122</ele>
        <time>2011-08-28T13:50:45Z</time>
      </trkpt>
      <trkpt lat="47.21527" lon="0.06007">
        <ele>122</ele>
        <time>2011-08-28T13:50:50Z</time>
      </trkpt>
      <trkpt lat="47.21531" lon="0.06002">
        <ele>122</ele>
        <time>2011-08-28T13:50:55Z</time>
      </trkpt>
      <trkpt lat="47.21535" lon="0.05996">
        <ele>121</ele>
        <time>2011-08-28T13:51:00Z</time>
      </trkpt>
      <trkpt lat="47.21538" lon="0.0599">
        <ele>121</ele>
        <time>2011-08-28T13:51:04Z</time>
      </trkpt>
      <trkpt lat="47.2154" lon="0.05984">
        <ele>121</ele>
        <time>2011-08-28T13:51:09Z</time>
      </trkpt>
      <trkpt lat="47.21543" lon="0.05977">
        <ele>121</ele>
        <time>2011-08-28T13:51:14Z</time>
      </trkpt>
      <trkpt lat="47.21546" lon="0.0597">
        <ele>121</ele>
        <time>2011-08-28T13:51:19Z</time>
      </trkpt>
      <trkpt lat="47.21548" lon="0.05964">
        <ele>121</ele>
        <time>2011-08-28T13:51:24Z</time>
      </trkpt>
      <trkpt lat="47.21549" lon="0.05956">
        <ele>121</ele>
        <time>2011-08-28T13:51:30Z</time>
      </trkpt>
      <trkpt lat="47.21549" lon="0.0595">
        <ele>121</ele>
        <time>2011-08-28T13:51:35Z</time>
      </trkpt>
      <trkpt lat="47.21548" lon="0.05942">
        <ele>121</ele>
        <time>2011-08-28T13:51:40Z</time>
      </trkpt>
      <trkpt lat="47.21548" lon="0.05936">
        <ele>121</ele>
        <time>2011-08-28T13:51:45Z</time>
      </trkpt>
      <trkpt lat="47.21549" lon="0.05928">
        <ele>121</ele>
        <time>2011-08-28T13:51:51Z</time>
      </trkpt>
      <trkpt lat="47.21549" lon="0.0592">
        <ele>121</ele>
        <time>2011-08-28T13:51:56Z</time>
      </trkpt>
      <trkpt lat="47.21548" lon="0.05913">
        <ele>121</ele>
        <time>2011-08-28T13:52:00Z</time>
      </trkpt>
      <trkpt lat="47.21548" lon="0.05906">
        <ele>121</ele>
        <time>2011-08-28T13:52:04Z</time>
      </trkpt>
      <trkpt lat="47.2155" lon="0.059">
        <ele>121</ele>
        <time>2011-08-28T13:52:09Z</time>
      </trkpt>
      <trkpt lat="47.21553" lon="0.05894">
        <ele>121</ele>
        <time>2011-08-28T13:52:14Z</time>
      </trkpt>
      <trkpt lat="47.21557" lon="0.05889">
        <ele>121</ele>
        <time>2011-08-28T13:52:20Z</time>
      </trkpt>
      <trkpt lat="47.21561" lon="0.05885">
        <ele>120</ele>
        <time>2011-08-28T13:52:28Z</time>
      </trkpt>
      <trkpt lat="47.21566" lon="0.05884">
        <ele>120</ele>
        <time>2011-08-28T13:52:33Z</time>
      </trkpt>
      <trkpt lat="47.21571" lon="0.05884">
        <ele>119</ele>
        <time>2011-08-28T13:52:38Z</time>
      </trkpt>
      <trkpt lat="47.21576" lon="0.05884">
        <ele>119</ele>
        <time>2011-08-28T13:52:43Z</time>
      </trkpt>
      <trkpt lat="47.21582" lon="0.05884">
        <ele>118</ele>
        <time>2011-08-28T13:52:48Z</time>
      </trkpt>
      <trkpt lat="47.21587" lon="0.05884">
        <ele>118</ele>
        <time>2011-08-28T13:52:52Z</time>
      </trkpt>
      <trkpt lat="47.21592" lon="0.05883">
        <ele>118</ele>
        <time>2011-08-28T13:52:57Z</time>
      </trkpt>
      <trkpt lat="47.21594" lon="0.05877">
        <ele>118</ele>
        <time>2011-08-28T13:53:04Z</time>
      </trkpt>
      <trkpt lat="47.21598" lon="0.05874">
        <ele>117</ele>
        <time>2011-08-28T13:53:10Z</time>
      </trkpt>
      <trkpt lat="47.21602" lon="0.05871">
        <ele>117</ele>
        <time>2011-08-28T13:53:17Z</time>
      </trkpt>
      <trkpt lat="47.21608" lon="0.05871">
        <ele>117</ele>
        <time>2011-08-28T13:53:23Z</time>
      </trkpt>
      <trkpt lat="47.21612" lon="0.0587">
        <ele>117</ele>
        <time>2011-08-28T13:53:30Z</time>
      </trkpt>
      <trkpt lat="47.21613" lon="0.05862">
        <ele>118</ele>
        <time>2011-08-28T13:53:36Z</time>
      </trkpt>
      <trkpt lat="47.21612" lon="0.05853">
        <ele>117</ele>
        <time>2011-08-28T13:53:40Z</time>
      </trkpt>
      <trkpt lat="47.21612" lon="0.05846">
        <ele>117</ele>
        <time>2011-08-28T13:53:44Z</time>
      </trkpt>
      <trkpt lat="47.21612" lon="0.05838">
        <ele>117</ele>
        <time>2011-08-28T13:53:48Z</time>
      </trkpt>
      <trkpt lat="47.2161" lon="0.05831">
        <ele>117</ele>
        <time>2011-08-28T13:53:51Z</time>
      </trkpt>
      <trkpt lat="47.2161" lon="0.05824">
        <ele>117</ele>
        <time>2011-08-28T13:53:54Z</time>
      </trkpt>
      <trkpt lat="47.2161" lon="0.05816">
        <ele>117</ele>
        <time>2011-08-28T13:53:58Z</time>
      </trkpt>
      <trkpt lat="47.2161" lon="0.05809">
        <ele>117</ele>
        <time>2011-08-28T13:54:02Z</time>
      </trkpt>
      <trkpt lat="47.21611" lon="0.05801">
        <ele>117</ele>
        <time>2011-08-28T13:54:07Z</time>
      </trkpt>
      <trkpt lat="47.21613" lon="0.05794">
        <ele>117</ele>
        <time>2011-08-28T13:54:12Z</time>
      </trkpt>
      <trkpt lat="47.21615" lon="0.05788">
        <ele>117</ele>
        <time>2011-08-28T13:54:17Z</time>
      </trkpt>
      <trkpt lat="47.21615" lon="0.0578">
        <ele>117</ele>
        <time>2011-08-28T13:54:22Z</time>
      </trkpt>
      <trkpt lat="47.21615" lon="0.05773">
        <ele>116</ele>
        <time>2011-08-28T13:54:26Z</time>
      </trkpt>
      <trkpt lat="47.21615" lon="0.05766">
        <ele>116</ele>
        <time>2011-08-28T13:54:30Z</time>
      </trkpt>
      <trkpt lat="47.21616" lon="0.05759">
        <ele>116</ele>
        <time>2011-08-28T13:54:34Z</time>
      </trkpt>
      <trkpt lat="47.21617" lon="0.05752">
        <ele>116</ele>
        <time>2011-08-28T13:54:39Z</time>
      </trkpt>
      <trkpt lat="47.21618" lon="0.05744">
        <ele>116</ele>
        <time>2011-08-28T13:54:44Z</time>
      </trkpt>
      <trkpt lat="47.21618" lon="0.05737">
        <ele>116</ele>
        <time>2011-08-28T13:54:49Z</time>
      </trkpt>
      <trkpt lat="47.21617" lon="0.0573">
        <ele>116</ele>
        <time>2011-08-28T13:54:54Z</time>
      </trkpt>
      <trkpt lat="47.21614" lon="0.05723">
        <ele>116</ele>
        <time>2011-08-28T13:54:58Z</time>
      </trkpt>
      <trkpt lat="47.21612" lon="0.05717">
        <ele>116</ele>
        <time>2011-08-28T13:55:01Z</time>
      </trkpt>
      <trkpt lat="47.21609" lon="0.0571">
        <ele>115</ele>
        <time>2011-08-28T13:55:05Z</time>
      </trkpt>
      <trkpt lat="47.21609" lon="0.05702">
        <ele>115</ele>
        <time>2011-08-28T13:55:10Z</time>
      </trkpt>
      <trkpt lat="47.21609" lon="0.05694">
        <ele>115</ele>
        <time>2011-08-28T13:55:15Z</time>
      </trkpt>
      <trkpt lat="47.2161" lon="0.05687">
        <ele>115</ele>
        <time>2011-08-28T13:55:20Z</time>
      </trkpt>
      <trkpt lat="47.21614" lon="0.05683">
        <ele>115</ele>
        <time>2011-08-28T13:55:26Z</time>
      </trkpt>
      <trkpt lat="47.21619" lon="0.05683">
        <ele>115</ele>
        <time>2011-08-28T13:55:32Z</time>
      </trkpt>
      <trkpt lat="47.21624" lon="0.05684">
        <ele>115</ele>
        <time>2011-08-28T13:55:36Z</time>
      </trkpt>
      <trkpt lat="47.2163" lon="0.05687">
        <ele>115</ele>
        <time>2011-08-28T13:55:40Z</time>
      </trkpt>
      <trkpt lat="47.21635" lon="0.0569">
        <ele>114</ele>
        <time>2011-08-28T13:55:44Z</time>
      </trkpt>
      <trkpt lat="47.21639" lon="0.05691">
        <ele>114</ele>
        <time>2011-08-28T13:55:48Z</time>
      </trkpt>
      <trkpt lat="47.21644" lon="0.05692">
        <ele>114</ele>
        <time>2011-08-28T13:55:52Z</time>
      </trkpt>
      <trkpt lat="47.21649" lon="0.05692">
        <ele>113</ele>
        <time>2011-08-28T13:55:57Z</time>
      </trkpt>
      <trkpt lat="47.21654" lon="0.05694">
        <ele>113</ele>
        <time>2011-08-28T13:56:01Z</time>
      </trkpt>
      <trkpt lat="47.21658" lon="0.05696">
        <ele>112</ele>
        <time>2011-08-28T13:56:05Z</time>
      </trkpt>
      <trkpt lat="47.21664" lon="0.05697">
        <ele>112</ele>
        <time>2011-08-28T13:56:09Z</time>
      </trkpt>
      <trkpt lat="47.21668" lon="0.05698">
        <ele>111</ele>
        <time>2011-08-28T13:56:14Z</time>
      </trkpt>
      <trkpt lat="47.21673" lon="0.05697">
        <ele>109</ele>
        <time>2011-08-28T13:56:22Z</time>
      </trkpt>
      <trkpt lat="47.21678" lon="0.05696">
        <ele>108</ele>
        <time>2011-08-28T13:56:28Z</time>
      </trkpt>
      <trkpt lat="47.21682" lon="0.05696">
        <ele>107</ele>
        <time>2011-08-28T13:56:33Z</time>
      </trkpt>
      <trkpt lat="47.21687" lon="0.05697">
        <ele>107</ele>
        <time>2011-08-28T13:56:45Z</time>
      </trkpt>
      <trkpt lat="47.21689" lon="0.05703">
        <ele>106</ele>
        <time>2011-08-28T13:57:13Z</time>
      </trkpt>
      <trkpt lat="47.21694" lon="0.05702">
        <ele>105</ele>
        <time>2011-08-28T13:57:39Z</time>
      </trkpt>
      <trkpt lat="47.21697" lon="0.05698">
        <ele>104</ele>
        <time>2011-08-28T13:57:45Z</time>
      </trkpt>
      <trkpt lat="47.21701" lon="0.05692">
        <ele>103</ele>
        <time>2011-08-28T13:57:50Z</time>
      </trkpt>
      <trkpt lat="47.21704" lon="0.05688">
        <ele>102</ele>
        <time>2011-08-28T13:57:55Z</time>
      </trkpt>
      <trkpt lat="47.21708" lon="0.05682">
        <ele>101</ele>
        <time>2011-08-28T13:58:00Z</time>
      </trkpt>
      <trkpt lat="47.21711" lon="0.05677">
        <ele>100</ele>
        <time>2011-08-28T13:58:05Z</time>
      </trkpt>
      <trkpt lat="47.21715" lon="0.05671">
        <ele>100</ele>
        <time>2011-08-28T13:58:10Z</time>
      </trkpt>
      <trkpt lat="47.21718" lon="0.05665">
        <ele>99</ele>
        <time>2011-08-28T13:58:15Z</time>
      </trkpt>
      <trkpt lat="47.21721" lon="0.0566">
        <ele>99</ele>
        <time>2011-08-28T13:58:20Z</time>
      </trkpt>
      <trkpt lat="47.21724" lon="0.05654">
        <ele>99</ele>
        <time>2011-08-28T13:58:25Z</time>
      </trkpt>
      <trkpt lat="47.21726" lon="0.05648">
        <ele>99</ele>
        <time>2011-08-28T13:58:30Z</time>
      </trkpt>
      <trkpt lat="47.21729" lon="0.05641">
        <ele>98</ele>
        <time>2011-08-28T13:58:39Z</time>
      </trkpt>
      <trkpt lat="47.2173" lon="0.05634">
        <ele>97</ele>
        <time>2011-08-28T13:59:09Z</time>
      </trkpt>
      <trkpt lat="47.21733" lon="0.05629">
        <ele>96</ele>
        <time>2011-08-28T13:59:14Z</time>
      </trkpt>
      <trkpt lat="47.21736" lon="0.05622">
        <ele>96</ele>
        <time>2011-08-28T13:59:19Z</time>
      </trkpt>
      <trkpt lat="47.21737" lon="0.05616">
        <ele>95</ele>
        <time>2011-08-28T13:59:24Z</time>
      </trkpt>
      <trkpt lat="47.21738" lon="0.05609">
        <ele>95</ele>
        <time>2011-08-28T13:59:29Z</time>
      </trkpt>
      <trkpt lat="47.2174" lon="0.05602">
        <ele>95</ele>
        <time>2011-08-28T13:59:34Z</time>
      </trkpt>
      <trkpt lat="47.21742" lon="0.05594">
        <ele>95</ele>
        <time>2011-08-28T13:59:39Z</time>
      </trkpt>
      <trkpt lat="47.21744" lon="0.05587">
        <ele>94</ele>
        <time>2011-08-28T13:59:44Z</time>
      </trkpt>
      <trkpt lat="47.21747" lon="0.05581">
        <ele>94</ele>
        <time>2011-08-28T13:59:49Z</time>
      </trkpt>
      <trkpt lat="47.2175" lon="0.05576">
        <ele>94</ele>
        <time>2011-08-28T13:59:54Z</time>
      </trkpt>
      <trkpt lat="47.21754" lon="0.05571">
        <ele>94</ele>
        <time>2011-08-28T13:59:59Z</time>
      </trkpt>
      <trkpt lat="47.21759" lon="0.05566">
        <ele>94</ele>
        <time>2011-08-28T14:00:04Z</time>
      </trkpt>
      <trkpt lat="47.21763" lon="0.05564">
        <ele>94</ele>
        <time>2011-08-28T14:00:09Z</time>
      </trkpt>
      <trkpt lat="47.21767" lon="0.0556">
        <ele>93</ele>
        <time>2011-08-28T14:00:15Z</time>
      </trkpt>
      <trkpt lat="47.21771" lon="0.05555">
        <ele>93</ele>
        <time>2011-08-28T14:00:21Z</time>
      </trkpt>
      <trkpt lat="47.21775" lon="0.0555">
        <ele>93</ele>
        <time>2011-08-28T14:00:25Z</time>
      </trkpt>
      <trkpt lat="47.21779" lon="0.05545">
        <ele>93</ele>
        <time>2011-08-28T14:00:29Z</time>
      </trkpt>
      <trkpt lat="47.21783" lon="0.05541">
        <ele>93</ele>
        <time>2011-08-28T14:00:33Z</time>
      </trkpt>
      <trkpt lat="47.21787" lon="0.05537">
        <ele>93</ele>
        <time>2011-08-28T14:00:37Z</time>
      </trkpt>
      <trkpt lat="47.21791" lon="0.05531">
        <ele>93</ele>
        <time>2011-08-28T14:00:42Z</time>
      </trkpt>
      <trkpt lat="47.21795" lon="0.05525">
        <ele>93</ele>
        <time>2011-08-28T14:00:47Z</time>
      </trkpt>
      <trkpt lat="47.21798" lon="0.0552">
        <ele>93</ele>
        <time>2011-08-28T14:00:52Z</time>
      </trkpt>
      <trkpt lat="47.21802" lon="0.05514">
        <ele>93</ele>
        <time>2011-08-28T14:00:57Z</time>
      </trkpt>
      <trkpt lat="47.21805" lon="0.05507">
        <ele>93</ele>
        <time>2011-08-28T14:01:02Z</time>
      </trkpt>
      <trkpt lat="47.21808" lon="0.05501">
        <ele>93</ele>
        <time>2011-08-28T14:01:07Z</time>
      </trkpt>
      <trkpt lat="47.2181" lon="0.05494">
        <ele>93</ele>
        <time>2011-08-28T14:01:12Z</time>
      </trkpt>
      <trkpt lat="47.21813" lon="0.05487">
        <ele>93</ele>
        <time>2011-08-28T14:01:17Z</time>
      </trkpt>
      <trkpt lat="47.21815" lon="0.05482">
        <ele>92</ele>
        <time>2011-08-28T14:01:21Z</time>
      </trkpt>
      <trkpt lat="47.21817" lon="0.05476">
        <ele>92</ele>
        <time>2011-08-28T14:01:25Z</time>
      </trkpt>
      <trkpt lat="47.2182" lon="0.05469">
        <ele>92</ele>
        <time>2011-08-28T14:01:30Z</time>
      </trkpt>
      <trkpt lat="47.21822" lon="0.05462">
        <ele>92</ele>
        <time>2011-08-28T14:01:35Z</time>
      </trkpt>
      <trkpt lat="47.21825" lon="0.05456">
        <ele>92</ele>
        <time>2011-08-28T14:01:40Z</time>
      </trkpt>
      <trkpt lat="47.21828" lon="0.0545">
        <ele>92</ele>
        <time>2011-08-28T14:01:45Z</time>
      </trkpt>
      <trkpt lat="47.2183" lon="0.05443">
        <ele>92</ele>
        <time>2011-08-28T14:01:50Z</time>
      </trkpt>
      <trkpt lat="47.21833" lon="0.05437">
        <ele>92</ele>
        <time>2011-08-28T14:01:54Z</time>
      </trkpt>
      <trkpt lat="47.21835" lon="0.05431">
        <ele>92</ele>
        <time>2011-08-28T14:01:58Z</time>
      </trkpt>
      <trkpt lat="47.21837" lon="0.05425">
        <ele>92</ele>
        <time>2011-08-28T14:02:02Z</time>
      </trkpt>
      <trkpt lat="47.21839" lon="0.05419">
        <ele>92</ele>
        <time>2011-08-28T14:02:06Z</time>
      </trkpt>
      <trkpt lat="47.21841" lon="0.05412">
        <ele>92</ele>
        <time>2011-08-28T14:02:10Z</time>
      </trkpt>
      <trkpt lat="47.21844" lon="0.05406">
        <ele>92</ele>
        <time>2011-08-28T14:02:14Z</time>
      </trkpt>
      <trkpt lat="47.21846" lon="0.054">
        <ele>92</ele>
        <time>2011-08-28T14:02:18Z</time>
      </trkpt>
      <trkpt lat="47.21848" lon="0.05394">
        <ele>92</ele>
        <time>2011-08-28T14:02:22Z</time>
      </trkpt>
      <trkpt lat="47.21851" lon="0.05387">
        <ele>92</ele>
        <time>2011-08-28T14:02:27Z</time>
      </trkpt>
      <trkpt lat="47.21854" lon="0.0538">
        <ele>92</ele>
        <time>2011-08-28T14:02:32Z</time>
      </trkpt>
      <trkpt lat="47.21856" lon="0.05374">
        <ele>92</ele>
        <time>2011-08-28T14:02:36Z</time>
      </trkpt>
      <trkpt lat="47.21858" lon="0.05368">
        <ele>92</ele>
        <time>2011-08-28T14:02:40Z</time>
      </trkpt>
      <trkpt lat="47.2186" lon="0.05361">
        <ele>92</ele>
        <time>2011-08-28T14:02:44Z</time>
      </trkpt>
      <trkpt lat="47.21863" lon="0.05354">
        <ele>92</ele>
        <time>2011-08-28T14:02:48Z</time>
      </trkpt>
      <trkpt lat="47.21865" lon="0.05348">
        <ele>92</ele>
        <time>2011-08-28T14:02:52Z</time>
      </trkpt>
      <trkpt lat="47.21868" lon="0.05342">
        <ele>92</ele>
        <time>2011-08-28T14:02:56Z</time>
      </trkpt>
      <trkpt lat="47.2187" lon="0.05336">
        <ele>92</ele>
        <time>2011-08-28T14:03:00Z</time>
      </trkpt>
      <trkpt lat="47.21873" lon="0.0533">
        <ele>92</ele>
        <time>2011-08-28T14:03:04Z</time>
      </trkpt>
      <trkpt lat="47.21876" lon="0.05323">
        <ele>92</ele>
        <time>2011-08-28T14:03:09Z</time>
      </trkpt>
      <trkpt lat="47.21878" lon="0.05316">
        <ele>92</ele>
        <time>2011-08-28T14:03:14Z</time>
      </trkpt>
      <trkpt lat="47.21881" lon="0.0531">
        <ele>92</ele>
        <time>2011-08-28T14:03:19Z</time>
      </trkpt>
      <trkpt lat="47.21884" lon="0.05303">
        <ele>92</ele>
        <time>2011-08-28T14:03:24Z</time>
      </trkpt>
      <trkpt lat="47.21886" lon="0.05296">
        <ele>92</ele>
        <time>2011-08-28T14:03:29Z</time>
      </trkpt>
      <trkpt lat="47.21888" lon="0.05289">
        <ele>92</ele>
        <time>2011-08-28T14:03:34Z</time>
      </trkpt>
      <trkpt lat="47.21891" lon="0.05282">
        <ele>92</ele>
        <time>2011-08-28T14:03:39Z</time>
      </trkpt>
      <trkpt lat="47.21893" lon="0.05274">
        <ele>92</ele>
        <time>2011-08-28T14:03:44Z</time>
      </trkpt>
      <trkpt lat="47.21896" lon="0.05269">
        <ele>92</ele>
        <time>2011-08-28T14:03:57Z</time>
      </trkpt>
      <trkpt lat="47.21899" lon="0.05264">
        <ele>91</ele>
        <time>2011-08-28T14:04:02Z</time>
      </trkpt>
      <trkpt lat="47.21901" lon="0.05258">
        <ele>91</ele>
        <time>2011-08-28T14:04:06Z</time>
      </trkpt>
      <trkpt lat="47.21904" lon="0.05252">
        <ele>90</ele>
        <time>2011-08-28T14:04:10Z</time>
      </trkpt>
      <trkpt lat="47.21908" lon="0.05244">
        <ele>90</ele>
        <time>2011-08-28T14:04:14Z</time>
      </trkpt>
      <trkpt lat="47.21911" lon="0.05239">
        <ele>89</ele>
        <time>2011-08-28T14:04:17Z</time>
      </trkpt>
      <trkpt lat="47.21914" lon="0.05234">
        <ele>89</ele>
        <time>2011-08-28T14:04:20Z</time>
      </trkpt>
      <trkpt lat="47.21916" lon="0.05227">
        <ele>88</ele>
        <time>2011-08-28T14:04:24Z</time>
      </trkpt>
      <trkpt lat="47.21919" lon="0.05222">
        <ele>87</ele>
        <time>2011-08-28T14:04:28Z</time>
      </trkpt>
      <trkpt lat="47.21921" lon="0.05216">
        <ele>87</ele>
        <time>2011-08-28T14:04:32Z</time>
      </trkpt>
      <trkpt lat="47.21924" lon="0.05209">
        <ele>86</ele>
        <time>2011-08-28T14:04:36Z</time>
      </trkpt>
      <trkpt lat="47.21927" lon="0.05203">
        <ele>86</ele>
        <time>2011-08-28T14:04:40Z</time>
      </trkpt>
      <trkpt lat="47.2193" lon="0.05196">
        <ele>85</ele>
        <time>2011-08-28T14:04:44Z</time>
      </trkpt>
      <trkpt lat="47.21932" lon="0.05189">
        <ele>85</ele>
        <time>2011-08-28T14:04:48Z</time>
      </trkpt>
      <trkpt lat="47.21934" lon="0.05182">
        <ele>85</ele>
        <time>2011-08-28T14:04:52Z</time>
      </trkpt>
      <trkpt lat="47.21935" lon="0.05173">
        <ele>85</ele>
        <time>2011-08-28T14:04:56Z</time>
      </trkpt>
      <trkpt lat="47.21936" lon="0.05166">
        <ele>84</ele>
        <time>2011-08-28T14:05:00Z</time>
      </trkpt>
      <trkpt lat="47.21938" lon="0.05158">
        <ele>84</ele>
        <time>2011-08-28T14:05:04Z</time>
      </trkpt>
      <trkpt lat="47.2194" lon="0.05151">
        <ele>84</ele>
        <time>2011-08-28T14:05:07Z</time>
      </trkpt>
      <trkpt lat="47.21942" lon="0.05145">
        <ele>84</ele>
        <time>2011-08-28T14:05:10Z</time>
      </trkpt>
      <trkpt lat="47.21945" lon="0.05138">
        <ele>84</ele>
        <time>2011-08-28T14:05:14Z</time>
      </trkpt>
      <trkpt lat="47.21947" lon="0.05131">
        <ele>84</ele>
        <time>2011-08-28T14:05:18Z</time>
      </trkpt>
      <trkpt lat="47.2195" lon="0.05125">
        <ele>84</ele>
        <time>2011-08-28T14:05:22Z</time>
      </trkpt>
      <trkpt lat="47.21953" lon="0.05118">
        <ele>84</ele>
        <time>2011-08-28T14:05:26Z</time>
      </trkpt>
      <trkpt lat="47.21956" lon="0.05111">
        <ele>84</ele>
        <time>2011-08-28T14:05:30Z</time>
      </trkpt>
      <trkpt lat="47.2196" lon="0.05105">
        <ele>84</ele>
        <time>2011-08-28T14:05:34Z</time>
      </trkpt>
      <trkpt lat="47.21963" lon="0.051">
        <ele>84</ele>
        <time>2011-08-28T14:05:38Z</time>
      </trkpt>
      <trkpt lat="47.21967" lon="0.05094">
        <ele>84</ele>
        <time>2011-08-28T14:05:42Z</time>
      </trkpt>
      <trkpt lat="47.2197" lon="0.05089">
        <ele>84</ele>
        <time>2011-08-28T14:05:46Z</time>
      </trkpt>
      <trkpt lat="47.21974" lon="0.05082">
        <ele>84</ele>
        <time>2011-08-28T14:05:50Z</time>
      </trkpt>
      <trkpt lat="47.21976" lon="0.05074">
        <ele>84</ele>
        <time>2011-08-28T14:05:54Z</time>
      </trkpt>
      <trkpt lat="47.21979" lon="0.05068">
        <ele>84</ele>
        <time>2011-08-28T14:05:58Z</time>
      </trkpt>
      <trkpt lat="47.21981" lon="0.05062">
        <ele>84</ele>
        <time>2011-08-28T14:06:02Z</time>
      </trkpt>
      <trkpt lat="47.21984" lon="0.05055">
        <ele>84</ele>
        <time>2011-08-28T14:06:06Z</time>
      </trkpt>
      <trkpt lat="47.21986" lon="0.05049">
        <ele>84</ele>
        <time>2011-08-28T14:06:10Z</time>
      </trkpt>
      <trkpt lat="47.21989" lon="0.05043">
        <ele>84</ele>
        <time>2011-08-28T14:06:14Z</time>
      </trkpt>
      <trkpt lat="47.21992" lon="0.05036">
        <ele>84</ele>
        <time>2011-08-28T14:06:18Z</time>
      </trkpt>
      <trkpt lat="47.21995" lon="0.0503">
        <ele>84</ele>
        <time>2011-08-28T14:06:22Z</time>
      </trkpt>
      <trkpt lat="47.21998" lon="0.05023">
        <ele>84</ele>
        <time>2011-08-28T14:06:26Z</time>
      </trkpt>
      <trkpt lat="47.22" lon="0.05016">
        <ele>84</ele>
        <time>2011-08-28T14:06:30Z</time>
      </trkpt>
      <trkpt lat="47.22003" lon="0.0501">
        <ele>84</ele>
        <time>2011-08-28T14:06:34Z</time>
      </trkpt>
      <trkpt lat="47.22006" lon="0.05004">
        <ele>84</ele>
        <time>2011-08-28T14:06:38Z</time>
      </trkpt>
      <trkpt lat="47.2201" lon="0.04999">
        <ele>84</ele>
        <time>2011-08-28T14:06:42Z</time>
      </trkpt>
      <trkpt lat="47.22013" lon="0.04993">
        <ele>84</ele>
        <time>2011-08-28T14:06:46Z</time>
      </trkpt>
      <trkpt lat="47.22016" lon="0.04987">
        <ele>84</ele>
        <time>2011-08-28T14:06:50Z</time>
      </trkpt>
      <trkpt lat="47.22019" lon="0.04981">
        <ele>84</ele>
        <time>2011-08-28T14:06:54Z</time>
      </trkpt>
      <trkpt lat="47.22022" lon="0.04976">
        <ele>84</ele>
        <time>2011-08-28T14:06:58Z</time>
      </trkpt>
      <trkpt lat="47.22026" lon="0.0497">
        <ele>84</ele>
        <time>2011-08-28T14:07:02Z</time>
      </trkpt>
      <trkpt lat="47.22029" lon="0.04966">
        <ele>84</ele>
        <time>2011-08-28T14:07:06Z</time>
      </trkpt>
      <trkpt lat="47.22033" lon="0.0496">
        <ele>84</ele>
        <time>2011-08-28T14:07:11Z</time>
      </trkpt>
      <trkpt lat="47.22037" lon="0.04955">
        <ele>84</ele>
        <time>2011-08-28T14:07:16Z</time>
      </trkpt>
      <trkpt lat="47.2204" lon="0.04951">
        <ele>84</ele>
        <time>2011-08-28T14:07:20Z</time>
      </trkpt>
      <trkpt lat="47.22044" lon="0.04947">
        <ele>84</ele>
        <time>2011-08-28T14:07:24Z</time>
      </trkpt>
      <trkpt lat="47.22049" lon="0.04944">
        <ele>84</ele>
        <time>2011-08-28T14:07:28Z</time>
      </trkpt>
      <trkpt lat="47.22054" lon="0.0494">
        <ele>84</ele>
        <time>2011-08-28T14:07:32Z</time>
      </trkpt>
      <trkpt lat="47.22059" lon="0.04936">
        <ele>84</ele>
        <time>2011-08-28T14:07:36Z</time>
      </trkpt>
      <trkpt lat="47.22063" lon="0.04932">
        <ele>84</ele>
        <time>2011-08-28T14:07:40Z</time>
      </trkpt>
      <trkpt lat="47.22068" lon="0.04927">
        <ele>84</ele>
        <time>2011-08-28T14:07:44Z</time>
      </trkpt>
      <trkpt lat="47.22072" lon="0.04922">
        <ele>84</ele>
        <time>2011-08-28T14:07:48Z</time>
      </trkpt>
      <trkpt lat="47.22076" lon="0.04918">
        <ele>84</ele>
        <time>2011-08-28T14:07:52Z</time>
      </trkpt>
      <trkpt lat="47.2208" lon="0.04913">
        <ele>84</ele>
        <time>2011-08-28T14:07:56Z</time>
      </trkpt>
      <trkpt lat="47.22085" lon="0.04909">
        <ele>84</ele>
        <time>2011-08-28T14:08:00Z</time>
      </trkpt>
      <trkpt lat="47.22089" lon="0.04905">
        <ele>84</ele>
        <time>2011-08-28T14:08:03Z</time>
      </trkpt>
      <trkpt lat="47.22094" lon="0.04901">
        <ele>84</ele>
        <time>2011-08-28T14:08:07Z</time>
      </trkpt>
      <trkpt lat="47.22098" lon="0.04896">
        <ele>85</ele>
        <time>2011-08-28T14:08:11Z</time>
      </trkpt>
      <trkpt lat="47.22102" lon="0.04892">
        <ele>85</ele>
        <time>2011-08-28T14:08:15Z</time>
      </trkpt>
      <trkpt lat="47.22106" lon="0.04888">
        <ele>85</ele>
        <time>2011-08-28T14:08:19Z</time>
      </trkpt>
      <trkpt lat="47.2211" lon="0.04884">
        <ele>85</ele>
        <time>2011-08-28T14:08:23Z</time>
      </trkpt>
      <trkpt lat="47.22115" lon="0.0488">
        <ele>85</ele>
        <time>2011-08-28T14:08:27Z</time>
      </trkpt>
      <trkpt lat="47.22119" lon="0.04875">
        <ele>85</ele>
        <time>2011-08-28T14:08:31Z</time>
      </trkpt>
      <trkpt lat="47.22123" lon="0.04871">
        <ele>85</ele>
        <time>2011-08-28T14:08:35Z</time>
      </trkpt>
      <trkpt lat="47.22126" lon="0.04867">
        <ele>85</ele>
        <time>2011-08-28T14:08:39Z</time>
      </trkpt>
      <trkpt lat="47.2213" lon="0.04863">
        <ele>85</ele>
        <time>2011-08-28T14:08:43Z</time>
      </trkpt>
      <trkpt lat="47.22133" lon="0.04858">
        <ele>85</ele>
        <time>2011-08-28T14:08:47Z</time>
      </trkpt>
      <trkpt lat="47.22137" lon="0.04854">
        <ele>85</ele>
        <time>2011-08-28T14:08:51Z</time>
      </trkpt>
      <trkpt lat="47.2214" lon="0.0485">
        <ele>85</ele>
        <time>2011-08-28T14:08:55Z</time>
      </trkpt>
      <trkpt lat="47.22144" lon="0.04845">
        <ele>85</ele>
        <time>2011-08-28T14:08:59Z</time>
      </trkpt>
      <trkpt lat="47.22148" lon="0.0484">
        <ele>85</ele>
        <time>2011-08-28T14:09:04Z</time>
      </trkpt>
      <trkpt lat="47.22152" lon="0.04834">
        <ele>84</ele>
        <time>2011-08-28T14:09:09Z</time>
      </trkpt>
      <trkpt lat="47.22156" lon="0.04829">
        <ele>84</ele>
        <time>2011-08-28T14:09:14Z</time>
      </trkpt>
      <trkpt lat="47.2216" lon="0.04825">
        <ele>84</ele>
        <time>2011-08-28T14:09:18Z</time>
      </trkpt>
      <trkpt lat="47.22164" lon="0.04821">
        <ele>84</ele>
        <time>2011-08-28T14:09:22Z</time>
      </trkpt>
      <trkpt lat="47.22169" lon="0.04817">
        <ele>84</ele>
        <time>2011-08-28T14:09:26Z</time>
      </trkpt>
      <trkpt lat="47.22173" lon="0.04812">
        <ele>84</ele>
        <time>2011-08-28T14:09:30Z</time>
      </trkpt>
      <trkpt lat="47.22177" lon="0.04808">
        <ele>84</ele>
        <time>2011-08-28T14:09:34Z</time>
      </trkpt>
      <trkpt lat="47.22181" lon="0.04803">
        <ele>84</ele>
        <time>2011-08-28T14:09:38Z</time>
      </trkpt>
      <trkpt lat="47.22185" lon="0.04798">
        <ele>84</ele>
        <time>2011-08-28T14:09:42Z</time>
      </trkpt>
      <trkpt lat="47.22189" lon="0.04794">
        <ele>84</ele>
        <time>2011-08-28T14:09:46Z</time>
      </trkpt>
      <trkpt lat="47.22193" lon="0.04788">
        <ele>84</ele>
        <time>2011-08-28T14:09:50Z</time>
      </trkpt>
      <trkpt lat="47.22197" lon="0.04784">
        <ele>84</ele>
        <time>2011-08-28T14:09:54Z</time>
      </trkpt>
      <trkpt lat="47.22201" lon="0.04779">
        <ele>84</ele>
        <time>2011-08-28T14:09:58Z</time>
      </trkpt>
      <trkpt lat="47.22205" lon="0.04774">
        <ele>84</ele>
        <time>2011-08-28T14:10:02Z</time>
      </trkpt>
      <trkpt lat="47.22209" lon="0.04769">
        <ele>84</ele>
        <time>2011-08-28T14:10:06Z</time>
      </trkpt>
      <trkpt lat="47.22212" lon="0.04764">
        <ele>84</ele>
        <time>2011-08-28T14:10:10Z</time>
      </trkpt>
      <trkpt lat="47.22216" lon="0.04759">
        <ele>84</ele>
        <time>2011-08-28T14:10:14Z</time>
      </trkpt>
      <trkpt lat="47.22219" lon="0.04754">
        <ele>84</ele>
        <time>2011-08-28T14:10:18Z</time>
      </trkpt>
      <trkpt lat="47.22222" lon="0.04749">
        <ele>84</ele>
        <time>2011-08-28T14:10:22Z</time>
      </trkpt>
      <trkpt lat="47.22226" lon="0.04744">
        <ele>84</ele>
        <time>2011-08-28T14:10:26Z</time>
      </trkpt>
      <trkpt lat="47.22229" lon="0.04739">
        <ele>84</ele>
        <time>2011-08-28T14:10:30Z</time>
      </trkpt>
      <trkpt lat="47.22232" lon="0.04734">
        <ele>84</ele>
        <time>2011-08-28T14:10:34Z</time>
      </trkpt>
      <trkpt lat="47.22235" lon="0.0473">
        <ele>84</ele>
        <time>2011-08-28T14:10:38Z</time>
      </trkpt>
      <trkpt lat="47.22238" lon="0.04725">
        <ele>84</ele>
        <time>2011-08-28T14:10:42Z</time>
      </trkpt>
      <trkpt lat="47.22242" lon="0.04719">
        <ele>84</ele>
        <time>2011-08-28T14:10:47Z</time>
      </trkpt>
      <trkpt lat="47.22245" lon="0.04713">
        <ele>84</ele>
        <time>2011-08-28T14:10:51Z</time>
      </trkpt>
      <trkpt lat="47.22248" lon="0.04708">
        <ele>84</ele>
        <time>2011-08-28T14:10:55Z</time>
      </trkpt>
      <trkpt lat="47.22251" lon="0.04702">
        <ele>84</ele>
        <time>2011-08-28T14:11:00Z</time>
      </trkpt>
      <trkpt lat="47.22254" lon="0.04695">
        <ele>84</ele>
        <time>2011-08-28T14:11:05Z</time>
      </trkpt>
      <trkpt lat="47.22257" lon="0.04689">
        <ele>84</ele>
        <time>2011-08-28T14:11:10Z</time>
      </trkpt>
      <trkpt lat="47.2226" lon="0.04683">
        <ele>84</ele>
        <time>2011-08-28T14:11:15Z</time>
      </trkpt>
      <trkpt lat="47.22262" lon="0.04677">
        <ele>84</ele>
        <time>2011-08-28T14:11:20Z</time>
      </trkpt>
      <trkpt lat="47.22266" lon="0.04671">
        <ele>84</ele>
        <time>2011-08-28T14:11:26Z</time>
      </trkpt>
      <trkpt lat="47.22269" lon="0.04666">
        <ele>84</ele>
        <time>2011-08-28T14:11:31Z</time>
      </trkpt>
      <trkpt lat="47.22272" lon="0.04659">
        <ele>84</ele>
        <time>2011-08-28T14:11:36Z</time>
      </trkpt>
      <trkpt lat="47.22276" lon="0.04654">
        <ele>84</ele>
        <time>2011-08-28T14:11:41Z</time>
      </trkpt>
      <trkpt lat="47.2228" lon="0.04649">
        <ele>84</ele>
        <time>2011-08-28T14:11:46Z</time>
      </trkpt>
      <trkpt lat="47.22284" lon="0.04643">
        <ele>84</ele>
        <time>2011-08-28T14:11:51Z</time>
      </trkpt>
      <trkpt lat="47.22288" lon="0.04639">
        <ele>84</ele>
        <time>2011-08-28T14:11:55Z</time>
      </trkpt>
      <trkpt lat="47.22292" lon="0.04634">
        <ele>85</ele>
        <time>2011-08-28T14:12:00Z</time>
      </trkpt>
      <trkpt lat="47.22296" lon="0.04628">
        <ele>85</ele>
        <time>2011-08-28T14:12:05Z</time>
      </trkpt>
      <trkpt lat="47.223" lon="0.04623">
        <ele>85</ele>
        <time>2011-08-28T14:12:10Z</time>
      </trkpt>
      <trkpt lat="47.22304" lon="0.04618">
        <ele>85</ele>
        <time>2011-08-28T14:12:15Z</time>
      </trkpt>
      <trkpt lat="47.22308" lon="0.04613">
        <ele>85</ele>
        <time>2011-08-28T14:12:20Z</time>
      </trkpt>
      <trkpt lat="47.22311" lon="0.04608">
        <ele>85</ele>
        <time>2011-08-28T14:12:24Z</time>
      </trkpt>
      <trkpt lat="47.22314" lon="0.04602">
        <ele>85</ele>
        <time>2011-08-28T14:12:29Z</time>
      </trkpt>
      <trkpt lat="47.22318" lon="0.04596">
        <ele>85</ele>
        <time>2011-08-28T14:12:34Z</time>
      </trkpt>
      <trkpt lat="47.22322" lon="0.04592">
        <ele>85</ele>
        <time>2011-08-28T14:12:39Z</time>
      </trkpt>
      <trkpt lat="47.22326" lon="0.04588">
        <ele>85</ele>
        <time>2011-08-28T14:12:44Z</time>
      </trkpt>
      <trkpt lat="47.2233" lon="0.04584">
        <ele>85</ele>
        <time>2011-08-28T14:12:49Z</time>
      </trkpt>
      <trkpt lat="47.22334" lon="0.0458">
        <ele>85</ele>
        <time>2011-08-28T14:12:53Z</time>
      </trkpt>
      <trkpt lat="47.22338" lon="0.04577">
        <ele>85</ele>
        <time>2011-08-28T14:12:57Z</time>
      </trkpt>
      <trkpt lat="47.22342" lon="0.04572">
        <ele>85</ele>
        <time>2011-08-28T14:13:01Z</time>
      </trkpt>
      <trkpt lat="47.22346" lon="0.04567">
        <ele>85</ele>
        <time>2011-08-28T14:13:05Z</time>
      </trkpt>
      <trkpt lat="47.22348" lon="0.04561">
        <ele>85</ele>
        <time>2011-08-28T14:13:09Z</time>
      </trkpt>
      <trkpt lat="47.22351" lon="0.04555">
        <ele>85</ele>
        <time>2011-08-28T14:13:13Z</time>
      </trkpt>
      <trkpt lat="47.22354" lon="0.04548">
        <ele>85</ele>
        <time>2011-08-28T14:13:17Z</time>
      </trkpt>
      <trkpt lat="47.22357" lon="0.04542">
        <ele>85</ele>
        <time>2011-08-28T14:13:21Z</time>
      </trkpt>
      <trkpt lat="47.22359" lon="0.04535">
        <ele>85</ele>
        <time>2011-08-28T14:13:25Z</time>
      </trkpt>
      <trkpt lat="47.22359" lon="0.04527">
        <ele>85</ele>
        <time>2011-08-28T14:13:31Z</time>
      </trkpt>
      <trkpt lat="47.22358" lon="0.04521">
        <ele>85</ele>
        <time>2011-08-28T14:13:39Z</time>
      </trkpt>
      <trkpt lat="47.22359" lon="0.04514">
        <ele>84</ele>
        <time>2011-08-28T14:14:11Z</time>
      </trkpt>
      <trkpt lat="47.22357" lon="0.04508">
        <ele>85</ele>
        <time>2011-08-28T14:14:49Z</time>
      </trkpt>
      <trkpt lat="47.22362" lon="0.04509">
        <ele>85</ele>
        <time>2011-08-28T14:15:52Z</time>
      </trkpt>
      <trkpt lat="47.22365" lon="0.04503">
        <ele>85</ele>
        <time>2011-08-28T14:15:58Z</time>
      </trkpt>
      <trkpt lat="47.22368" lon="0.04497">
        <ele>85</ele>
        <time>2011-08-28T14:16:03Z</time>
      </trkpt>
      <trkpt lat="47.2237" lon="0.04492">
        <ele>85</ele>
        <time>2011-08-28T14:16:07Z</time>
      </trkpt>
      <trkpt lat="47.22373" lon="0.04486">
        <ele>85</ele>
        <time>2011-08-28T14:16:11Z</time>
      </trkpt>
      <trkpt lat="47.22377" lon="0.0448">
        <ele>85</ele>
        <time>2011-08-28T14:16:16Z</time>
      </trkpt>
      <trkpt lat="47.22379" lon="0.04473">
        <ele>85</ele>
        <time>2011-08-28T14:16:21Z</time>
      </trkpt>
      <trkpt lat="47.22382" lon="0.04467">
        <ele>85</ele>
        <time>2011-08-28T14:16:25Z</time>
      </trkpt>
      <trkpt lat="47.22384" lon="0.04461">
        <ele>85</ele>
        <time>2011-08-28T14:16:29Z</time>
      </trkpt>
      <trkpt lat="47.22387" lon="0.04454">
        <ele>85</ele>
        <time>2011-08-28T14:16:34Z</time>
      </trkpt>
      <trkpt lat="47.22389" lon="0.04447">
        <ele>85</ele>
        <time>2011-08-28T14:16:39Z</time>
      </trkpt>
      <trkpt lat="47.2239" lon="0.0444">
        <ele>85</ele>
        <time>2011-08-28T14:16:43Z</time>
      </trkpt>
      <trkpt lat="47.22392" lon="0.04432">
        <ele>85</ele>
        <time>2011-08-28T14:16:48Z</time>
      </trkpt>
      <trkpt lat="47.22392" lon="0.04425">
        <ele>85</ele>
        <time>2011-08-28T14:16:53Z</time>
      </trkpt>
      <trkpt lat="47.22393" lon="0.04416">
        <ele>85</ele>
        <time>2011-08-28T14:16:58Z</time>
      </trkpt>
      <trkpt lat="47.22393" lon="0.0441">
        <ele>85</ele>
        <time>2011-08-28T14:17:02Z</time>
      </trkpt>
      <trkpt lat="47.22393" lon="0.04403">
        <ele>85</ele>
        <time>2011-08-28T14:17:06Z</time>
      </trkpt>
      <trkpt lat="47.22393" lon="0.04396">
        <ele>85</ele>
        <time>2011-08-28T14:17:10Z</time>
      </trkpt>
      <trkpt lat="47.22394" lon="0.04389">
        <ele>86</ele>
        <time>2011-08-28T14:17:14Z</time>
      </trkpt>
      <trkpt lat="47.22394" lon="0.04382">
        <ele>86</ele>
        <time>2011-08-28T14:17:18Z</time>
      </trkpt>
      <trkpt lat="47.22395" lon="0.04375">
        <ele>86</ele>
        <time>2011-08-28T14:17:22Z</time>
      </trkpt>
      <trkpt lat="47.22397" lon="0.04368">
        <ele>86</ele>
        <time>2011-08-28T14:17:26Z</time>
      </trkpt>
      <trkpt lat="47.22398" lon="0.0436">
        <ele>86</ele>
        <time>2011-08-28T14:17:30Z</time>
      </trkpt>
      <trkpt lat="47.224" lon="0.04353">
        <ele>86</ele>
        <time>2011-08-28T14:17:34Z</time>
      </trkpt>
      <trkpt lat="47.22402" lon="0.04346">
        <ele>86</ele>
        <time>2011-08-28T14:17:38Z</time>
      </trkpt>
      <trkpt lat="47.22404" lon="0.04339">
        <ele>86</ele>
        <time>2011-08-28T14:17:42Z</time>
      </trkpt>
      <trkpt lat="47.22406" lon="0.04332">
        <ele>86</ele>
        <time>2011-08-28T14:17:46Z</time>
      </trkpt>
      <trkpt lat="47.22408" lon="0.04325">
        <ele>87</ele>
        <time>2011-08-28T14:17:50Z</time>
      </trkpt>
      <trkpt lat="47.2241" lon="0.04318">
        <ele>87</ele>
        <time>2011-08-28T14:17:54Z</time>
      </trkpt>
      <trkpt lat="47.22411" lon="0.04311">
        <ele>87</ele>
        <time>2011-08-28T14:17:58Z</time>
      </trkpt>
      <trkpt lat="47.22413" lon="0.04304">
        <ele>87</ele>
        <time>2011-08-28T14:18:02Z</time>
      </trkpt>
      <trkpt lat="47.22415" lon="0.04297">
        <ele>87</ele>
        <time>2011-08-28T14:18:06Z</time>
      </trkpt>
      <trkpt lat="47.22417" lon="0.04291">
        <ele>87</ele>
        <time>2011-08-28T14:18:10Z</time>
      </trkpt>
      <trkpt lat="47.22419" lon="0.04285">
        <ele>87</ele>
        <time>2011-08-28T14:18:14Z</time>
      </trkpt>
      <trkpt lat="47.22422" lon="0.04279">
        <ele>87</ele>
        <time>2011-08-28T14:18:18Z</time>
      </trkpt>
      <trkpt lat="47.22425" lon="0.04274">
        <ele>87</ele>
        <time>2011-08-28T14:18:22Z</time>
      </trkpt>
      <trkpt lat="47.22428" lon="0.04269">
        <ele>87</ele>
        <time>2011-08-28T14:18:26Z</time>
      </trkpt>
      <trkpt lat="47.22431" lon="0.04264">
        <ele>87</ele>
        <time>2011-08-28T14:18:30Z</time>
      </trkpt>
      <trkpt lat="47.22434" lon="0.04259">
        <ele>87</ele>
        <time>2011-08-28T14:18:34Z</time>
      </trkpt>
      <trkpt lat="47.22437" lon="0.04254">
        <ele>87</ele>
        <time>2011-08-28T14:18:38Z</time>
      </trkpt>
      <trkpt lat="47.22441" lon="0.04249">
        <ele>87</ele>
        <time>2011-08-28T14:18:42Z</time>
      </trkpt>
      <trkpt lat="47.22444" lon="0.04244">
        <ele>87</ele>
        <time>2011-08-28T14:18:46Z</time>
      </trkpt>
      <trkpt lat="47.22448" lon="0.04238">
        <ele>87</ele>
        <time>2011-08-28T14:18:50Z</time>
      </trkpt>
      <trkpt lat="47.22452" lon="0.04231">
        <ele>87</ele>
        <time>2011-08-28T14:18:54Z</time>
      </trkpt>
      <trkpt lat="47.22456" lon="0.04226">
        <ele>87</ele>
        <time>2011-08-28T14:18:58Z</time>
      </trkpt>
      <trkpt lat="47.2246" lon="0.0422">
        <ele>87</ele>
        <time>2011-08-28T14:19:02Z</time>
      </trkpt>
      <trkpt lat="47.22464" lon="0.04215">
        <ele>87</ele>
        <time>2011-08-28T14:19:06Z</time>
      </trkpt>
      <trkpt lat="47.22468" lon="0.04209">
        <ele>87</ele>
        <time>2011-08-28T14:19:10Z</time>
      </trkpt>
      <trkpt lat="47.22471" lon="0.04203">
        <ele>87</ele>
        <time>2011-08-28T14:19:14Z</time>
      </trkpt>
      <trkpt lat="47.22474" lon="0.04197">
        <ele>87</ele>
        <time>2011-08-28T14:19:18Z</time>
      </trkpt>
      <trkpt lat="47.22477" lon="0.04191">
        <ele>87</ele>
        <time>2011-08-28T14:19:22Z</time>
      </trkpt>
      <trkpt lat="47.2248" lon="0.04184">
        <ele>87</ele>
        <time>2011-08-28T14:19:26Z</time>
      </trkpt>
      <trkpt lat="47.22483" lon="0.04178">
        <ele>87</ele>
        <time>2011-08-28T14:19:30Z</time>
      </trkpt>
      <trkpt lat="47.22486" lon="0.04172">
        <ele>87</ele>
        <time>2011-08-28T14:19:34Z</time>
      </trkpt>
      <trkpt lat="47.22489" lon="0.04166">
        <ele>86</ele>
        <time>2011-08-28T14:19:38Z</time>
      </trkpt>
      <trkpt lat="47.22492" lon="0.0416">
        <ele>86</ele>
        <time>2011-08-28T14:19:42Z</time>
      </trkpt>
      <trkpt lat="47.22495" lon="0.04154">
        <ele>86</ele>
        <time>2011-08-28T14:19:46Z</time>
      </trkpt>
      <trkpt lat="47.22498" lon="0.04147">
        <ele>86</ele>
        <time>2011-08-28T14:19:50Z</time>
      </trkpt>
      <trkpt lat="47.22502" lon="0.04141">
        <ele>86</ele>
        <time>2011-08-28T14:19:54Z</time>
      </trkpt>
      <trkpt lat="47.22505" lon="0.04136">
        <ele>86</ele>
        <time>2011-08-28T14:19:58Z</time>
      </trkpt>
      <trkpt lat="47.22508" lon="0.0413">
        <ele>86</ele>
        <time>2011-08-28T14:20:02Z</time>
      </trkpt>
      <trkpt lat="47.22511" lon="0.04124">
        <ele>86</ele>
        <time>2011-08-28T14:20:06Z</time>
      </trkpt>
      <trkpt lat="47.22514" lon="0.04118">
        <ele>86</ele>
        <time>2011-08-28T14:20:10Z</time>
      </trkpt>
      <trkpt lat="47.22517" lon="0.04112">
        <ele>86</ele>
        <time>2011-08-28T14:20:14Z</time>
      </trkpt>
      <trkpt lat="47.2252" lon="0.04106">
        <ele>86</ele>
        <time>2011-08-28T14:20:18Z</time>
      </trkpt>
      <trkpt lat="47.22523" lon="0.04101">
        <ele>86</ele>
        <time>2011-08-28T14:20:22Z</time>
      </trkpt>
      <trkpt lat="47.22526" lon="0.04096">
        <ele>85</ele>
        <time>2011-08-28T14:20:26Z</time>
      </trkpt>
      <trkpt lat="47.2253" lon="0.0409">
        <ele>85</ele>
        <time>2011-08-28T14:20:30Z</time>
      </trkpt>
      <trkpt lat="47.22534" lon="0.04085">
        <ele>85</ele>
        <time>2011-08-28T14:20:34Z</time>
      </trkpt>
      <trkpt lat="47.22538" lon="0.0408">
        <ele>85</ele>
        <time>2011-08-28T14:20:38Z</time>
      </trkpt>
      <trkpt lat="47.22541" lon="0.04074">
        <ele>85</ele>
        <time>2011-08-28T14:20:42Z</time>
      </trkpt>
      <trkpt lat="47.22545" lon="0.04068">
        <ele>85</ele>
        <time>2011-08-28T14:20:46Z</time>
      </trkpt>
      <trkpt lat="47.22548" lon="0.04063">
        <ele>85</ele>
        <time>2011-08-28T14:20:50Z</time>
      </trkpt>
      <trkpt lat="47.22551" lon="0.04058">
        <ele>85</ele>
        <time>2011-08-28T14:20:54Z</time>
      </trkpt>
      <trkpt lat="47.22554" lon="0.04052">
        <ele>85</ele>
        <time>2011-08-28T14:20:58Z</time>
      </trkpt>
      <trkpt lat="47.22557" lon="0.04045">
        <ele>85</ele>
        <time>2011-08-28T14:21:02Z</time>
      </trkpt>
      <trkpt lat="47.22559" lon="0.04039">
        <ele>85</ele>
        <time>2011-08-28T14:21:06Z</time>
      </trkpt>
      <trkpt lat="47.22561" lon="0.04032">
        <ele>85</ele>
        <time>2011-08-28T14:21:10Z</time>
      </trkpt>
      <trkpt lat="47.22562" lon="0.04026">
        <ele>85</ele>
        <time>2011-08-28T14:21:14Z</time>
      </trkpt>
      <trkpt lat="47.22564" lon="0.04019">
        <ele>85</ele>
        <time>2011-08-28T14:21:18Z</time>
      </trkpt>
      <trkpt lat="47.22566" lon="0.04013">
        <ele>85</ele>
        <time>2011-08-28T14:21:22Z</time>
      </trkpt>
      <trkpt lat="47.22568" lon="0.04005">
        <ele>85</ele>
        <time>2011-08-28T14:21:27Z</time>
      </trkpt>
      <trkpt lat="47.2257" lon="0.03998">
        <ele>85</ele>
        <time>2011-08-28T14:21:32Z</time>
      </trkpt>
      <trkpt lat="47.22572" lon="0.03992">
        <ele>85</ele>
        <time>2011-08-28T14:21:36Z</time>
      </trkpt>
      <trkpt lat="47.22576" lon="0.03987">
        <ele>85</ele>
        <time>2011-08-28T14:21:40Z</time>
      </trkpt>
      <trkpt lat="47.22578" lon="0.03981">
        <ele>85</ele>
        <time>2011-08-28T14:21:44Z</time>
      </trkpt>
      <trkpt lat="47.22581" lon="0.03975">
        <ele>85</ele>
        <time>2011-08-28T14:21:48Z</time>
      </trkpt>
      <trkpt lat="47.22583" lon="0.03969">
        <ele>85</ele>
        <time>2011-08-28T14:21:52Z</time>
      </trkpt>
      <trkpt lat="47.22585" lon="0.03963">
        <ele>85</ele>
        <time>2011-08-28T14:21:56Z</time>
      </trkpt>
      <trkpt lat="47.22587" lon="0.03956">
        <ele>85</ele>
        <time>2011-08-28T14:22:00Z</time>
      </trkpt>
      <trkpt lat="47.2259" lon="0.0395">
        <ele>85</ele>
        <time>2011-08-28T14:22:04Z</time>
      </trkpt>
      <trkpt lat="47.22592" lon="0.03944">
        <ele>85</ele>
        <time>2011-08-28T14:22:08Z</time>
      </trkpt>
      <trkpt lat="47.22595" lon="0.03937">
        <ele>85</ele>
        <time>2011-08-28T14:22:12Z</time>
      </trkpt>
      <trkpt lat="47.22597" lon="0.0393">
        <ele>85</ele>
        <time>2011-08-28T14:22:16Z</time>
      </trkpt>
      <trkpt lat="47.226" lon="0.03924">
        <ele>85</ele>
        <time>2011-08-28T14:22:20Z</time>
      </trkpt>
      <trkpt lat="47.22602" lon="0.03917">
        <ele>85</ele>
        <time>2011-08-28T14:22:24Z</time>
      </trkpt>
      <trkpt lat="47.22605" lon="0.0391">
        <ele>85</ele>
        <time>2011-08-28T14:22:28Z</time>
      </trkpt>
      <trkpt lat="47.22608" lon="0.03903">
        <ele>85</ele>
        <time>2011-08-28T14:22:32Z</time>
      </trkpt>
      <trkpt lat="47.2261" lon="0.03896">
        <ele>85</ele>
        <time>2011-08-28T14:22:36Z</time>
      </trkpt>
      <trkpt lat="47.22612" lon="0.03889">
        <ele>85</ele>
        <time>2011-08-28T14:22:40Z</time>
      </trkpt>
      <trkpt lat="47.22614" lon="0.03882">
        <ele>86</ele>
        <time>2011-08-28T14:22:44Z</time>
      </trkpt>
      <trkpt lat="47.22615" lon="0.03874">
        <ele>86</ele>
        <time>2011-08-28T14:22:48Z</time>
      </trkpt>
      <trkpt lat="47.22617" lon="0.03867">
        <ele>86</ele>
        <time>2011-08-28T14:22:52Z</time>
      </trkpt>
      <trkpt lat="47.22619" lon="0.03859">
        <ele>86</ele>
        <time>2011-08-28T14:22:56Z</time>
      </trkpt>
      <trkpt lat="47.22621" lon="0.03853">
        <ele>86</ele>
        <time>2011-08-28T14:22:59Z</time>
      </trkpt>
      <trkpt lat="47.22624" lon="0.03847">
        <ele>86</ele>
        <time>2011-08-28T14:23:02Z</time>
      </trkpt>
      <trkpt lat="47.22626" lon="0.03841">
        <ele>86</ele>
        <time>2011-08-28T14:23:05Z</time>
      </trkpt>
      <trkpt lat="47.22629" lon="0.03835">
        <ele>86</ele>
        <time>2011-08-28T14:23:08Z</time>
      </trkpt>
      <trkpt lat="47.22631" lon="0.03829">
        <ele>86</ele>
        <time>2011-08-28T14:23:11Z</time>
      </trkpt>
      <trkpt lat="47.22633" lon="0.03822">
        <ele>86</ele>
        <time>2011-08-28T14:23:14Z</time>
      </trkpt>
      <trkpt lat="47.22635" lon="0.03814">
        <ele>86</ele>
        <time>2011-08-28T14:23:18Z</time>
      </trkpt>
      <trkpt lat="47.22637" lon="0.03808">
        <ele>86</ele>
        <time>2011-08-28T14:23:21Z</time>
      </trkpt>
      <trkpt lat="47.22639" lon="0.03802">
        <ele>86</ele>
        <time>2011-08-28T14:23:24Z</time>
      </trkpt>
      <trkpt lat="47.22641" lon="0.03794">
        <ele>86</ele>
        <time>2011-08-28T14:23:28Z</time>
      </trkpt>
      <trkpt lat="47.22644" lon="0.03786">
        <ele>87</ele>
        <time>2011-08-28T14:23:32Z</time>
      </trkpt>
      <trkpt lat="47.22646" lon="0.03779">
        <ele>87</ele>
        <time>2011-08-28T14:23:36Z</time>
      </trkpt>
      <trkpt lat="47.22648" lon="0.03771">
        <ele>87</ele>
        <time>2011-08-28T14:23:40Z</time>
      </trkpt>
      <trkpt lat="47.22649" lon="0.03764">
        <ele>87</ele>
        <time>2011-08-28T14:23:44Z</time>
      </trkpt>
      <trkpt lat="47.2265" lon="0.03756">
        <ele>87</ele>
        <time>2011-08-28T14:23:48Z</time>
      </trkpt>
      <trkpt lat="47.22652" lon="0.03748">
        <ele>87</ele>
        <time>2011-08-28T14:23:52Z</time>
      </trkpt>
      <trkpt lat="47.22653" lon="0.0374">
        <ele>87</ele>
        <time>2011-08-28T14:23:56Z</time>
      </trkpt>
      <trkpt lat="47.22654" lon="0.03733">
        <ele>87</ele>
        <time>2011-08-28T14:23:59Z</time>
      </trkpt>
      <trkpt lat="47.22655" lon="0.03726">
        <ele>87</ele>
        <time>2011-08-28T14:24:02Z</time>
      </trkpt>
      <trkpt lat="47.22656" lon="0.0372">
        <ele>87</ele>
        <time>2011-08-28T14:24:05Z</time>
      </trkpt>
      <trkpt lat="47.22658" lon="0.03711">
        <ele>87</ele>
        <time>2011-08-28T14:24:09Z</time>
      </trkpt>
      <trkpt lat="47.22659" lon="0.03703">
        <ele>87</ele>
        <time>2011-08-28T14:24:13Z</time>
      </trkpt>
      <trkpt lat="47.22661" lon="0.03696">
        <ele>87</ele>
        <time>2011-08-28T14:24:17Z</time>
      </trkpt>
      <trkpt lat="47.22663" lon="0.03688">
        <ele>87</ele>
        <time>2011-08-28T14:24:21Z</time>
      </trkpt>
      <trkpt lat="47.22664" lon="0.0368">
        <ele>87</ele>
        <time>2011-08-28T14:24:25Z</time>
      </trkpt>
      <trkpt lat="47.22666" lon="0.03672">
        <ele>87</ele>
        <time>2011-08-28T14:24:29Z</time>
      </trkpt>
      <trkpt lat="47.22667" lon="0.03665">
        <ele>87</ele>
        <time>2011-08-28T14:24:33Z</time>
      </trkpt>
      <trkpt lat="47.22669" lon="0.03658">
        <ele>88</ele>
        <time>2011-08-28T14:24:37Z</time>
      </trkpt>
      <trkpt lat="47.22671" lon="0.03651">
        <ele>88</ele>
        <time>2011-08-28T14:24:41Z</time>
      </trkpt>
      <trkpt lat="47.22672" lon="0.03643">
        <ele>88</ele>
        <time>2011-08-28T14:24:45Z</time>
      </trkpt>
      <trkpt lat="47.22674" lon="0.03636">
        <ele>88</ele>
        <time>2011-08-28T14:24:49Z</time>
      </trkpt>
      <trkpt lat="47.22676" lon="0.03629">
        <ele>88</ele>
        <time>2011-08-28T14:24:53Z</time>
      </trkpt>
      <trkpt lat="47.22677" lon="0.03622">
        <ele>88</ele>
        <time>2011-08-28T14:24:57Z</time>
      </trkpt>
      <trkpt lat="47.22679" lon="0.03615">
        <ele>88</ele>
        <time>2011-08-28T14:25:01Z</time>
      </trkpt>
      <trkpt lat="47.22681" lon="0.03609">
        <ele>88</ele>
        <time>2011-08-28T14:25:05Z</time>
      </trkpt>
      <trkpt lat="47.22683" lon="0.03602">
        <ele>88</ele>
        <time>2011-08-28T14:25:09Z</time>
      </trkpt>
      <trkpt lat="47.22684" lon="0.03596">
        <ele>88</ele>
        <time>2011-08-28T14:25:13Z</time>
      </trkpt>
      <trkpt lat="47.22686" lon="0.03589">
        <ele>88</ele>
        <time>2011-08-28T14:25:17Z</time>
      </trkpt>
      <trkpt lat="47.22688" lon="0.03582">
        <ele>88</ele>
        <time>2011-08-28T14:25:21Z</time>
      </trkpt>
      <trkpt lat="47.2269" lon="0.03576">
        <ele>88</ele>
        <time>2011-08-28T14:25:25Z</time>
      </trkpt>
      <trkpt lat="47.22692" lon="0.03568">
        <ele>88</ele>
        <time>2011-08-28T14:25:29Z</time>
      </trkpt>
      <trkpt lat="47.22694" lon="0.0356">
        <ele>88</ele>
        <time>2011-08-28T14:25:33Z</time>
      </trkpt>
      <trkpt lat="47.22697" lon="0.03553">
        <ele>88</ele>
        <time>2011-08-28T14:25:37Z</time>
      </trkpt>
      <trkpt lat="47.22699" lon="0.03546">
        <ele>88</ele>
        <time>2011-08-28T14:25:41Z</time>
      </trkpt>
      <trkpt lat="47.22701" lon="0.03538">
        <ele>88</ele>
        <time>2011-08-28T14:25:45Z</time>
      </trkpt>
      <trkpt lat="47.22704" lon="0.03531">
        <ele>88</ele>
        <time>2011-08-28T14:25:49Z</time>
      </trkpt>
      <trkpt lat="47.22706" lon="0.03523">
        <ele>88</ele>
        <time>2011-08-28T14:25:53Z</time>
      </trkpt>
      <trkpt lat="47.22709" lon="0.03516">
        <ele>88</ele>
        <time>2011-08-28T14:25:57Z</time>
      </trkpt>
      <trkpt lat="47.22711" lon="0.03509">
        <ele>88</ele>
        <time>2011-08-28T14:26:01Z</time>
      </trkpt>
      <trkpt lat="47.22714" lon="0.03503">
        <ele>88</ele>
        <time>2011-08-28T14:26:05Z</time>
      </trkpt>
      <trkpt lat="47.22716" lon="0.03496">
        <ele>88</ele>
        <time>2011-08-28T14:26:09Z</time>
      </trkpt>
      <trkpt lat="47.22719" lon="0.0349">
        <ele>88</ele>
        <time>2011-08-28T14:26:13Z</time>
      </trkpt>
      <trkpt lat="47.22721" lon="0.03484">
        <ele>88</ele>
        <time>2011-08-28T14:26:17Z</time>
      </trkpt>
      <trkpt lat="47.22723" lon="0.03478">
        <ele>88</ele>
        <time>2011-08-28T14:26:21Z</time>
      </trkpt>
      <trkpt lat="47.22725" lon="0.0347">
        <ele>88</ele>
        <time>2011-08-28T14:26:25Z</time>
      </trkpt>
      <trkpt lat="47.22727" lon="0.03462">
        <ele>88</ele>
        <time>2011-08-28T14:26:29Z</time>
      </trkpt>
      <trkpt lat="47.22729" lon="0.03455">
        <ele>88</ele>
        <time>2011-08-28T14:26:33Z</time>
      </trkpt>
      <trkpt lat="47.22732" lon="0.03448">
        <ele>88</ele>
        <time>2011-08-28T14:26:37Z</time>
      </trkpt>
      <trkpt lat="47.22735" lon="0.03441">
        <ele>88</ele>
        <time>2011-08-28T14:26:41Z</time>
      </trkpt>
      <trkpt lat="47.22738" lon="0.03434">
        <ele>88</ele>
        <time>2011-08-28T14:26:45Z</time>
      </trkpt>
      <trkpt lat="47.2274" lon="0.03428">
        <ele>88</ele>
        <time>2011-08-28T14:26:49Z</time>
      </trkpt>
      <trkpt lat="47.22742" lon="0.03421">
        <ele>88</ele>
        <time>2011-08-28T14:26:53Z</time>
      </trkpt>
      <trkpt lat="47.22744" lon="0.03414">
        <ele>88</ele>
        <time>2011-08-28T14:26:57Z</time>
      </trkpt>
      <trkpt lat="47.22747" lon="0.03408">
        <ele>88</ele>
        <time>2011-08-28T14:27:01Z</time>
      </trkpt>
      <trkpt lat="47.2275" lon="0.03402">
        <ele>88</ele>
        <time>2011-08-28T14:27:05Z</time>
      </trkpt>
      <trkpt lat="47.22753" lon="0.03395">
        <ele>88</ele>
        <time>2011-08-28T14:27:09Z</time>
      </trkpt>
      <trkpt lat="47.22755" lon="0.03389">
        <ele>88</ele>
        <time>2011-08-28T14:27:13Z</time>
      </trkpt>
      <trkpt lat="47.22758" lon="0.03382">
        <ele>88</ele>
        <time>2011-08-28T14:27:17Z</time>
      </trkpt>
      <trkpt lat="47.22761" lon="0.03375">
        <ele>88</ele>
        <time>2011-08-28T14:27:21Z</time>
      </trkpt>
      <trkpt lat="47.22764" lon="0.0337">
        <ele>87</ele>
        <time>2011-08-28T14:27:24Z</time>
      </trkpt>
      <trkpt lat="47.22767" lon="0.03365">
        <ele>87</ele>
        <time>2011-08-28T14:27:27Z</time>
      </trkpt>
      <trkpt lat="47.22771" lon="0.03359">
        <ele>87</ele>
        <time>2011-08-28T14:27:31Z</time>
      </trkpt>
      <trkpt lat="47.22774" lon="0.03352">
        <ele>87</ele>
        <time>2011-08-28T14:27:35Z</time>
      </trkpt>
      <trkpt lat="47.22778" lon="0.03346">
        <ele>87</ele>
        <time>2011-08-28T14:27:39Z</time>
      </trkpt>
      <trkpt lat="47.22781" lon="0.0334">
        <ele>87</ele>
        <time>2011-08-28T14:27:43Z</time>
      </trkpt>
      <trkpt lat="47.22784" lon="0.03334">
        <ele>87</ele>
        <time>2011-08-28T14:27:47Z</time>
      </trkpt>
      <trkpt lat="47.22786" lon="0.03328">
        <ele>87</ele>
        <time>2011-08-28T14:27:51Z</time>
      </trkpt>
      <trkpt lat="47.2279" lon="0.03323">
        <ele>86</ele>
        <time>2011-08-28T14:27:55Z</time>
      </trkpt>
      <trkpt lat="47.22792" lon="0.03318">
        <ele>86</ele>
        <time>2011-08-28T14:27:59Z</time>
      </trkpt>
      <trkpt lat="47.22795" lon="0.03312">
        <ele>86</ele>
        <time>2011-08-28T14:28:03Z</time>
      </trkpt>
      <trkpt lat="47.22798" lon="0.03306">
        <ele>86</ele>
        <time>2011-08-28T14:28:07Z</time>
      </trkpt>
      <trkpt lat="47.228" lon="0.033">
        <ele>86</ele>
        <time>2011-08-28T14:28:11Z</time>
      </trkpt>
      <trkpt lat="47.22804" lon="0.03294">
        <ele>85</ele>
        <time>2011-08-28T14:28:15Z</time>
      </trkpt>
      <trkpt lat="47.22806" lon="0.03288">
        <ele>85</ele>
        <time>2011-08-28T14:28:19Z</time>
      </trkpt>
      <trkpt lat="47.2281" lon="0.03282">
        <ele>85</ele>
        <time>2011-08-28T14:28:23Z</time>
      </trkpt>
      <trkpt lat="47.22813" lon="0.03277">
        <ele>85</ele>
        <time>2011-08-28T14:28:27Z</time>
      </trkpt>
      <trkpt lat="47.22816" lon="0.03272">
        <ele>85</ele>
        <time>2011-08-28T14:28:31Z</time>
      </trkpt>
      <trkpt lat="47.2282" lon="0.03266">
        <ele>85</ele>
        <time>2011-08-28T14:28:35Z</time>
      </trkpt>
      <trkpt lat="47.22823" lon="0.03261">
        <ele>85</ele>
        <time>2011-08-28T14:28:39Z</time>
      </trkpt>
      <trkpt lat="47.22826" lon="0.03256">
        <ele>85</ele>
        <time>2011-08-28T14:28:43Z</time>
      </trkpt>
      <trkpt lat="47.22829" lon="0.03251">
        <ele>85</ele>
        <time>2011-08-28T14:28:47Z</time>
      </trkpt>
      <trkpt lat="47.22834" lon="0.03246">
        <ele>85</ele>
        <time>2011-08-28T14:28:52Z</time>
      </trkpt>
      <trkpt lat="47.22838" lon="0.03243">
        <ele>85</ele>
        <time>2011-08-28T14:28:57Z</time>
      </trkpt>
      <trkpt lat="47.22842" lon="0.0324">
        <ele>85</ele>
        <time>2011-08-28T14:29:02Z</time>
      </trkpt>
      <trkpt lat="47.22847" lon="0.03238">
        <ele>85</ele>
        <time>2011-08-28T14:29:07Z</time>
      </trkpt>
      <trkpt lat="47.22852" lon="0.03236">
        <ele>85</ele>
        <time>2011-08-28T14:29:12Z</time>
      </trkpt>
      <trkpt lat="47.22856" lon="0.03233">
        <ele>85</ele>
        <time>2011-08-28T14:29:17Z</time>
      </trkpt>
      <trkpt lat="47.2286" lon="0.03229">
        <ele>85</ele>
        <time>2011-08-28T14:29:21Z</time>
      </trkpt>
      <trkpt lat="47.22865" lon="0.03225">
        <ele>85</ele>
        <time>2011-08-28T14:29:25Z</time>
      </trkpt>
      <trkpt lat="47.22869" lon="0.03221">
        <ele>85</ele>
        <time>2011-08-28T14:29:28Z</time>
      </trkpt>
      <trkpt lat="47.22874" lon="0.03219">
        <ele>85</ele>
        <time>2011-08-28T14:29:30Z</time>
      </trkpt>
      <trkpt lat="47.22878" lon="0.03216">
        <ele>85</ele>
        <time>2011-08-28T14:29:32Z</time>
      </trkpt>
      <trkpt lat="47.22883" lon="0.03212">
        <ele>85</ele>
        <time>2011-08-28T14:29:35Z</time>
      </trkpt>
      <trkpt lat="47.22886" lon="0.03207">
        <ele>85</ele>
        <time>2011-08-28T14:29:38Z</time>
      </trkpt>
      <trkpt lat="47.2289" lon="0.032">
        <ele>85</ele>
        <time>2011-08-28T14:29:42Z</time>
      </trkpt>
      <trkpt lat="47.22892" lon="0.03194">
        <ele>85</ele>
        <time>2011-08-28T14:29:46Z</time>
      </trkpt>
      <trkpt lat="47.22894" lon="0.03188">
        <ele>85</ele>
        <time>2011-08-28T14:29:50Z</time>
      </trkpt>
      <trkpt lat="47.22896" lon="0.03181">
        <ele>85</ele>
        <time>2011-08-28T14:29:55Z</time>
      </trkpt>
      <trkpt lat="47.22899" lon="0.03175">
        <ele>85</ele>
        <time>2011-08-28T14:30:00Z</time>
      </trkpt>
      <trkpt lat="47.22902" lon="0.03169">
        <ele>85</ele>
        <time>2011-08-28T14:30:05Z</time>
      </trkpt>
      <trkpt lat="47.22906" lon="0.03164">
        <ele>85</ele>
        <time>2011-08-28T14:30:10Z</time>
      </trkpt>
      <trkpt lat="47.22909" lon="0.03158">
        <ele>85</ele>
        <time>2011-08-28T14:30:15Z</time>
      </trkpt>
      <trkpt lat="47.22913" lon="0.03154">
        <ele>84</ele>
        <time>2011-08-28T14:30:20Z</time>
      </trkpt>
      <trkpt lat="47.22917" lon="0.03149">
        <ele>84</ele>
        <time>2011-08-28T14:30:26Z</time>
      </trkpt>
      <trkpt lat="47.2292" lon="0.03143">
        <ele>84</ele>
        <time>2011-08-28T14:30:32Z</time>
      </trkpt>
      <trkpt lat="47.22918" lon="0.03137">
        <ele>84</ele>
        <time>2011-08-28T14:30:54Z</time>
      </trkpt>
      <trkpt lat="47.22918" lon="0.03144">
        <ele>84</ele>
        <time>2011-08-28T14:31:23Z</time>
      </trkpt>
      <trkpt lat="47.22921" lon="0.03149">
        <ele>84</ele>
        <time>2011-08-28T14:32:19Z</time>
      </trkpt>
      <trkpt lat="47.22922" lon="0.03142">
        <ele>84</ele>
        <time>2011-08-28T14:33:18Z</time>
      </trkpt>
      <trkpt lat="47.22918" lon="0.03137">
        <ele>84</ele>
        <time>2011-08-28T14:35:34Z</time>
      </trkpt>
      <trkpt lat="47.22916" lon="0.0313">
        <ele>84</ele>
        <time>2011-08-28T14:35:39Z</time>
      </trkpt>
      <trkpt lat="47.22912" lon="0.03124">
        <ele>84</ele>
        <time>2011-08-28T14:35:44Z</time>
      </trkpt>
      <trkpt lat="47.22909" lon="0.03119">
        <ele>84</ele>
        <time>2011-08-28T14:35:49Z</time>
      </trkpt>
      <trkpt lat="47.22904" lon="0.03117">
        <ele>84</ele>
        <time>2011-08-28T14:35:54Z</time>
      </trkpt>
      <trkpt lat="47.22899" lon="0.03115">
        <ele>84</ele>
        <time>2011-08-28T14:35:59Z</time>
      </trkpt>
      <trkpt lat="47.22895" lon="0.03112">
        <ele>84</ele>
        <time>2011-08-28T14:36:04Z</time>
      </trkpt>
      <trkpt lat="47.22891" lon="0.03108">
        <ele>84</ele>
        <time>2011-08-28T14:36:09Z</time>
      </trkpt>
      <trkpt lat="47.22886" lon="0.03104">
        <ele>84</ele>
        <time>2011-08-28T14:36:15Z</time>
      </trkpt>
      <trkpt lat="47.22882" lon="0.031">
        <ele>84</ele>
        <time>2011-08-28T14:36:21Z</time>
      </trkpt>
      <trkpt lat="47.22877" lon="0.03098">
        <ele>84</ele>
        <time>2011-08-28T14:36:27Z</time>
      </trkpt>
      <trkpt lat="47.22872" lon="0.03095">
        <ele>84</ele>
        <time>2011-08-28T14:36:33Z</time>
      </trkpt>
      <trkpt lat="47.22868" lon="0.03092">
        <ele>84</ele>
        <time>2011-08-28T14:36:39Z</time>
      </trkpt>
      <trkpt lat="47.22863" lon="0.03088">
        <ele>84</ele>
        <time>2011-08-28T14:36:45Z</time>
      </trkpt>
      <trkpt lat="47.22858" lon="0.03084">
        <ele>85</ele>
        <time>2011-08-28T14:36:51Z</time>
      </trkpt>
      <trkpt lat="47.22854" lon="0.03081">
        <ele>85</ele>
        <time>2011-08-28T14:37:00Z</time>
      </trkpt>
      <trkpt lat="47.22851" lon="0.03076">
        <ele>84</ele>
        <time>2011-08-28T14:37:09Z</time>
      </trkpt>
      <trkpt lat="47.22848" lon="0.03071">
        <ele>83</ele>
        <time>2011-08-28T14:37:16Z</time>
      </trkpt>
      <trkpt lat="47.22843" lon="0.03067">
        <ele>83</ele>
        <time>2011-08-28T14:37:21Z</time>
      </trkpt>
      <trkpt lat="47.22838" lon="0.03062">
        <ele>82</ele>
        <time>2011-08-28T14:37:24Z</time>
      </trkpt>
      <trkpt lat="47.22832" lon="0.03059">
        <ele>82</ele>
        <time>2011-08-28T14:37:27Z</time>
      </trkpt>
      <trkpt lat="47.22826" lon="0.03057">
        <ele>81</ele>
        <time>2011-08-28T14:37:30Z</time>
      </trkpt>
      <trkpt lat="47.2282" lon="0.03056">
        <ele>81</ele>
        <time>2011-08-28T14:37:33Z</time>
      </trkpt>
      <trkpt lat="47.22814" lon="0.03055">
        <ele>81</ele>
        <time>2011-08-28T14:37:36Z</time>
      </trkpt>
      <trkpt lat="47.22808" lon="0.03054">
        <ele>80</ele>
        <time>2011-08-28T14:37:39Z</time>
      </trkpt>
      <trkpt lat="47.22803" lon="0.03053">
        <ele>80</ele>
        <time>2011-08-28T14:37:42Z</time>
      </trkpt>
      <trkpt lat="47.22798" lon="0.03052">
        <ele>80</ele>
        <time>2011-08-28T14:37:45Z</time>
      </trkpt>
      <trkpt lat="47.22793" lon="0.0305">
        <ele>80</ele>
        <time>2011-08-28T14:37:48Z</time>
      </trkpt>
      <trkpt lat="47.22788" lon="0.03049">
        <ele>79</ele>
        <time>2011-08-28T14:37:51Z</time>
      </trkpt>
      <trkpt lat="47.22783" lon="0.03048">
        <ele>79</ele>
        <time>2011-08-28T14:37:55Z</time>
      </trkpt>
      <trkpt lat="47.22778" lon="0.03048">
        <ele>79</ele>
        <time>2011-08-28T14:37:59Z</time>
      </trkpt>
      <trkpt lat="47.22773" lon="0.03047">
        <ele>79</ele>
        <time>2011-08-28T14:38:03Z</time>
      </trkpt>
      <trkpt lat="47.22767" lon="0.03046">
        <ele>79</ele>
        <time>2011-08-28T14:38:07Z</time>
      </trkpt>
      <trkpt lat="47.22762" lon="0.03045">
        <ele>79</ele>
        <time>2011-08-28T14:38:11Z</time>
      </trkpt>
      <trkpt lat="47.22756" lon="0.03044">
        <ele>79</ele>
        <time>2011-08-28T14:38:15Z</time>
      </trkpt>
      <trkpt lat="47.22751" lon="0.03043">
        <ele>79</ele>
        <time>2011-08-28T14:38:19Z</time>
      </trkpt>
      <trkpt lat="47.22746" lon="0.03042">
        <ele>79</ele>
        <time>2011-08-28T14:38:25Z</time>
      </trkpt>
      <trkpt lat="47.22741" lon="0.03042">
        <ele>79</ele>
        <time>2011-08-28T14:38:31Z</time>
      </trkpt>
      <trkpt lat="47.22737" lon="0.0304">
        <ele>79</ele>
        <time>2011-08-28T14:38:36Z</time>
      </trkpt>
      <trkpt lat="47.22731" lon="0.03039">
        <ele>78</ele>
        <time>2011-08-28T14:38:41Z</time>
      </trkpt>
      <trkpt lat="47.22726" lon="0.03038">
        <ele>78</ele>
        <time>2011-08-28T14:38:45Z</time>
      </trkpt>
      <trkpt lat="47.22722" lon="0.03038">
        <ele>78</ele>
        <time>2011-08-28T14:38:49Z</time>
      </trkpt>
      <trkpt lat="47.22717" lon="0.03037">
        <ele>77</ele>
        <time>2011-08-28T14:38:53Z</time>
      </trkpt>
      <trkpt lat="47.22712" lon="0.03034">
        <ele>77</ele>
        <time>2011-08-28T14:38:59Z</time>
      </trkpt>
      <trkpt lat="47.22707" lon="0.03032">
        <ele>77</ele>
        <time>2011-08-28T14:39:03Z</time>
      </trkpt>
      <trkpt lat="47.22703" lon="0.0303">
        <ele>77</ele>
        <time>2011-08-28T14:39:07Z</time>
      </trkpt>
      <trkpt lat="47.22698" lon="0.0303">
        <ele>77</ele>
        <time>2011-08-28T14:39:11Z</time>
      </trkpt>
      <trkpt lat="47.22692" lon="0.03029">
        <ele>77</ele>
        <time>2011-08-28T14:39:15Z</time>
      </trkpt>
      <trkpt lat="47.22687" lon="0.03028">
        <ele>77</ele>
        <time>2011-08-28T14:39:18Z</time>
      </trkpt>
      <trkpt lat="47.22681" lon="0.03027">
        <ele>77</ele>
        <time>2011-08-28T14:39:21Z</time>
      </trkpt>
      <trkpt lat="47.22675" lon="0.03025">
        <ele>77</ele>
        <time>2011-08-28T14:39:24Z</time>
      </trkpt>
      <trkpt lat="47.22669" lon="0.03024">
        <ele>77</ele>
        <time>2011-08-28T14:39:27Z</time>
      </trkpt>
      <trkpt lat="47.22663" lon="0.03023">
        <ele>77</ele>
        <time>2011-08-28T14:39:30Z</time>
      </trkpt>
      <trkpt lat="47.22658" lon="0.03021">
        <ele>77</ele>
        <time>2011-08-28T14:39:33Z</time>
      </trkpt>
      <trkpt lat="47.22653" lon="0.0302">
        <ele>77</ele>
        <time>2011-08-28T14:39:36Z</time>
      </trkpt>
      <trkpt lat="47.22647" lon="0.03018">
        <ele>77</ele>
        <time>2011-08-28T14:39:39Z</time>
      </trkpt>
      <trkpt lat="47.22642" lon="0.03017">
        <ele>77</ele>
        <time>2011-08-28T14:39:42Z</time>
      </trkpt>
      <trkpt lat="47.22636" lon="0.03016">
        <ele>77</ele>
        <time>2011-08-28T14:39:45Z</time>
      </trkpt>
      <trkpt lat="47.22632" lon="0.03014">
        <ele>77</ele>
        <time>2011-08-28T14:39:48Z</time>
      </trkpt>
      <trkpt lat="47.22627" lon="0.03013">
        <ele>77</ele>
        <time>2011-08-28T14:39:51Z</time>
      </trkpt>
      <trkpt lat="47.22622" lon="0.03011">
        <ele>77</ele>
        <time>2011-08-28T14:39:54Z</time>
      </trkpt>
      <trkpt lat="47.22617" lon="0.0301">
        <ele>77</ele>
        <time>2011-08-28T14:39:57Z</time>
      </trkpt>
      <trkpt lat="47.22613" lon="0.03009">
        <ele>77</ele>
        <time>2011-08-28T14:40:00Z</time>
      </trkpt>
      <trkpt lat="47.22607" lon="0.03007">
        <ele>77</ele>
        <time>2011-08-28T14:40:04Z</time>
      </trkpt>
      <trkpt lat="47.22601" lon="0.03005">
        <ele>77</ele>
        <time>2011-08-28T14:40:08Z</time>
      </trkpt>
      <trkpt lat="47.22596" lon="0.03004">
        <ele>77</ele>
        <time>2011-08-28T14:40:12Z</time>
      </trkpt>
      <trkpt lat="47.22591" lon="0.03002">
        <ele>77</ele>
        <time>2011-08-28T14:40:16Z</time>
      </trkpt>
      <trkpt lat="47.22585" lon="0.03">
        <ele>77</ele>
        <time>2011-08-28T14:40:20Z</time>
      </trkpt>
      <trkpt lat="47.2258" lon="0.02998">
        <ele>78</ele>
        <time>2011-08-28T14:40:24Z</time>
      </trkpt>
      <trkpt lat="47.22575" lon="0.02996">
        <ele>78</ele>
        <time>2011-08-28T14:40:28Z</time>
      </trkpt>
      <trkpt lat="47.22569" lon="0.02995">
        <ele>78</ele>
        <time>2011-08-28T14:40:32Z</time>
      </trkpt>
      <trkpt lat="47.22564" lon="0.02992">
        <ele>78</ele>
        <time>2011-08-28T14:40:36Z</time>
      </trkpt>
      <trkpt lat="47.22559" lon="0.02989">
        <ele>78</ele>
        <time>2011-08-28T14:40:40Z</time>
      </trkpt>
      <trkpt lat="47.22554" lon="0.02984">
        <ele>78</ele>
        <time>2011-08-28T14:40:44Z</time>
      </trkpt>
      <trkpt lat="47.22552" lon="0.02976">
        <ele>78</ele>
        <time>2011-08-28T14:40:48Z</time>
      </trkpt>
      <trkpt lat="47.22552" lon="0.02967">
        <ele>78</ele>
        <time>2011-08-28T14:40:52Z</time>
      </trkpt>
      <trkpt lat="47.22552" lon="0.02959">
        <ele>79</ele>
        <time>2011-08-28T14:40:56Z</time>
      </trkpt>
      <trkpt lat="47.22552" lon="0.02952">
        <ele>79</ele>
        <time>2011-08-28T14:41:00Z</time>
      </trkpt>
      <trkpt lat="47.2255" lon="0.02946">
        <ele>79</ele>
        <time>2011-08-28T14:41:07Z</time>
      </trkpt>
      <trkpt lat="47.22546" lon="0.02944">
        <ele>79</ele>
        <time>2011-08-28T14:41:19Z</time>
      </trkpt>
      <trkpt lat="47.2254" lon="0.02941">
        <ele>79</ele>
        <time>2011-08-28T14:41:26Z</time>
      </trkpt>
      <trkpt lat="47.22536" lon="0.02936">
        <ele>79</ele>
        <time>2011-08-28T14:41:31Z</time>
      </trkpt>
      <trkpt lat="47.22535" lon="0.02929">
        <ele>80</ele>
        <time>2011-08-28T14:41:37Z</time>
      </trkpt>
      <trkpt lat="47.22535" lon="0.02922">
        <ele>80</ele>
        <time>2011-08-28T14:41:42Z</time>
      </trkpt>
      <trkpt lat="47.22534" lon="0.02915">
        <ele>80</ele>
        <time>2011-08-28T14:41:47Z</time>
      </trkpt>
      <trkpt lat="47.22531" lon="0.02908">
        <ele>80</ele>
        <time>2011-08-28T14:41:52Z</time>
      </trkpt>
      <trkpt lat="47.22527" lon="0.02904">
        <ele>80</ele>
        <time>2011-08-28T14:41:56Z</time>
      </trkpt>
      <trkpt lat="47.22522" lon="0.02906">
        <ele>80</ele>
        <time>2011-08-28T14:42:00Z</time>
      </trkpt>
      <trkpt lat="47.22519" lon="0.02911">
        <ele>81</ele>
        <time>2011-08-28T14:42:04Z</time>
      </trkpt>
      <trkpt lat="47.22516" lon="0.02916">
        <ele>81</ele>
        <time>2011-08-28T14:42:08Z</time>
      </trkpt>
      <trkpt lat="47.22512" lon="0.0292">
        <ele>81</ele>
        <time>2011-08-28T14:42:12Z</time>
      </trkpt>
      <trkpt lat="47.22508" lon="0.02925">
        <ele>81</ele>
        <time>2011-08-28T14:42:16Z</time>
      </trkpt>
      <trkpt lat="47.22505" lon="0.0293">
        <ele>81</ele>
        <time>2011-08-28T14:42:20Z</time>
      </trkpt>
      <trkpt lat="47.22501" lon="0.02935">
        <ele>81</ele>
        <time>2011-08-28T14:42:24Z</time>
      </trkpt>
      <trkpt lat="47.22496" lon="0.02938">
        <ele>82</ele>
        <time>2011-08-28T14:42:28Z</time>
      </trkpt>
      <trkpt lat="47.22491" lon="0.02938">
        <ele>82</ele>
        <time>2011-08-28T14:42:32Z</time>
      </trkpt>
      <trkpt lat="47.22486" lon="0.02935">
        <ele>82</ele>
        <time>2011-08-28T14:42:36Z</time>
      </trkpt>
      <trkpt lat="47.22481" lon="0.02933">
        <ele>82</ele>
        <time>2011-08-28T14:42:40Z</time>
      </trkpt>
      <trkpt lat="47.22476" lon="0.02931">
        <ele>82</ele>
        <time>2011-08-28T14:42:44Z</time>
      </trkpt>
      <trkpt lat="47.22472" lon="0.0293">
        <ele>82</ele>
        <time>2011-08-28T14:42:48Z</time>
      </trkpt>
      <trkpt lat="47.22468" lon="0.02928">
        <ele>82</ele>
        <time>2011-08-28T14:42:52Z</time>
      </trkpt>
      <trkpt lat="47.22462" lon="0.02929">
        <ele>82</ele>
        <time>2011-08-28T14:42:58Z</time>
      </trkpt>
      <trkpt lat="47.22458" lon="0.0293">
        <ele>82</ele>
        <time>2011-08-28T14:43:04Z</time>
      </trkpt>
      <trkpt lat="47.22453" lon="0.02929">
        <ele>82</ele>
        <time>2011-08-28T14:43:12Z</time>
      </trkpt>
      <trkpt lat="47.22448" lon="0.02927">
        <ele>82</ele>
        <time>2011-08-28T14:43:22Z</time>
      </trkpt>
      <trkpt lat="47.22441" lon="0.02924">
        <ele>82</ele>
        <time>2011-08-28T14:43:25Z</time>
      </trkpt>
      <trkpt lat="47.22437" lon="0.02923">
        <ele>82</ele>
        <time>2011-08-28T14:43:27Z</time>
      </trkpt>
      <trkpt lat="47.22432" lon="0.02921">
        <ele>82</ele>
        <time>2011-08-28T14:43:30Z</time>
      </trkpt>
      <trkpt lat="47.22427" lon="0.02919">
        <ele>83</ele>
        <time>2011-08-28T14:43:35Z</time>
      </trkpt>
      <trkpt lat="47.22423" lon="0.02916">
        <ele>83</ele>
        <time>2011-08-28T14:43:44Z</time>
      </trkpt>
      <trkpt lat="47.22418" lon="0.02913">
        <ele>83</ele>
        <time>2011-08-28T14:43:50Z</time>
      </trkpt>
      <trkpt lat="47.22415" lon="0.02908">
        <ele>83</ele>
        <time>2011-08-28T14:43:56Z</time>
      </trkpt>
      <trkpt lat="47.22413" lon="0.02901">
        <ele>83</ele>
        <time>2011-08-28T14:44:02Z</time>
      </trkpt>
      <trkpt lat="47.22411" lon="0.02894">
        <ele>83</ele>
        <time>2011-08-28T14:44:05Z</time>
      </trkpt>
      <trkpt lat="47.22408" lon="0.02889">
        <ele>83</ele>
        <time>2011-08-28T14:44:10Z</time>
      </trkpt>
    </trkseg>
  </trk>
</gpx>